GFSGBSN_con_sbcape_000.txt.gz
CAPE
33 46 62 42 41 65 42 63 57 17 2 2 1 3 4 1 3 7 0 0 0 1 11 8 24 31 5 9 3 12 0 0 0 0 2 3 4 0 0 40 60 23 23 15 2 0 0
18 44 70 51 51 81 63 17 42 42 22 16 7 4 6 4 5 8 5 0 2 28 25 35 41 67 10 4 0 0 18 5 0 5 22 39 34 4 0 17 38 61 47 31 19 3 2
22 14 49 61 48 67 80 47 37 32 20 36 20 4 20 18 0 9 6 6 1 19 31 49 54 24 20 0 0 0 24 5 0 0 0 59 38 53 33 12 31 75 48 86 19 8 7
11 20 18 54 60 76 79 76 55 42 14 23 25 26 22 43 29 24 6 0 11 18 60 59 58 41 10 0 0 0 0 0 0 0 0 1 11 59 42 35 42 44 43 14 3 15 10
17 4 20 52 58 90 99 96 81 60 17 17 17 44 38 53 52 60 44 7 14 13 53 64 46 49 7 0 0 0 0 0 0 0 1 0 6 40 53 34 44 58 16 5 6 24 10
59 13 51 56 83 85 90 105 92 81 66 50 53 55 51 45 67 69 53 0 12 37 28 38 36 45 0 0 0 0 0 2 0 0 4 35 38 41 37 49 5 3 35 5 16 3 43
60 104 116 98 103 99 86 106 89 92 85 64 56 51 46 66 68 68 28 0 0 4 20 0 0 0 6 0 0 0 0 2 1 2 3 13 49 8 0 0 0 10 23 194 63 73 96
39 55 148 157 129 115 108 98 99 88 89 68 59 35 42 65 75 68 48 10 0 1 10 9 0 1 6 10 3 0 0 10 16 16 3 30 14 0 0 0 10 1 20 61 109 210 92
24 27 81 121 174 113 157 93 94 96 95 69 50 25 36 44 51 59 19 3 0 0 5 8 0 2 5 18 13 10 0 0 3 13 14 7 0 0 9 8 18 19 18 89 96 144 43
62 20 41 20 123 172 108 92 82 87 77 65 42 18 22 39 25 6 37 31 3 1 0 2 2 5 7 8 12 4 20 9 16 10 16 45 0 2 4 6 1 8 1 44 38 122 2
94 79 37 36 13 26 166 98 92 81 71 52 27 28 19 1 41 29 6 0 0 0 0 0 18 0 7 2 7 0 0 31 22 4 37 0 0 9 24 0 1 0 2 34 94 1 30
122 114 74 81 17 10 101 142 107 89 71 41 16 14 31 31 13 21 6 2 0 4 1 0 10 17 23 11 11 0 17 42 24 37 19 7 53 78 39 12 4 10 23 0 42 0 47
141 144 113 91 26 12 19 174 121 95 78 46 27 12 13 4 3 2 0 2 7 11 0 12 11 15 6 29 33 14 22 42 30 68 104 48 50 62 4 24 109 175 112 26 29 6 7
172 180 146 101 19 9 18 70 144 123 98 54 30 20 3 0 0 0 8 8 10 3 0 1 7 9 41 33 32 17 19 38 48 38 25 7 7 12 0 2 94 68 12 2 45 0 2
158 171 156 127 43 21 32 140 189 116 77 45 19 12 7 2 0 0 15 5 6 15 10 12 15 21 44 52 18 16 25 25 0 4 6 189 1 16 0 0 95 12 3 0 15 0 0
168 152 152 102 44 39 65 128 236 142 57 37 2 3 7 0 2 17 20 4 8 10 0 10 28 2 14 7 4 14 18 0 4 19 0 0 5 24 41 26 21 30 1 11 13 3 15
175 170 101 97 57 50 65 9 208 196 88 0 0 2 0 2 5 29 14 3 6 6 1 6 1 5 8 0 0 0 0 0 0 0 0 3 28 1 1 51 27 52 39 29 7 4 0
126 145 68 80 81 75 59 9 11 116 40 0 0 3 5 24 23 25 13 5 19 15 2 15 3 11 0 2 0 6 0 0 0 0 0 12 9 2 1 0 6 2 12 1 5 0 0
76 102 88 68 86 79 31 22 7 170 3 0 1 14 15 20 11 13 7 15 9 14 31 21 8 0 5 2 0 0 4 3 1 0 0 8 12 1 0 10 2 44 1 0 0 0 0
39 81 84 69 60 59 48 23 58 158 7 0 1 23 30 16 3 21 8 17 11 6 2 10 2 6 6 2 0 0 0 5 5 0 84 21 12 3 1 0 0 4 0 0 0 16 0
33 89 77 74 76 40 55 30 40 138 7 0 0 4 3 7 6 4 12 8 11 12 6 0 1 1 11 3 6 0 0 7 0 0 27 25 12 6 0 0 0 0 1 0 0 0 0
16 46 73 69 80 49 42 27 20 104 4 0 0 0 12 31 0 6 4 11 9 11 17 12 0 12 31 0 0 0 0 1 0 0 0 2 1 0 0 0 1 0 1 0 0 0 0
22 19 79 78 74 57 33 28 31 67 0 2 0 0 0 7 16 29 25 1 10 10 11 3 0 0 30 18 1 0 0 0 3 0 0 4 0 2 0 0 0 0 0 0 0 0 0
52 23 46 73 67 51 40 54 35 56 8 0 0 0 10 2 0 13 35 28 20 21 16 18 7 12 30 4 9 0 0 1 0 4 2 0 0 1 0 0 0 0 0 0 0 0 0
53 22 35 68 59 62 28 47 45 16 46 0 0 0 1 3 0 0 0 35 14 3 19 17 0 0 0 0 19 9 6 6 0 0 0 0 15 9 0 0 0 0 0 0 0 0 0
45 26 34 58 63 71 34 11 28 9 37 0 0 0 0 2 0 0 0 5 12 6 4 0 0 0 0 0 15 15 0 2 2 0 0 3 15 9 0 0 0 0 0 0 0 0 0
48 30 48 63 58 62 25 31 36 21 28 1 0 0 0 3 0 0 0 3 31 0 0 0 0 0 0 0 12 6 7 0 3 0 0 0 4 3 3 1 0 0 0 0 0 0 0
34 38 39 63 52 55 29 31 26 13 14 5 0 0 0 1 0 0 0 0 12 0 1 0 0 1 2 0 3 0 0 0 0 0 0 0 1 9 1 2 0 0 0 0 0 0 0
29 47 45 58 61 68 39 33 35 13 11 11 1 0 0 0 0 0 0 0 0 0 0 0 0 0 13 7 0 0 0 0 3 1 0 0 0 1 0 0 0 0 0 0 0 0 0

GFSGBSN_con_sbcape_003.txt.gz
CAPE
19 22 21 10 44 62 74 75 70 83 31 4 1 1 4 6 4 0 0 0 0 4 0 14 24 56 28 14 0 4 0 0 0 0 0 15 6 0 0 0 0 0 0 0 0 0 0
59 58 33 36 40 64 65 67 66 80 58 35 11 3 1 3 4 0 0 1 0 3 12 0 16 48 22 5 0 0 0 0 0 12 5 1 4 0 3 0 0 7 0 0 0 0 0
21 94 54 47 46 67 59 77 76 68 42 32 37 20 8 0 2 0 1 14 16 5 0 0 0 6 6 0 0 0 17 6 0 0 0 33 30 26 20 2 0 10 10 1 3 6 2
26 27 95 59 70 54 62 78 94 90 56 29 49 50 25 15 2 7 2 14 15 28 11 23 24 27 2 0 0 0 0 0 0 0 0 0 3 0 22 12 0 16 41 20 0 2 0
16 15 43 85 107 94 89 78 90 108 93 46 54 54 45 29 33 36 38 21 24 24 22 30 25 21 0 0 0 0 0 0 0 0 0 0 0 1 2 12 8 9 10 29 12 0 30
26 16 27 60 108 116 125 124 104 90 99 87 67 57 47 39 38 47 45 2 6 40 15 21 13 15 0 0 0 0 0 0 0 0 0 7 0 0 0 29 8 19 26 8 4 0 44
36 41 40 51 54 181 117 128 137 102 88 82 80 68 56 31 45 55 2 0 0 0 21 0 0 0 0 0 0 0 0 0 0 0 0 0 10 13 0 0 1 0 0 16 5 0 31
56 44 29 56 42 58 166 163 140 148 92 86 89 69 52 46 66 70 3 9 0 0 3 0 0 0 0 6 4 0 0 1 8 2 0 0 3 0 0 0 0 2 1 0 0 0 42
60 72 73 65 54 45 46 201 160 175 125 101 105 69 60 58 64 32 0 1 0 0 1 12 0 0 0 3 4 4 0 0 2 6 1 0 0 0 0 0 5 1 2 0 0 0 9
78 64 84 73 67 53 33 46 182 146 94 84 81 88 54 63 10 0 4 0 2 0 7 0 0 5 13 24 9 6 10 0 20 1 0 0 0 0 2 0 0 0 0 0 0 27 66
72 70 89 82 99 65 81 55 55 210 123 97 86 88 39 0 0 1 0 0 2 12 0 0 1 0 12 2 3 1 19 8 11 2 12 0 0 0 0 0 0 0 0 0 40 57 44
81 101 100 108 145 116 89 17 35 53 172 104 91 60 45 13 0 0 0 0 1 1 0 1 2 1 8 13 16 8 1 21 8 16 14 0 0 5 0 0 0 4 11 45 64 45 28
77 101 105 146 118 149 102 37 60 0 191 134 39 35 9 0 0 0 0 0 8 3 0 2 5 7 4 13 19 24 28 47 32 12 7 4 0 0 8 0 1 47 25 65 48 36 8
94 95 139 165 76 184 136 11 20 8 202 100 10 34 1 0 0 0 0 15 13 0 0 0 0 4 12 1 19 22 9 30 16 6 12 1 0 9 0 0 0 2 14 36 1 0 0
99 91 137 140 96 100 163 54 16 3 179 92 10 19 0 0 0 0 0 3 0 0 1 1 5 16 27 18 6 34 4 8 1 0 0 79 0 64 82 150 132 4 52 0 1 13 16
100 86 101 121 107 107 35 15 5 13 133 26 7 16 7 0 0 0 15 1 0 0 0 6 18 8 1 3 21 3 10 0 0 0 0 0 2 3 63 91 168 109 24 49 8 3 17
95 104 85 91 86 89 69 32 25 55 178 25 2 10 11 2 8 8 9 3 0 0 3 13 15 5 0 0 0 1 0 0 0 0 0 1 0 0 12 13 54 14 19 34 15 7 5
119 128 76 93 63 98 69 51 80 13 6 2 2 21 7 11 24 17 12 1 7 1 9 6 17 9 0 0 0 0 0 0 0 0 0 10 24 16 0 60 0 29 26 16 4 13 35
99 103 67 100 74 81 53 81 54 18 37 0 5 23 10 3 6 7 10 10 12 11 23 30 11 16 10 0 2 0 0 0 0 0 1 0 28 17 7 24 5 8 10 30 12 1 0
110 80 46 129 111 86 77 61 30 19 31 9 4 31 37 22 6 6 6 8 16 5 7 15 13 5 29 2 0 0 0 1 0 0 33 4 17 6 2 12 1 13 1 25 6 2 0
105 85 47 38 69 96 77 60 48 22 22 0 3 9 4 6 4 16 19 19 15 7 2 4 10 1 7 0 0 0 0 3 0 79 7 0 3 0 0 0 1 0 0 8 3 0 0
102 76 56 40 86 83 73 49 47 21 6 0 0 3 7 0 0 5 6 20 21 10 11 20 1 5 7 0 0 0 0 0 0 19 0 0 4 4 0 0 9 2 0 1 0 0 0
95 58 52 37 40 64 66 63 43 35 17 2 0 0 7 5 0 3 4 0 0 2 2 1 3 3 23 1 16 6 0 0 1 0 0 0 5 12 0 1 1 2 0 0 0 0 0
97 49 51 34 65 69 93 69 35 18 27 12 0 0 0 5 0 9 13 3 5 18 6 1 9 2 1 3 0 5 3 0 0 0 0 0 0 3 0 0 0 0 0 0 0 0 0
87 64 47 35 54 73 61 63 44 29 10 0 0 2 1 9 3 5 2 0 4 1 12 8 12 0 7 6 3 11 8 24 2 0 0 0 0 9 0 0 0 0 0 0 0 0 0
92 63 39 38 59 78 56 61 37 30 15 7 0 0 0 0 1 0 1 3 0 0 4 7 0 0 1 2 23 6 15 4 2 15 0 0 0 25 0 0 0 0 0 0 0 0 0
86 75 41 40 50 50 53 50 46 19 16 2 0 0 0 0 0 1 2 3 1 19 8 0 0 0 0 4 7 0 1 0 1 1 1 7 3 2 0 0 0 0 0 0 0 0 0
85 77 45 37 31 61 53 43 42 39 21 2 0 0 0 0 0 0 0 0 0 5 17 0 0 1 0 0 14 0 0 0 0 0 0 1 0 2 9 5 0 0 0 0 0 0 0
80 52 51 39 31 42 55 53 37 37 24 11 0 0 0 0 0 0 0 0 0 0 7 0 0 0 0 1 0 0 0 0 0 0 0 0 0 0 0 0 0 0 0 0 0 0 0

GFSGBSN_con_sbcape_006.txt.gz
CAPE
30 35 76 74 16 33 80 107 122 110 55 72 36 8 5 4 7 1 0 0 0 2 0 7 13 29 1 9 0 0 0 0 0 0 9 1 0 0 0 0 0 0 0 0 1 0 0
18 16 31 48 103 107 30 32 75 112 90 84 63 26 4 1 7 1 0 0 0 0 5 0 15 13 0 0 0 0 0 0 0 0 0 0 1 0 0 0 0 0 0 0 0 0 0
17 15 7 19 67 127 107 86 74 125 107 83 85 62 41 0 3 2 0 5 8 0 0 1 14 6 11 0 0 0 0 0 0 2 25 20 0 16 15 2 0 0 0 0 0 0 0
41 41 19 3 28 40 90 108 114 113 135 98 89 96 56 29 13 15 2 16 0 17 8 25 30 13 1 0 0 0 0 0 0 0 0 0 2 43 25 23 2 2 1 2 0 0 0
24 32 32 35 20 18 45 147 118 119 116 121 117 100 73 42 47 48 44 21 11 10 15 33 5 4 0 0 0 0 0 0 0 0 0 0 0 0 0 28 18 4 4 0 3 0 6
25 31 28 51 32 15 20 54 180 135 126 96 105 101 90 61 61 71 58 20 14 21 19 27 20 12 0 0 0 0 0 0 0 0 0 0 0 0 0 20 11 18 10 0 0 5 15
38 33 39 51 64 36 18 28 23 174 148 108 89 93 90 70 59 65 7 0 0 0 15 0 0 0 0 0 0 0 0 0 0 0 0 0 11 3 0 0 0 0 0 0 0 0 1
55 47 81 45 60 61 40 32 21 37 149 122 93 91 90 89 71 70 0 0 0 0 0 0 0 0 0 1 0 0 0 0 2 2 0 0 5 0 0 0 0 0 0 0 0 0 0
41 33 71 84 42 41 64 47 47 26 188 156 99 109 95 87 77 50 3 0 0 0 0 0 0 0 0 2 2 5 0 0 0 2 3 1 0 0 0 0 2 0 0 0 0 0 0
69 66 49 99 75 56 67 62 54 38 94 90 109 131 114 64 33 0 14 0 0 2 1 0 0 2 11 21 18 5 0 0 11 2 1 3 0 0 0 4 0 1 0 0 2 25 1
88 104 73 100 84 99 103 95 71 82 38 59 86 148 106 7 0 0 0 0 0 7 0 0 0 0 11 6 3 0 1 3 10 0 0 0 0 0 0 0 0 0 0 0 7 15 22
97 90 78 116 94 128 113 50 50 71 72 35 45 151 24 0 0 0 0 0 4 1 0 0 0 0 12 12 12 3 19 24 11 12 12 0 0 0 0 0 0 6 3 8 15 39 13
84 90 84 102 120 190 138 60 150 72 11 80 4 111 1 0 0 0 0 3 2 0 0 2 2 3 0 3 9 20 5 28 10 4 3 11 1 0 1 0 0 6 22 42 23 26 8
102 109 102 97 67 119 102 79 127 110 31 35 9 12 0 0 0 0 0 10 0 0 0 0 0 1 3 0 11 5 24 23 32 8 18 3 1 3 0 0 0 0 1 8 9 0 0
115 131 115 83 79 70 94 47 179 79 25 28 40 5 1 2 0 0 5 18 0 0 0 0 4 8 8 15 3 32 32 8 0 6 0 5 1 0 0 0 5 11 23 0 7 9 19
112 125 105 101 55 74 75 52 83 64 32 30 44 1 2 7 1 1 2 1 0 0 0 0 1 6 1 3 7 15 14 0 4 0 0 0 1 0 5 8 8 11 10 12 21 6 11
105 105 112 64 49 84 70 54 82 57 66 16 9 16 16 19 6 19 6 0 0 0 0 3 13 13 1 0 0 2 0 0 0 0 0 0 2 0 0 2 85 29 26 28 0 4 36
97 100 97 50 44 80 76 84 60 77 52 16 53 15 28 16 15 11 20 9 0 1 2 12 4 7 1 0 0 0 0 0 0 0 0 0 25 2 0 0 9 3 0 0 7 0 21
123 99 76 46 83 145 65 77 71 86 64 48 53 23 19 9 3 6 9 10 5 21 17 13 14 7 0 0 0 0 0 0 0 0 0 8 34 1 5 11 6 55 0 24 0 33 13
109 102 83 48 76 103 85 85 92 58 69 45 30 14 29 17 21 8 8 16 11 8 9 13 26 8 15 19 0 0 0 0 0 0 42 5 13 6 5 54 4 1 15 2 0 18 8
100 98 106 42 50 56 109 104 89 61 17 16 34 18 11 10 12 2 4 14 4 13 2 4 5 6 12 6 0 0 0 0 1 28 25 9 10 0 3 4 13 3 19 4 19 0 0
99 95 98 50 49 27 70 77 75 43 17 51 28 12 8 0 3 11 6 14 19 20 20 16 4 15 0 7 0 0 0 0 1 0 7 4 2 7 4 0 2 6 3 4 2 0 1
99 88 88 43 41 33 91 89 82 25 45 5 5 0 4 0 1 6 5 2 0 9 7 0 11 11 21 1 5 22 7 0 0 5 0 0 1 6 4 10 5 17 1 2 0 1 0
85 84 86 59 36 60 80 71 81 31 52 33 11 0 13 16 3 7 5 0 0 0 1 5 0 8 2 16 24 26 6 0 0 0 0 0 0 8 3 7 0 0 0 0 2 0 0
90 78 82 63 35 51 66 69 68 36 28 19 5 0 0 7 0 0 0 0 0 0 0 16 5 3 0 3 27 9 2 0 0 0 0 0 0 0 0 0 0 0 0 0 0 0 0
87 86 69 59 29 31 48 51 65 49 45 15 1 0 0 0 0 0 0 0 0 0 0 0 0 0 7 35 28 15 2 0 0 0 0 0 0 7 0 0 0 0 0 0 0 0 0
86 84 60 34 42 32 38 47 53 57 52 17 0 0 0 10 0 0 0 0 0 0 1 0 1 2 1 22 14 8 1 0 0 0 7 0 0 0 0 0 0 0 0 0 0 0 0
83 76 51 26 46 29 13 44 59 41 32 24 7 0 1 0 0 0 0 0 0 0 4 1 13 4 1 4 1 3 0 0 0 0 0 0 3 0 0 0 0 0 0 0 0 0 0
66 77 70 18 39 33 12 36 47 27 26 21 1 0 0 0 0 0 0 0 0 0 0 1 2 1 0 3 1 0 0 0 1 0 0 0 0 0 0 0 0 0 0 0 0 0 0

GFSGBSN_con_sbcape_009.txt.gz
CAPE
18 7 7 9 9 14 60 107 118 117 69 90 108 47 28 9 11 17 10 8 0 6 2 4 0 12 0 2 0 0 0 0 0 18 1 11 0 0 0 0 0 0 0 0 0 0 0
26 28 24 15 11 13 10 17 151 120 90 58 216 79 48 13 9 17 14 10 3 2 9 0 0 4 0 0 0 0 0 0 0 0 0 0 2 0 1 0 0 0 0 0 0 0 0
25 27 20 26 34 21 8 10 31 104 122 77 124 141 84 55 6 10 19 21 25 15 1 0 2 0 1 0 0 0 0 0 0 0 0 0 4 25 13 13 0 0 0 0 0 0 0
30 28 35 33 42 43 31 31 33 50 100 100 113 133 92 73 47 34 23 24 37 19 21 13 20 7 0 0 0 0 0 0 0 0 0 0 29 31 46 14 8 18 6 3 0 0 0
22 29 30 34 51 60 58 40 48 30 21 123 126 126 121 99 58 50 65 40 31 25 30 37 0 0 0 0 0 0 0 0 0 0 0 0 1 1 1 33 23 10 0 0 1 0 0
20 19 25 25 41 45 53 46 37 22 12 38 131 128 96 102 75 65 77 59 36 32 38 17 7 3 0 0 0 0 0 0 0 0 0 0 0 0 3 20 1 2 19 0 0 1 0
33 35 26 29 26 46 56 41 47 31 12 44 68 95 102 112 90 88 34 0 0 0 19 0 0 0 0 0 0 0 0 0 0 0 0 0 6 0 0 0 5 0 0 1 0 0 0
42 49 46 51 34 35 69 67 61 28 35 25 36 111 124 129 113 104 0 0 0 0 0 0 0 0 0 0 0 0 0 0 0 1 0 0 0 0 0 0 0 0 4 9 1 1 0
64 83 58 79 53 55 76 76 78 74 31 20 47 121 132 133 142 44 0 1 0 0 0 0 0 0 0 0 1 0 0 0 0 0 0 0 0 0 0 0 0 1 0 4 4 0 0
81 93 89 70 65 78 71 100 88 74 65 42 26 71 96 129 24 11 11 0 0 0 0 0 0 0 0 10 9 0 0 0 0 0 8 11 2 0 0 0 0 3 0 0 0 4 0
70 71 91 95 62 73 104 89 138 74 74 99 80 67 129 29 0 3 0 0 0 0 0 0 0 0 9 0 0 0 0 6 5 0 0 0 0 0 0 0 0 2 0 0 0 20 8
79 89 120 101 109 107 108 128 182 93 74 122 89 81 57 1 0 0 0 0 2 0 0 0 0 2 16 16 10 1 3 19 1 5 3 0 0 0 0 0 0 4 5 1 0 0 9
81 100 145 131 128 128 158 137 181 79 101 91 64 76 64 0 0 0 0 0 1 0 0 1 2 4 0 8 7 11 25 25 30 15 4 31 4 0 1 0 0 0 6 15 17 19 7
103 109 120 155 141 102 71 61 113 88 124 75 58 49 43 0 0 0 0 0 0 0 0 0 0 2 2 0 0 1 17 12 30 3 10 1 6 1 0 0 0 0 0 1 2 0 0
114 126 122 167 149 74 56 70 60 64 89 71 55 49 26 6 0 4 0 0 0 0 0 0 0 4 7 2 2 8 20 4 2 1 1 0 0 0 0 0 0 6 11 0 1 0 54
108 131 149 134 90 51 53 79 71 133 82 45 69 7 55 12 0 2 0 0 0 0 0 0 0 1 1 4 8 8 3 0 0 0 1 0 1 0 0 0 0 1 2 17 8 35 15
105 119 141 119 69 51 46 79 105 89 68 56 22 49 61 11 11 12 5 0 0 0 1 0 1 2 0 1 0 0 0 0 0 0 9 2 0 0 0 1 0 3 7 11 0 0 6
110 110 136 94 75 31 33 74 85 83 57 26 19 1 77 39 14 13 5 0 0 0 0 2 3 10 1 0 0 0 0 0 0 0 8 2 1 0 0 0 3 8 0 10 32 0 0
103 104 142 92 70 35 31 54 59 83 86 26 30 38 58 38 2 2 8 6 5 1 1 6 17 10 4 0 0 0 0 0 0 0 0 0 46 1 33 14 4 7 0 0 0 1 0
103 103 134 100 89 68 50 53 46 70 66 29 37 7 39 36 25 0 0 10 12 4 0 15 10 9 5 4 0 0 0 0 0 0 10 2 14 3 0 13 21 3 27 0 0 0 0
95 110 124 114 66 44 43 53 31 74 28 13 18 15 4 10 7 0 7 10 1 12 11 1 15 12 9 3 0 0 0 0 0 7 17 12 4 1 1 2 12 26 27 0 1 0 1
108 94 133 86 82 29 34 36 47 77 34 5 26 20 14 0 10 0 10 6 19 1 19 11 10 7 8 21 0 0 0 0 0 0 8 13 8 4 6 6 2 1 5 10 0 0 5
96 92 113 94 73 26 25 82 83 67 53 15 4 0 1 3 9 8 0 1 2 13 17 8 4 14 16 8 0 0 0 0 0 0 7 8 7 11 0 10 4 15 5 3 7 1 10
96 109 97 81 73 24 17 36 64 68 63 26 12 3 15 5 5 3 8 0 0 0 0 7 4 19 1 7 6 2 6 4 0 0 0 3 4 11 2 2 0 0 0 2 3 0 0
100 94 100 74 27 29 15 35 56 49 46 19 9 11 8 11 2 5 5 1 0 0 1 0 1 0 3 0 19 6 5 3 0 0 0 0 0 11 7 0 0 0 3 6 0 0 0
95 86 79 70 17 28 21 28 53 44 30 11 1 2 0 0 8 2 6 0 0 0 0 2 0 0 0 19 31 13 0 0 0 0 0 0 0 6 1 0 0 0 0 0 0 0 0
92 65 70 70 24 25 29 21 50 35 22 19 4 0 0 0 0 0 0 0 0 0 0 0 0 10 4 14 23 6 0 0 0 0 1 0 0 0 0 0 0 0 0 0 0 0 0
76 80 71 50 49 13 21 18 42 33 23 19 2 0 0 1 0 0 0 0 0 0 0 0 11 10 15 7 6 2 0 0 0 0 0 0 0 0 0 0 0 0 0 0 0 0 0
58 76 59 48 46 13 19 11 36 33 26 21 13 2 0 0 0 0 0 0 0 0 0 0 2 6 9 3 0 0 0 0 0 0 0 0 0 0 0 0 0 0 0 0 0 0 0

GFSGBSN_con_sbcape_012.txt.gz
CAPE
28 27 19 22 14 13 17 14 19 11 71 89 107 125 96 47 15 2 12 10 10 5 8 18 18 10 7 1 0 0 0 0 1 5 3 10 1 0 0 0 0 0 0 0 0 0 0
20 24 15 23 35 22 19 33 26 8 7 132 101 128 161 93 38 11 11 13 15 6 9 15 24 7 0 0 0 0 0 0 2 29 13 16 0 0 0 0 0 0 0 0 0 0 0
26 24 26 29 27 27 36 40 46 29 4 43 98 144 146 109 67 24 20 15 22 17 6 2 24 0 0 0 0 0 0 0 0 0 7 10 0 0 0 0 0 0 0 0 0 0 0
16 23 23 21 21 24 41 53 46 40 19 13 35 106 128 132 98 61 31 31 36 35 44 27 37 4 0 0 0 0 0 0 0 0 0 0 21 38 42 0 0 11 8 1 0 0 0
20 22 23 26 29 39 23 27 62 43 42 30 19 31 115 127 122 78 73 48 52 24 43 48 0 0 0 0 0 0 0 0 0 0 0 0 12 0 5 17 1 1 0 0 0 0 0
35 24 29 25 27 41 43 43 71 59 47 25 27 9 44 116 131 94 95 62 57 43 37 12 0 0 0 0 0 0 0 0 0 0 0 0 1 6 1 2 0 0 2 1 2 0 0
42 33 27 34 38 40 44 65 79 72 42 60 36 45 9 63 143 108 39 0 0 16 27 0 0 0 0 0 0 0 0 0 0 0 0 0 0 10 6 0 0 0 0 0 0 0 0
51 69 84 95 55 29 28 63 74 76 84 53 47 33 17 17 171 116 0 0 0 0 0 0 0 0 0 0 0 0 0 0 0 0 0 0 0 0 0 0 0 0 0 0 0 0 0
82 91 77 97 94 74 42 48 77 96 101 83 60 20 27 6 99 9 0 0 0 0 0 0 0 0 0 0 0 0 0 0 0 0 0 0 0 0 0 0 0 0 0 0 0 0 0
75 72 76 101 100 91 91 56 106 125 123 98 47 23 36 11 52 1 4 0 0 0 0 0 0 0 0 0 2 0 0 0 0 0 0 0 0 0 0 0 0 0 0 0 1 1 0
58 66 67 106 112 119 98 114 153 153 131 89 51 53 37 43 2 2 0 0 0 0 0 0 1 0 2 0 0 0 0 5 0 0 0 0 0 0 0 0 0 1 0 0 0 14 5
80 96 106 102 127 144 116 132 175 121 91 81 115 51 45 3 3 0 0 0 0 0 0 0 0 31 18 11 13 0 8 11 1 5 0 0 0 0 0 0 0 0 0 0 0 22 12
87 94 111 134 142 160 154 89 69 56 75 168 121 75 53 29 19 0 0 1 0 0 0 1 7 7 10 6 11 10 13 12 12 15 9 12 3 0 0 0 0 0 4 1 15 9 0
84 94 116 141 162 143 118 55 47 66 76 142 120 60 58 14 59 0 0 0 0 0 0 0 0 3 2 3 4 13 18 20 17 12 8 1 0 0 0 0 0 0 0 0 0 0 0
94 110 123 129 160 112 79 54 39 92 104 142 64 61 49 0 47 0 0 0 0 0 0 0 2 0 2 0 0 7 14 12 1 2 6 1 0 0 0 0 2 33 1 0 0 0 0
82 105 126 127 141 105 60 58 54 97 93 66 26 37 3 8 29 37 0 0 0 0 0 0 0 0 0 3 0 15 1 0 2 2 0 0 0 0 0 0 0 0 0 24 3 0 0
86 127 129 132 124 113 61 54 59 91 104 52 27 9 54 35 64 20 0 0 0 0 0 0 0 0 0 0 0 3 0 0 0 0 0 0 3 0 5 0 0 6 19 17 21 23 0
89 117 125 129 139 105 57 36 67 88 70 8 28 3 79 25 29 10 6 0 0 0 0 3 0 1 0 0 1 0 0 0 0 0 1 1 32 0 0 0 0 0 0 0 11 0 0
112 122 115 147 150 117 46 51 72 91 79 36 24 34 73 29 4 7 0 0 0 0 0 0 0 0 1 0 0 0 0 0 0 0 0 1 37 5 0 2 0 12 0 0 0 1 0
106 125 118 144 136 112 36 56 72 84 78 30 33 5 33 19 28 0 1 1 1 0 0 2 6 7 3 8 0 0 0 0 0 0 0 1 20 0 0 3 3 17 18 1 0 6 0
113 121 109 105 118 99 33 64 60 76 37 16 21 5 3 0 9 0 3 1 10 6 0 0 18 9 5 21 6 0 0 0 0 0 20 8 6 7 4 1 3 12 13 10 1 0 0
112 122 114 119 89 65 29 60 45 68 54 6 23 17 2 0 6 0 0 0 2 3 28 13 2 0 7 23 0 0 0 0 0 0 2 8 2 2 1 9 12 17 6 4 11 0 0
114 120 102 90 82 19 33 90 40 69 52 4 1 2 2 6 11 0 0 5 0 5 5 0 0 8 13 15 1 1 0 0 1 0 5 6 5 10 0 2 10 11 4 8 4 9 0
94 114 91 78 70 23 30 58 63 65 62 40 15 17 21 7 11 2 3 0 0 4 6 1 0 11 6 6 7 0 0 0 0 0 0 2 5 6 1 3 1 6 0 0 0 0 0
78 89 84 61 58 38 32 36 32 55 43 12 11 18 27 2 12 0 12 0 0 3 5 3 0 5 20 26 20 24 11 1 0 0 0 0 4 4 15 4 0 2 0 0 0 0 0
69 76 84 65 57 54 27 29 27 53 27 5 1 3 2 0 0 0 3 0 3 1 0 6 0 0 15 51 17 34 0 0 0 0 0 0 0 6 0 2 0 0 0 0 1 2 0
58 64 72 64 39 46 34 28 7 44 22 7 4 5 2 0 0 6 3 1 0 0 0 0 0 0 8 22 13 10 0 0 0 0 4 0 0 1 0 2 0 0 0 0 0 0 0
65 53 61 47 49 45 25 31 10 35 35 15 1 2 3 0 0 0 0 0 0 0 0 0 1 7 8 18 23 7 1 0 0 0 0 0 0 0 0 0 0 0 0 0 0 0 0
72 59 52 66 37 40 21 32 15 29 39 18 7 0 4 0 0 0 0 0 0 0 0 0 0 11 13 37 4 3 0 0 0 0 0 0 0 0 0 0 0 0 0 0 0 0 0

GFSGBSN_con_sbcape_015.txt.gz
CAPE
28 25 23 26 24 17 14 20 24 18 30 33 43 107 114 127 115 31 0 0 2 0 13 3 6 3 0 4 6 0 0 0 0 0 11 4 0 0 0 0 0 0 0 0 0 0 0
25 26 26 26 23 24 31 17 14 28 25 34 24 44 64 110 132 88 18 0 2 0 2 14 8 0 0 1 0 0 0 0 1 35 11 0 2 0 0 0 0 0 0 0 0 0 0
25 25 24 26 27 25 34 41 19 21 40 44 34 40 30 64 124 116 39 2 0 14 7 9 12 0 0 0 0 0 0 0 0 9 15 4 1 0 1 0 0 0 0 0 0 0 0
29 26 18 22 30 28 21 18 24 34 49 52 46 26 20 23 77 113 86 34 6 38 47 28 36 0 0 0 0 0 0 0 0 0 0 2 4 25 21 0 0 10 3 0 0 0 0
16 29 20 31 40 48 41 45 43 38 72 61 57 29 31 11 62 116 107 87 43 58 35 76 0 0 0 0 0 0 0 0 0 0 0 22 3 0 22 4 0 0 0 0 0 0 0
37 42 62 51 26 35 38 33 37 45 71 80 73 51 35 15 11 123 123 91 75 37 35 15 1 0 0 0 0 0 0 0 0 0 0 0 0 5 14 9 0 0 1 0 0 0 0
67 80 92 79 70 62 34 51 59 57 70 83 74 74 48 2 25 89 47 6 3 30 24 0 0 0 0 0 0 0 0 0 0 0 0 1 12 9 0 0 0 0 0 0 0 0 0
80 74 73 81 80 90 80 68 58 77 88 101 96 76 55 12 57 26 2 0 0 0 0 0 0 0 0 0 0 0 0 0 0 0 0 0 4 1 0 2 4 8 9 7 0 0 0
68 69 79 78 79 94 87 82 76 100 106 108 122 89 44 38 62 21 3 0 0 0 0 0 0 0 0 0 0 0 0 0 0 0 0 0 0 0 0 0 2 1 5 1 0 0 0
63 80 71 65 71 97 102 120 106 140 140 128 111 78 74 69 50 49 4 0 0 0 0 0 0 0 0 3 0 0 0 0 0 0 0 0 0 0 0 0 0 4 0 0 0 6 2
80 67 77 74 77 104 128 146 115 165 114 93 109 41 73 105 19 51 0 0 0 0 0 0 0 1 5 0 0 0 0 0 0 0 0 0 0 0 2 0 0 0 0 0 0 14 12
68 70 82 83 96 113 140 146 114 94 44 47 39 159 77 75 35 31 0 0 0 0 0 0 3 28 22 8 15 2 11 23 3 1 1 0 0 0 0 0 0 0 2 1 1 14 18
51 66 70 83 113 126 137 115 93 57 73 69 106 173 87 56 39 2 1 2 0 0 0 2 6 39 12 10 27 10 14 18 13 7 5 3 3 0 0 0 0 0 20 9 12 24 1
43 60 84 105 126 137 141 90 57 65 75 100 71 121 65 51 0 0 11 5 0 0 0 0 4 9 14 7 6 15 7 16 12 15 10 0 0 3 1 0 0 0 0 1 0 0 0
45 62 89 115 125 140 122 94 58 74 123 162 61 14 63 9 11 13 14 0 0 0 0 1 7 5 2 1 0 7 18 8 3 0 0 2 0 0 0 0 0 11 7 0 2 0 2
39 80 108 120 123 130 115 84 32 60 172 112 32 54 34 17 1 23 4 0 0 0 0 0 0 0 1 1 1 6 3 0 0 0 2 0 3 0 0 0 0 18 3 8 7 1 6
75 83 114 118 122 126 101 72 54 73 94 67 17 35 48 7 0 15 3 0 0 0 0 0 0 0 0 2 0 1 0 0 0 0 0 0 2 0 0 6 0 5 23 59 19 27 17
65 76 112 112 130 120 102 63 44 62 112 9 13 25 37 41 1 3 5 0 0 0 0 0 0 0 0 0 0 0 0 0 0 0 2 0 18 1 0 0 0 0 3 2 27 0 1
61 83 112 107 135 128 95 40 30 61 113 39 9 25 52 2 8 9 1 0 0 0 0 0 0 0 0 0 0 0 0 0 0 0 0 0 26 0 0 0 0 10 0 1 0 1 0
45 79 105 110 104 98 54 28 27 59 79 42 11 3 28 31 6 5 0 0 0 0 0 0 0 0 4 2 0 0 0 0 0 0 0 0 0 0 0 0 0 11 3 4 2 11 0
59 77 96 96 79 76 20 41 27 45 69 31 19 3 2 2 4 0 0 0 0 0 0 0 9 14 0 12 5 0 0 0 0 0 0 5 8 1 1 0 0 0 22 6 5 0 0
54 62 84 89 68 67 16 40 61 32 83 5 11 10 0 0 0 0 0 0 0 0 0 0 0 1 7 10 4 0 0 0 0 0 0 8 7 5 2 3 4 2 5 10 8 5 2
53 59 71 85 63 62 14 70 63 66 66 25 4 6 3 14 1 0 0 0 0 0 0 0 0 3 12 8 13 7 0 0 0 0 1 9 8 9 0 0 7 14 2 5 7 17 3
42 59 63 73 75 62 49 23 60 64 72 31 19 9 10 5 5 0 0 0 0 0 1 9 0 11 11 16 4 1 0 0 0 0 0 3 4 7 1 1 1 7 0 0 1 1 2
41 52 57 64 56 57 53 16 31 29 55 13 11 12 10 1 1 1 0 0 0 0 15 2 0 5 11 30 4 8 4 1 0 0 0 0 3 4 7 2 0 0 0 0 0 0 0
31 54 49 55 48 60 61 17 22 10 37 13 2 4 5 0 0 0 0 0 0 0 0 1 0 0 2 10 8 25 0 0 0 0 0 0 0 6 0 1 1 0 0 0 0 0 0
27 46 52 49 56 41 47 24 22 4 28 20 3 11 5 9 0 0 0 1 2 1 2 0 0 0 0 2 3 30 6 0 0 0 2 0 0 3 1 2 0 0 0 0 0 0 0
13 19 24 26 40 49 36 23 25 3 28 24 1 8 5 0 0 0 0 0 0 0 0 0 0 5 9 9 18 6 7 0 0 0 0 0 0 0 0 0 0 0 0 0 0 0 0
8 11 21 35 39 45 37 44 13 9 22 37 9 0 2 4 0 0 0 0 0 0 0 0 0 0 3 11 7 8 2 0 0 0 0 0 0 0 0 0 0 0 0 0 0 0 0

GFSGBSN_con_sbcape_018.txt.gz
CAPE
25 35 25 33 30 27 24 20 18 18 14 16 18 14 24 52 95 98 87 2 2 1 0 0 0 0 8 22 14 0 0 0 25 82 23 10 4 1 2 0 0 0 0 0 0 0 0
25 31 18 18 26 32 29 28 22 23 19 23 21 32 19 52 36 107 115 48 2 4 0 12 0 0 0 6 0 0 0 4 47 77 44 10 8 0 0 0 0 0 0 0 0 0 0
17 14 31 22 35 37 50 46 42 35 19 27 49 46 20 21 29 73 114 82 19 2 0 13 7 0 0 0 0 0 0 0 55 95 61 11 2 11 10 7 7 0 0 0 0 0 0
25 31 21 29 23 34 50 49 46 31 37 25 62 57 42 18 26 30 96 97 93 60 24 5 21 0 0 0 0 0 0 0 0 0 48 59 33 3 0 6 1 0 1 0 0 0 0
28 65 69 50 62 44 61 63 47 25 18 43 50 52 56 45 16 22 43 110 116 83 53 43 4 0 0 0 0 0 0 0 0 0 10 63 20 12 7 0 2 2 0 0 0 0 0
69 57 66 75 79 75 79 68 65 40 42 57 55 52 64 61 24 13 25 111 64 62 51 15 0 1 0 0 0 0 0 0 0 4 2 10 9 7 1 11 0 0 4 0 0 0 0
62 55 77 78 62 69 87 79 86 87 72 55 66 77 84 71 37 11 18 13 29 53 45 0 0 0 0 0 0 0 0 0 0 18 17 14 12 3 0 0 1 0 0 1 0 0 0
56 75 67 72 67 69 76 86 134 111 100 112 109 108 95 62 55 25 37 3 0 0 0 0 0 0 0 0 0 0 0 0 1 5 15 11 8 0 2 4 4 7 6 1 0 0 0
64 68 73 66 75 86 100 116 132 130 121 157 162 106 112 66 39 33 65 11 0 0 0 0 3 1 0 0 0 0 0 0 1 8 8 2 0 0 4 8 7 8 6 2 0 1 2
39 58 76 72 86 104 135 136 146 148 162 141 90 71 96 72 46 13 7 25 0 0 0 0 9 2 2 0 0 0 0 0 0 3 6 10 5 0 0 5 4 6 0 2 4 4 2
45 63 84 72 100 128 143 139 147 114 91 87 78 42 14 84 63 34 15 3 0 0 2 0 8 10 15 0 0 2 0 0 6 0 0 0 0 2 5 1 4 2 0 0 5 12 8
69 85 81 94 117 135 133 133 113 85 108 175 91 74 119 77 81 17 54 7 1 7 0 6 23 38 27 15 8 9 13 15 7 5 5 5 0 0 2 0 1 5 11 18 11 18 23
47 63 88 104 128 124 122 120 100 65 44 68 73 150 70 76 40 57 55 1 4 20 0 5 9 33 10 11 23 9 21 22 12 20 17 10 8 4 0 5 9 22 14 12 15 29 1
61 87 95 116 115 117 133 117 75 43 56 72 202 77 50 91 85 74 108 2 7 0 1 2 15 17 21 9 19 21 23 28 21 7 9 3 4 5 2 5 3 1 9 9 3 3 5
64 85 91 104 112 121 123 104 63 40 96 104 73 23 150 129 73 0 4 9 8 0 0 4 20 11 16 4 11 7 12 6 1 12 4 5 1 0 0 1 4 16 14 1 30 21 49
62 79 85 93 99 115 117 86 48 34 128 173 7 25 100 102 17 24 3 23 0 0 0 1 2 1 3 9 4 4 9 1 5 5 5 5 8 0 0 5 5 12 3 13 46 14 18
57 82 85 93 105 114 101 46 29 32 65 107 5 18 80 71 3 3 15 5 8 0 0 0 0 4 3 2 2 1 3 0 0 1 8 12 8 3 4 8 1 7 17 66 23 38 20
58 75 89 83 87 100 73 19 27 51 73 31 12 7 38 63 16 6 14 0 8 0 0 0 0 0 1 3 5 2 0 0 0 0 6 11 11 15 2 0 0 7 9 13 41 12 17
56 69 85 80 76 66 57 16 22 46 39 13 11 7 46 45 43 26 4 4 0 2 0 0 0 0 0 0 0 0 0 0 0 0 0 6 18 5 0 1 0 7 0 1 15 20 22
53 66 79 76 72 67 59 18 28 27 29 40 12 6 25 26 23 4 8 8 4 0 0 0 0 0 0 0 0 0 0 0 0 0 0 1 8 0 0 1 6 28 3 3 16 23 10
62 60 74 71 68 58 53 14 19 35 48 31 15 3 7 19 27 5 2 2 0 0 0 0 2 0 0 3 6 1 0 0 0 0 0 8 17 3 0 0 4 5 9 8 4 4 8
33 57 60 70 66 38 33 16 37 54 52 10 8 12 12 23 6 7 0 0 0 0 0 0 0 0 1 1 1 0 0 2 3 0 1 9 4 12 6 5 7 8 10 12 12 16 19
28 64 63 62 57 16 25 33 37 38 38 24 20 10 14 11 16 0 0 0 0 0 0 1 0 7 1 1 0 1 0 0 0 0 4 10 15 13 3 3 3 9 1 1 3 6 5
41 54 59 58 58 37 18 12 21 26 45 24 16 15 13 17 2 0 0 0 0 0 11 6 2 6 14 23 21 15 21 24 25 9 0 4 6 9 2 5 9 1 4 2 4 1 3
37 45 48 54 59 44 26 19 20 13 23 7 11 8 10 16 9 0 0 0 0 0 5 9 5 3 13 12 23 6 10 6 3 6 14 1 4 14 10 10 0 1 0 8 4 0 0
29 24 18 20 27 23 16 12 25 7 12 0 4 16 20 18 0 0 0 0 0 0 0 0 1 2 16 42 27 6 11 0 0 1 0 1 11 12 5 10 3 0 0 0 0 0 0
17 15 16 22 39 34 14 16 22 3 19 11 4 10 11 31 10 0 2 0 6 8 10 1 1 3 5 32 29 11 9 0 0 0 0 2 7 3 4 10 0 0 0 0 0 0 0
10 15 11 10 9 21 15 6 2 4 12 16 0 16 10 7 1 0 0 0 0 2 3 0 7 13 28 16 11 16 26 2 1 0 0 0 2 4 3 1 0 0 0 0 0 0 0
6 13 11 4 8 10 11 2 5 10 10 18 15 4 4 8 6 0 0 0 0 0 6 2 10 2 19 15 9 29 18 0 4 9 0 1 0 0 0 0 0 0 0 0 0 0 0

GFSGBSN_con_sbcape_021.txt.gz
CAPE
12 13 16 20 21 25 39 38 28 30 23 13 11 20 24 11 10 31 46 112 34 6 3 5 0 0 1 49 43 0 0 0 50 65 23 14 14 11 1 0 0 0 0 0 0 0 0
11 17 19 19 29 27 25 32 39 38 33 23 20 18 34 34 7 19 22 109 105 33 9 17 0 0 3 30 4 0 0 1 6 74 28 32 26 23 22 9 1 7 0 0 0 0 0
26 26 47 38 34 31 30 23 18 13 26 21 18 30 19 39 38 21 9 86 142 50 22 29 0 0 3 0 0 0 0 3 44 64 57 29 8 1 14 11 6 1 0 0 0 0 0
44 57 52 47 69 57 68 62 71 72 71 27 30 32 47 36 50 29 11 5 128 142 58 29 6 0 1 0 0 0 0 1 50 76 71 21 3 0 6 5 0 0 0 0 0 0 0
34 35 45 65 71 63 80 81 81 121 116 105 36 33 33 25 51 49 13 8 20 62 65 44 10 2 3 0 0 0 0 7 27 0 10 59 36 1 2 14 2 0 0 0 0 0 0
30 47 61 77 80 67 88 88 98 117 101 108 107 52 71 89 72 56 28 7 1 72 74 26 8 5 0 0 0 0 0 19 17 3 13 13 8 5 13 11 0 0 0 0 0 0 0
55 65 66 81 73 78 101 117 125 149 133 141 111 123 94 91 103 58 34 1 52 41 67 3 0 0 2 0 0 0 0 14 11 14 3 6 12 5 0 1 2 0 0 0 0 0 0
42 34 49 62 80 81 104 119 138 171 154 153 141 183 154 108 115 75 39 19 9 6 21 9 0 4 4 0 1 1 0 8 3 10 7 4 13 0 1 0 1 1 1 0 0 0 0
43 51 73 71 77 89 110 138 151 178 179 138 137 146 140 93 105 42 34 0 12 1 19 13 8 6 0 0 8 2 0 3 11 5 4 10 0 0 0 1 1 0 1 0 0 0 0
44 65 69 72 76 104 123 134 138 153 173 104 82 100 47 75 75 93 51 0 26 0 20 7 9 3 0 0 2 4 1 3 5 5 2 4 1 0 0 2 0 3 0 1 3 3 0
62 56 70 80 88 112 121 122 137 125 92 53 59 87 65 113 84 4 68 44 1 23 28 4 14 13 9 0 1 10 4 6 9 8 0 6 0 5 2 0 3 1 1 0 3 7 1
54 71 78 82 91 101 115 136 129 100 56 66 112 127 179 91 100 57 69 43 0 7 14 10 12 17 10 12 11 18 14 10 3 1 6 6 0 1 2 0 0 3 2 5 7 12 8
48 71 69 78 90 100 123 138 148 82 66 69 111 234 137 79 25 147 146 13 11 21 1 14 18 24 13 7 12 11 15 23 6 13 9 5 4 2 0 0 5 7 5 3 9 21 0
50 68 68 79 93 108 127 125 98 64 68 75 234 22 39 33 76 154 5 15 29 9 1 4 29 26 17 7 10 6 3 17 7 4 1 3 8 3 2 3 1 8 7 1 0 0 0
62 65 73 82 101 101 101 88 33 49 74 108 79 26 164 157 39 93 4 37 47 3 3 8 22 20 22 12 9 17 9 9 8 1 5 4 0 0 0 3 2 6 8 1 14 3 7
64 65 70 84 86 93 85 64 42 52 91 74 73 12 87 136 71 16 33 46 4 0 0 9 7 4 5 13 12 4 8 2 0 4 3 4 3 0 4 6 5 6 4 7 14 7 2
56 61 71 72 82 76 67 40 22 28 47 35 20 7 73 9 55 42 59 9 8 4 0 5 1 2 1 3 0 0 3 1 5 6 1 0 2 1 3 5 0 5 12 22 5 25 11
37 65 76 79 85 60 64 20 17 26 52 14 15 14 75 31 33 20 22 20 11 3 5 0 4 3 4 8 0 7 3 0 1 1 5 2 8 9 0 0 0 1 3 5 22 0 2
62 57 75 71 70 65 61 19 20 37 46 40 9 6 54 21 93 35 8 20 17 27 33 6 2 1 1 2 1 2 2 0 0 1 6 5 14 4 4 0 0 0 0 0 5 15 27
37 52 60 60 67 75 57 19 27 20 36 44 10 9 7 23 29 24 13 21 28 22 15 1 0 0 0 1 0 2 1 0 0 0 1 12 8 2 0 7 5 35 3 2 10 22 9
34 45 62 54 58 46 54 25 24 23 15 18 8 27 14 6 21 1 7 11 15 2 0 1 0 0 0 0 3 2 2 0 0 0 1 6 26 12 5 2 1 6 9 9 2 12 10
30 44 49 37 45 55 42 29 27 33 6 8 9 9 1 5 13 18 9 6 0 0 0 0 12 2 0 8 10 8 4 6 5 1 1 5 21 20 2 3 4 3 3 5 7 5 8
26 27 28 19 41 51 39 42 36 19 26 10 6 7 11 9 11 9 13 1 1 0 9 2 7 8 4 12 3 0 0 0 0 0 2 9 11 7 6 0 3 3 2 4 2 3 4
21 15 15 10 6 21 30 25 31 9 35 18 14 9 9 20 16 10 0 0 0 0 16 7 1 6 19 6 1 4 2 2 1 1 0 6 10 14 15 2 5 8 0 0 7 5 0
16 11 11 26 24 23 25 27 23 6 20 2 4 12 9 19 10 7 0 0 0 0 5 3 6 6 4 6 18 9 12 7 0 5 12 0 6 11 23 18 0 1 0 0 4 0 0
20 10 6 12 5 6 26 22 6 2 14 2 13 10 9 11 5 2 0 0 12 13 5 2 5 6 6 32 19 11 1 8 5 2 0 8 1 22 19 12 4 0 0 0 0 1 0
22 11 4 5 4 3 7 7 9 9 7 21 12 6 5 8 13 0 1 0 0 6 19 7 7 11 17 22 37 10 6 9 6 8 2 1 5 10 8 8 0 0 0 0 0 0 0
17 15 5 4 5 3 5 9 13 15 5 20 20 8 6 6 0 2 4 7 5 20 27 11 15 13 12 18 3 5 39 19 4 4 2 4 1 0 0 2 0 0 0 0 0 0 0
16 15 12 4 5 8 5 8 12 12 16 9 14 8 14 8 3 3 0 1 4 13 23 12 31 9 23 6 7 19 27 5 7 14 0 1 0 4 0 0 0 0 0 0 0 0 0

GFSGBSN_con_sbcape_024.txt.gz
CAPE
17 20 23 33 29 30 27 30 25 32 38 45 34 20 25 17 16 19 17 27 23 113 48 6 0 0 0 24 35 3 23 31 61 81 7 6 0 0 0 0 0 0 0 0 0 0 0
29 34 54 46 35 50 45 51 61 49 47 37 48 43 30 34 33 42 27 27 13 100 71 9 0 0 0 20 41 0 0 0 12 75 56 19 10 4 12 0 1 1 0 0 0 0 0
45 44 43 41 58 65 70 69 77 82 98 97 93 59 48 49 41 38 43 26 15 16 133 25 19 0 0 0 0 0 0 0 25 85 61 22 35 18 17 6 6 0 0 0 0 0 0
59 35 44 75 78 91 72 68 81 92 98 141 138 133 106 45 40 36 41 44 14 4 154 62 72 0 11 0 0 0 0 0 16 88 86 63 0 1 6 1 0 0 0 0 0 0 0
40 74 40 55 57 52 72 77 96 107 125 130 142 175 134 69 83 80 80 62 17 1 28 85 42 12 1 0 0 0 0 0 30 46 107 14 15 0 0 1 0 0 0 0 0 0 0
63 42 41 67 75 69 85 91 104 118 136 137 144 153 131 106 95 86 84 64 0 2 113 71 49 23 0 0 0 0 0 1 9 22 64 76 4 0 0 1 0 0 0 0 0 0 0
43 55 64 68 82 69 94 112 125 135 141 148 164 164 128 128 148 127 117 63 51 173 59 29 15 0 0 0 0 0 0 2 13 25 12 20 5 0 0 0 0 0 0 0 0 0 0
43 50 67 70 90 102 112 130 132 133 156 156 195 137 142 152 124 150 118 41 0 25 24 23 9 20 0 0 0 0 0 10 8 14 8 3 0 0 0 0 0 0 0 0 0 0 0
51 38 69 81 103 102 116 122 123 151 175 177 168 105 74 115 123 76 53 10 13 0 31 12 7 17 5 0 0 0 0 5 1 5 0 3 0 0 0 0 0 0 0 0 0 0 0
49 47 68 87 99 101 104 117 138 147 129 98 51 124 57 57 9 85 37 60 8 14 2 15 3 16 0 7 3 0 0 0 4 2 5 3 0 0 0 0 0 0 0 0 0 0 0
64 61 65 84 98 103 101 122 150 137 73 54 96 138 190 82 42 8 41 50 2 35 14 12 3 19 0 1 0 6 0 1 3 0 1 2 0 0 0 0 0 0 0 0 0 0 0
46 54 71 82 103 95 100 102 123 91 52 72 101 191 310 108 72 8 58 51 31 6 2 19 1 12 22 28 6 0 1 1 1 6 6 0 0 0 0 0 0 0 0 0 0 1 0
40 57 76 82 99 88 68 67 61 35 47 63 93 294 162 62 42 85 75 56 26 2 1 17 13 8 15 19 16 10 10 9 0 0 1 0 0 0 0 0 0 4 0 0 1 2 0
25 57 77 84 77 78 62 59 50 30 46 87 91 209 129 88 117 43 28 0 9 15 1 1 14 19 4 9 11 12 24 10 11 0 3 0 0 0 0 0 0 3 3 0 0 0 0
20 60 78 85 86 81 52 57 34 29 67 109 93 8 115 182 103 7 32 18 21 6 4 11 29 12 12 7 6 16 15 13 3 4 0 0 0 0 0 0 0 4 1 0 1 0 0
44 64 58 88 97 76 61 61 29 22 83 80 41 14 73 137 49 22 26 36 6 1 1 9 3 6 6 12 10 18 10 1 0 1 0 2 1 0 2 1 1 0 0 0 6 0 0
52 51 52 89 90 60 35 46 25 50 39 96 26 12 22 52 49 32 24 3 3 11 1 6 0 1 1 5 9 3 1 0 2 1 1 0 0 0 0 0 0 0 4 3 1 1 0
51 37 53 74 79 35 33 32 28 56 51 25 4 1 1 51 15 2 36 5 7 23 11 7 4 1 0 2 2 0 0 0 0 0 1 0 2 3 0 0 0 0 0 0 4 0 0
46 31 52 59 61 33 30 25 20 31 50 28 7 7 45 22 16 24 3 18 16 10 17 3 0 0 0 0 0 2 1 0 1 0 1 0 6 0 0 0 0 0 0 1 0 0 0
40 45 45 45 55 53 29 23 27 17 22 37 6 11 15 13 21 2 6 16 34 26 36 0 0 0 0 0 6 2 0 0 0 1 5 1 1 0 0 0 0 0 0 0 0 0 0
31 36 29 43 59 34 20 14 22 19 28 19 3 15 7 37 54 1 2 22 16 8 11 0 2 2 0 2 4 1 0 0 0 1 0 0 5 0 0 0 0 0 0 0 1 2 4
22 23 17 23 25 17 14 19 22 24 5 8 8 4 1 1 2 0 0 5 2 1 8 0 1 7 0 7 6 2 0 0 0 0 0 3 0 0 1 0 0 0 0 0 1 5 7
15 16 11 28 39 31 21 38 16 19 14 11 4 2 5 0 0 2 8 0 0 0 0 0 1 1 3 8 0 0 0 0 0 0 0 6 4 5 0 0 0 0 0 0 3 0 2
16 16 9 15 14 10 26 12 2 9 20 6 16 10 3 9 0 4 1 0 0 0 0 0 0 8 8 0 0 0 0 0 0 0 0 1 3 4 3 0 0 13 0 0 0 0 7
21 21 15 9 11 8 4 7 3 6 5 1 11 8 6 1 0 0 0 1 0 0 0 0 4 6 0 0 7 8 7 8 0 2 0 0 3 11 19 6 0 0 0 0 2 0 0
23 21 18 12 11 9 7 7 11 7 1 0 9 14 6 8 4 8 0 2 1 0 1 0 0 1 0 5 1 0 0 8 2 0 0 1 0 8 5 8 0 0 0 0 0 0 0
38 12 17 11 17 10 11 7 9 10 3 0 8 2 7 5 3 3 4 0 0 0 11 7 8 5 2 7 8 4 0 0 1 4 1 5 5 2 2 10 0 0 0 0 0 0 0
32 16 17 16 21 19 14 12 9 9 9 2 4 4 7 6 1 0 9 8 0 0 7 3 0 3 2 15 5 1 0 2 0 0 2 0 0 1 0 5 0 0 0 0 0 0 0
43 20 12 19 15 22 23 19 15 8 11 12 8 16 10 9 2 0 0 3 0 0 9 1 17 1 15 6 0 3 2 1 0 9 0 0 1 1 0 0 0 0 0 0 0 0 0

GFSGBSN_con_sbcape_027.txt.gz
CAPE
35 44 43 47 51 42 60 67 60 78 81 67 72 69 82 51 44 29 38 36 33 44 24 141 20 18 10 12 0 13 135 160 50 37 0 0 0 0 0 0 0 0 0 0 0 0 0
64 60 46 54 55 60 49 81 80 84 96 105 81 98 110 62 49 38 30 40 36 34 37 134 52 81 3 4 0 1 6 53 58 57 50 10 0 0 0 0 0 0 0 0 0 0 0
40 34 46 39 55 60 64 66 82 84 111 129 105 128 139 147 100 55 46 30 37 26 14 24 73 36 1 0 0 0 0 0 1 56 29 47 19 18 6 0 0 0 0 0 0 0 0
44 63 52 46 54 63 69 71 93 112 125 137 133 151 165 162 112 71 59 69 49 24 23 8 116 42 3 0 0 0 0 0 1 61 62 52 2 3 0 0 0 0 0 0 0 0 0
62 39 47 39 64 69 79 98 110 121 141 148 149 154 175 148 132 67 94 54 37 16 4 5 58 14 1 0 0 0 0 0 9 121 71 41 9 2 0 0 1 0 0 0 0 0 0
31 49 43 60 79 86 95 98 98 117 138 149 169 179 182 150 148 109 117 116 22 4 0 71 21 14 0 0 0 0 0 0 11 84 94 63 3 0 0 0 0 0 0 0 0 0 0
42 40 57 68 77 77 99 96 99 124 154 169 182 194 177 145 162 133 54 12 2 20 54 5 18 0 0 0 0 0 0 1 1 42 31 23 0 5 0 0 0 0 0 0 0 0 0
44 49 60 70 71 87 81 90 95 133 140 137 155 119 118 54 62 135 38 8 8 6 3 30 9 0 0 0 0 0 0 9 8 3 0 0 0 0 0 0 0 0 0 0 0 0 0
52 38 57 74 77 95 73 80 93 118 105 72 55 82 160 56 36 8 14 16 0 1 14 20 38 4 0 0 0 0 0 0 0 2 0 0 0 0 0 0 0 0 0 0 0 0 0
49 38 58 69 81 88 63 57 68 79 54 35 56 125 142 219 11 6 0 26 0 0 5 18 30 11 1 4 0 0 0 0 4 2 1 0 0 0 0 0 0 0 0 0 0 0 0
39 35 64 77 89 74 54 56 63 77 33 47 59 90 157 139 7 4 11 0 0 4 3 8 21 5 16 0 0 1 0 2 1 0 0 0 0 0 0 0 0 0 0 0 0 0 0
30 33 57 78 87 67 53 60 66 40 21 85 64 85 177 78 49 11 21 15 0 0 0 11 1 20 19 27 0 0 4 0 0 4 0 0 0 0 0 0 0 0 0 0 0 0 0
28 34 51 81 84 68 55 62 75 39 19 71 69 134 115 119 49 0 7 36 0 0 3 15 15 11 6 20 2 3 3 1 0 0 1 2 0 0 0 0 0 0 0 0 0 0 0
28 39 40 81 80 70 56 56 66 34 30 75 64 92 24 67 10 2 18 0 0 33 22 2 11 7 18 11 2 14 4 1 0 0 0 0 0 0 0 0 0 0 0 0 0 0 0
33 30 50 71 68 61 33 68 51 58 64 66 74 0 2 19 47 2 24 0 14 23 2 17 7 10 6 18 6 9 3 2 0 0 0 0 0 0 0 0 0 0 1 0 0 0 0
40 52 58 77 67 45 44 60 41 78 70 62 1 0 32 13 0 8 4 28 1 5 5 3 3 5 12 16 3 7 14 0 0 0 0 0 0 0 0 0 0 0 0 0 0 0 0
40 41 66 62 54 31 37 45 47 37 74 3 0 14 1 0 12 13 12 1 6 4 1 4 0 2 0 10 0 1 0 0 0 0 0 0 0 0 0 0 0 0 3 0 0 0 0
33 31 47 44 52 34 31 31 29 34 55 0 0 1 0 0 0 3 10 0 1 0 29 7 0 0 0 0 0 1 0 0 0 0 0 0 0 0 0 0 0 0 0 0 0 0 0
27 27 34 32 39 25 24 33 8 17 19 0 0 1 0 0 0 4 3 7 6 29 15 4 4 0 0 0 0 0 0 0 0 0 2 0 2 0 0 0 0 0 0 0 0 0 0
25 22 22 20 22 19 23 38 6 6 0 0 0 0 0 0 1 3 3 4 3 4 0 0 0 0 0 0 0 0 0 0 0 0 22 0 0 0 0 0 0 0 0 0 0 0 0
19 19 20 27 32 30 17 29 15 9 0 0 0 0 0 0 0 1 1 0 0 0 0 0 7 0 0 0 0 0 0 0 0 0 0 0 0 0 0 0 0 0 0 0 0 0 1
21 18 16 16 11 13 12 6 24 13 0 0 0 2 0 0 0 0 0 0 0 0 0 0 1 8 4 2 0 0 0 0 0 0 0 0 0 0 0 0 0 0 0 0 0 0 0
31 17 13 17 9 9 9 6 11 20 0 0 0 1 6 0 0 0 0 0 0 0 0 0 0 0 6 9 4 0 0 0 0 0 0 1 0 2 0 0 0 0 0 0 0 1 2
32 13 12 15 14 8 9 9 9 9 2 1 7 6 4 0 0 0 0 0 0 0 0 0 0 0 0 0 0 0 0 0 0 0 0 0 1 4 0 0 0 0 0 0 0 0 0
17 25 16 17 18 13 8 13 10 6 5 0 5 2 4 0 0 0 0 0 0 0 0 0 0 0 0 0 0 4 8 5 0 0 0 0 3 9 12 1 0 0 0 0 0 0 0
13 40 11 23 16 16 16 12 15 10 6 0 8 0 1 4 0 1 3 0 0 0 0 0 0 0 0 0 0 0 0 2 0 0 0 0 0 6 3 0 0 0 0 0 0 0 0
8 38 12 11 16 18 16 15 15 13 10 0 1 0 2 6 0 0 6 1 0 0 0 0 0 0 0 0 0 0 0 0 0 0 4 10 8 3 3 6 0 0 0 0 0 0 0
6 29 14 10 8 15 18 23 19 12 10 1 0 2 2 4 0 0 0 8 0 0 0 0 0 0 0 0 0 0 0 0 0 0 0 0 0 3 2 1 0 0 0 0 0 0 0
5 29 10 7 16 18 10 9 12 20 10 4 0 0 14 7 0 0 0 0 0 0 5 0 0 0 0 0 0 0 3 0 0 0 0 0 0 0 0 0 0 0 0 0 0 0 0

GFSGBSN_con_sbcape_030.txt.gz
CAPE
34 29 33 52 63 50 32 37 55 67 92 108 122 126 102 81 103 69 50 33 14 11 3 6 15 138 26 19 0 0 175 137 25 17 0 0 0 0 0 0 0 0 0 0 0 0 0
26 48 20 39 44 30 60 67 66 84 106 119 154 162 160 192 112 131 81 42 19 18 1 2 18 87 0 3 0 11 46 17 42 2 0 0 0 0 0 0 0 0 0 0 0 0 0
39 33 36 30 42 64 71 77 82 98 105 115 136 169 189 174 119 105 84 65 40 22 9 7 7 58 0 0 0 3 98 109 63 49 14 0 4 0 0 0 0 0 0 0 0 0 0
27 38 45 40 65 65 70 73 79 89 101 128 169 176 178 176 158 115 93 79 50 15 23 10 13 62 1 0 0 0 0 0 25 46 26 47 18 0 0 0 0 0 0 0 0 0 0
31 36 31 54 71 69 74 73 78 73 101 124 167 178 192 198 190 143 117 111 81 43 23 10 1 41 0 1 0 0 0 0 0 42 51 32 20 14 0 0 0 0 0 0 0 0 0
25 40 48 58 66 77 92 88 80 91 100 117 121 153 163 177 179 146 144 135 89 34 3 11 3 16 0 0 0 0 0 0 8 101 103 72 16 16 0 0 0 0 0 0 0 0 0
40 47 36 59 73 89 93 80 63 81 84 77 81 100 109 105 69 85 11 0 0 16 35 24 39 0 0 0 0 0 0 0 4 54 124 47 10 9 8 0 0 0 0 0 0 0 0
44 44 36 63 76 94 86 75 68 68 64 49 53 52 101 163 180 17 0 2 21 2 0 3 19 0 0 0 0 0 0 51 23 18 0 0 3 8 14 0 0 0 0 0 0 0 0
32 30 30 63 81 84 76 68 75 58 65 22 27 79 131 173 191 6 11 25 12 2 2 8 36 4 0 0 0 0 0 3 8 1 0 1 0 0 0 0 0 0 0 0 0 0 0
33 31 46 64 87 77 70 60 78 65 37 20 32 79 133 209 73 2 0 19 14 0 1 21 33 1 1 0 0 0 0 0 2 0 0 0 0 0 0 0 0 0 0 0 0 0 0
30 30 45 56 78 74 67 66 76 74 44 36 42 136 191 134 33 13 2 0 1 0 0 6 20 18 7 0 0 0 0 0 0 0 0 0 0 0 0 0 0 0 0 0 0 0 0
24 40 41 62 69 59 60 48 61 49 35 47 65 140 228 64 15 7 2 11 0 0 0 5 13 2 10 0 0 4 9 0 1 4 0 0 0 0 0 0 0 0 0 0 0 0 0
27 45 29 57 59 64 42 57 41 41 60 54 76 192 71 59 25 3 16 12 0 0 5 3 12 7 5 5 2 12 4 0 0 5 1 0 0 0 0 0 0 0 0 0 0 0 0
31 31 41 64 52 61 53 50 47 71 64 105 140 4 3 13 2 5 1 0 0 20 14 3 11 6 11 15 20 18 6 3 0 0 0 0 0 0 0 0 0 0 0 0 0 0 0
23 29 51 43 44 50 46 38 52 64 98 30 0 0 6 12 16 1 10 0 2 12 8 7 0 0 3 1 16 1 0 2 0 0 0 0 0 0 0 0 0 0 0 0 0 0 0
18 20 30 37 54 38 32 26 15 69 57 1 0 0 0 0 0 0 2 15 2 6 0 0 1 0 5 1 7 0 0 0 0 0 0 0 0 0 0 0 0 0 0 0 0 0 0
16 11 22 20 18 20 22 23 16 25 23 0 0 0 0 0 0 0 3 1 7 2 0 1 0 0 2 3 0 0 0 0 0 0 0 0 0 0 0 0 0 0 0 0 0 0 0
10 8 15 20 28 32 26 12 11 20 10 0 0 0 0 0 0 2 6 3 1 0 0 0 0 0 0 1 0 0 0 0 0 0 0 0 0 0 0 0 0 0 0 0 0 0 0
10 6 11 13 9 26 16 7 5 9 12 0 0 0 0 0 0 4 2 2 0 22 2 1 0 0 0 0 0 0 0 0 0 0 0 0 0 0 0 0 0 0 0 0 0 0 0
14 8 7 10 7 12 12 9 3 5 6 0 0 0 0 0 0 0 0 0 0 0 0 0 0 0 0 0 0 0 0 0 0 0 10 0 0 0 0 0 0 0 0 0 0 0 0
12 11 7 12 3 9 8 9 6 1 0 0 0 0 2 0 0 0 0 0 0 0 0 0 0 0 3 5 0 2 0 0 0 4 2 0 0 0 0 0 0 0 0 0 0 0 0
10 11 7 14 5 5 7 6 17 3 0 0 0 2 0 0 0 0 0 0 0 0 0 0 1 13 2 3 0 0 0 0 0 0 0 0 0 0 0 0 0 0 0 0 0 0 0
0 21 6 10 12 4 6 5 4 7 0 0 0 0 8 0 0 0 0 0 0 0 0 0 0 0 6 7 1 0 0 0 0 0 0 0 0 0 0 0 0 0 0 0 0 0 0
0 20 3 11 15 9 6 8 4 2 4 1 7 5 2 0 0 0 0 0 0 0 0 0 0 0 0 0 0 0 0 0 0 0 0 0 0 4 0 0 0 0 0 0 0 0 0
0 5 12 7 12 16 12 9 10 6 3 0 5 3 8 0 0 0 0 0 0 0 0 0 0 0 0 0 0 10 18 11 2 0 0 0 0 1 2 1 0 0 0 0 0 0 0
0 3 30 4 16 22 20 15 12 6 2 0 5 0 2 6 0 0 0 0 0 0 0 0 0 0 0 0 0 0 3 0 5 1 0 0 1 6 4 0 0 0 0 0 0 0 0
0 3 30 11 14 17 21 24 20 6 2 0 1 0 4 6 0 0 0 0 0 0 0 0 0 0 0 0 0 0 0 0 1 0 20 13 9 10 4 2 0 0 0 0 0 0 0
6 2 15 10 12 14 13 20 19 16 6 0 0 7 4 4 0 0 0 9 4 0 0 0 0 0 0 0 0 0 0 0 0 0 0 2 2 5 6 1 0 0 0 0 0 0 0
18 10 9 31 16 5 14 12 16 13 27 1 0 0 0 14 0 0 0 0 0 0 0 0 0 0 0 0 0 0 0 0 0 0 0 0 0 0 0 0 0 0 0 0 0 0 0

GFSGBSN_con_sbcape_033.txt.gz
CAPE
20 58 27 35 28 30 64 71 75 80 92 84 88 106 132 159 177 155 176 123 76 31 14 3 1 6 43 11 0 0 119 296 29 30 2 2 0 0 0 0 0 0 0 0 0 0 0
40 26 32 20 26 66 67 80 63 72 78 85 88 106 141 231 189 164 174 130 96 62 21 9 3 17 28 0 0 0 93 144 151 22 10 0 0 0 0 0 0 0 0 0 0 0 0
48 40 36 33 53 63 75 80 74 76 72 85 94 93 124 192 213 165 168 124 111 78 38 20 26 9 9 0 0 0 192 176 116 14 9 0 0 0 0 0 0 0 0 0 0 0 0
37 42 22 34 49 71 82 81 88 81 89 90 94 88 146 194 213 177 150 150 98 85 64 39 29 4 9 0 0 0 29 66 105 39 55 70 37 7 0 0 0 0 0 0 0 0 0
37 41 42 28 65 79 87 109 81 87 87 87 69 63 102 145 169 164 163 170 141 112 77 57 24 14 2 7 0 0 0 5 69 101 95 57 16 13 0 0 0 0 0 0 0 0 0
49 38 44 27 76 89 89 89 94 85 93 82 64 20 66 118 133 103 146 152 108 74 32 44 16 20 2 0 0 0 0 3 55 99 124 63 26 16 0 0 1 0 0 0 0 0 0
49 39 35 36 72 81 84 96 88 81 65 97 29 19 49 170 199 181 15 0 0 14 38 0 3 0 0 0 0 0 0 8 63 89 148 50 63 26 1 0 0 0 0 0 0 0 0
40 29 42 42 74 77 77 90 97 87 82 70 8 39 112 175 194 158 1 0 0 9 0 0 2 5 2 0 0 0 0 27 68 61 5 9 22 1 7 3 5 3 1 0 0 0 0
32 31 40 58 68 58 68 82 81 71 91 53 26 7 60 183 226 19 0 13 1 1 7 0 6 21 5 1 0 0 0 50 49 5 0 2 8 9 14 18 13 0 0 0 0 0 0
29 36 39 49 60 58 62 38 53 86 54 42 49 86 149 192 56 4 1 2 10 0 2 18 14 28 11 0 0 0 0 16 8 3 0 0 0 0 1 7 0 0 0 0 0 0 0
30 35 43 48 52 45 33 56 67 68 63 75 115 167 232 191 22 19 47 0 0 0 0 8 18 23 5 0 0 0 0 0 2 0 0 0 0 0 0 0 0 0 0 0 0 0 0
23 29 27 57 33 44 54 60 60 87 91 152 192 168 150 5 22 9 2 6 0 0 0 1 19 13 6 0 0 7 1 0 0 0 0 0 0 0 0 0 0 0 0 0 0 0 0
24 33 32 31 35 37 53 48 61 74 85 72 43 63 13 5 0 0 2 0 0 0 5 4 9 6 3 16 16 8 0 1 1 1 2 0 0 0 0 0 0 0 0 0 0 0 0
18 30 33 26 25 22 32 49 34 64 56 24 3 1 0 0 0 0 0 0 0 6 7 5 13 5 3 16 22 4 3 0 0 0 1 0 0 0 0 0 0 0 0 0 0 0 0
15 21 27 18 12 22 31 31 24 52 62 34 0 0 0 0 0 0 0 0 0 4 9 10 2 0 0 0 30 13 2 1 0 0 0 0 0 0 0 0 0 0 0 0 0 0 0
14 17 26 21 19 23 26 20 16 25 27 0 0 0 0 0 0 0 0 2 1 2 0 0 0 0 1 1 5 7 0 0 0 0 0 0 0 0 0 0 0 0 0 0 0 0 0
9 12 27 15 6 4 10 12 16 13 9 0 0 0 0 0 0 0 2 1 4 0 0 0 0 0 0 0 0 0 0 0 0 0 0 0 0 0 0 0 0 0 0 0 0 0 0
5 4 18 14 5 5 7 8 10 7 3 0 0 0 0 0 0 0 2 2 0 0 0 0 0 0 0 0 0 0 0 0 0 0 0 0 0 0 0 0 0 0 0 0 0 0 0
10 5 8 10 6 4 5 6 6 5 4 0 0 0 0 0 0 2 1 0 0 0 0 0 0 0 0 0 0 0 0 0 0 0 0 0 0 0 0 0 0 0 0 0 0 0 0
3 8 6 7 8 2 5 3 2 2 0 0 0 0 0 0 0 0 0 0 0 0 0 0 0 0 0 0 0 0 0 0 0 0 0 0 0 0 0 0 0 0 0 0 0 0 0
3 9 6 5 7 5 4 3 1 0 0 0 0 1 1 0 0 0 0 0 0 0 0 0 0 0 0 0 0 0 0 0 1 11 0 0 0 0 0 0 0 0 0 0 0 0 0
4 11 5 6 4 7 6 5 4 4 0 0 0 3 0 0 0 0 0 0 0 0 0 0 0 6 6 2 0 0 0 0 0 0 0 0 0 0 0 0 0 0 0 0 0 0 0
9 10 9 4 4 6 8 8 5 1 0 0 0 0 4 0 0 0 0 0 0 0 0 0 0 3 10 3 0 0 0 0 0 0 0 0 0 0 0 0 0 0 0 0 0 0 0
9 7 32 1 1 5 8 8 9 2 0 0 3 3 1 0 0 0 0 0 0 0 0 0 0 0 0 0 0 0 0 0 0 0 0 0 0 1 0 0 0 0 0 0 0 0 0
8 10 30 5 0 1 11 9 10 7 1 0 2 0 2 0 0 0 0 0 0 0 0 0 0 0 0 0 0 7 9 3 0 0 0 0 0 0 1 0 0 0 0 0 0 0 0
8 9 21 22 0 1 20 11 7 10 2 0 12 0 0 3 0 0 0 0 0 0 0 0 0 0 0 0 0 0 0 0 5 2 0 0 0 16 10 0 0 0 0 0 0 0 0
19 10 14 27 3 1 16 23 14 7 6 0 0 3 2 4 0 0 0 0 0 0 0 0 0 0 0 0 0 0 0 0 0 0 13 18 17 2 26 9 0 0 0 0 0 0 0
15 16 4 16 21 12 6 20 28 21 10 0 0 1 0 8 0 0 0 0 0 0 0 0 0 0 0 0 0 0 0 0 0 0 1 10 3 12 4 6 0 0 0 0 0 0 0
14 21 9 11 28 7 5 20 25 19 24 1 0 0 0 0 0 0 0 0 0 0 0 0 0 0 0 0 0 0 0 0 0 0 0 0 0 0 0 0 0 0 0 0 0 0 0

GFSGBSN_con_sbcape_036.txt.gz
CAPE
31 39 23 39 55 44 63 73 82 96 102 107 78 79 80 84 109 139 233 232 201 144 125 63 27 17 13 8 0 0 21 336 0 151 26 30 0 0 0 0 0 0 0 0 0 0 0
34 32 26 52 71 45 80 91 95 116 112 101 110 83 82 79 118 155 238 206 204 177 119 68 31 48 34 3 0 0 0 213 8 137 9 12 2 0 0 0 0 0 0 0 0 0 0
32 42 52 67 31 65 95 96 97 107 100 103 85 76 89 80 140 177 212 194 179 187 117 71 33 51 57 0 0 0 93 163 179 159 0 0 0 0 0 0 0 0 0 0 0 0 0
32 50 51 34 43 73 89 94 89 103 98 116 102 108 59 105 154 211 226 205 189 156 104 93 45 55 68 0 0 0 0 186 111 40 2 0 9 0 0 0 0 0 0 0 0 0 0
30 35 46 39 40 75 78 72 72 106 119 104 147 133 89 82 136 193 150 147 125 154 131 76 32 32 50 0 0 0 0 193 212 92 60 81 48 19 0 0 0 0 0 0 0 0 0
39 36 40 50 60 72 67 69 80 93 108 112 154 71 22 87 178 211 195 79 64 74 60 62 48 4 10 0 0 0 0 72 164 103 103 50 68 14 0 0 0 0 0 0 0 0 0
34 35 44 54 56 70 77 63 58 50 63 87 141 47 19 153 174 52 2 0 0 5 43 0 0 7 0 0 1 0 0 91 70 110 51 43 33 7 1 2 0 0 0 0 0 0 0
21 20 39 59 67 64 59 44 37 65 73 81 55 27 28 90 156 166 0 0 0 1 0 0 0 7 10 10 6 2 0 30 52 32 11 49 14 0 0 0 0 0 0 0 0 0 0
17 26 30 47 78 43 39 62 62 78 138 162 165 173 173 163 173 36 0 0 0 0 0 0 1 26 7 0 4 0 0 22 37 44 6 23 16 17 19 4 14 0 0 0 0 0 0
26 29 37 50 36 68 50 58 68 83 120 153 158 197 204 188 7 24 0 0 0 0 0 5 1 53 32 13 0 0 7 11 21 7 0 0 7 13 6 30 0 1 0 0 0 0 0
12 27 27 29 53 42 27 40 56 78 91 95 118 147 85 2 0 31 2 0 0 0 11 8 1 10 24 0 0 2 0 1 8 0 0 1 4 11 14 0 0 0 0 0 0 0 0
18 20 18 20 22 29 26 37 23 53 72 55 59 85 13 0 0 1 16 0 0 0 4 1 13 21 3 4 1 14 10 0 0 0 0 0 0 0 2 0 0 0 0 0 0 0 0
13 25 15 15 27 23 29 18 26 18 39 41 27 28 2 0 0 0 0 0 0 0 6 3 6 3 2 18 5 13 0 1 0 1 5 2 0 0 0 0 0 0 0 0 0 0 0
21 19 11 12 10 25 16 17 24 14 5 27 21 1 0 0 0 0 0 0 0 5 13 11 8 7 13 20 31 3 0 0 0 0 0 0 0 0 0 0 0 0 0 0 0 0 0
12 18 17 11 3 14 14 10 18 11 2 2 0 0 0 0 0 0 0 0 0 3 7 9 1 1 6 7 20 1 0 0 0 0 0 0 0 0 0 0 0 0 0 0 0 0 0
17 14 14 16 5 5 11 11 9 5 5 0 0 0 0 0 0 0 0 2 1 0 0 0 0 0 1 0 0 1 0 0 0 0 0 0 0 0 0 0 0 0 0 0 0 0 0
14 13 9 16 12 6 6 5 9 6 8 0 0 0 0 0 0 0 0 0 0 0 0 0 0 0 0 0 0 0 0 0 0 0 0 0 0 0 0 0 0 0 0 0 0 0 0
11 12 16 9 13 10 6 5 4 7 8 0 0 0 0 0 0 0 3 2 0 0 0 0 0 0 0 0 0 0 0 0 0 0 0 0 0 0 0 0 0 0 0 0 0 0 0
5 9 10 8 12 12 6 4 1 4 5 0 0 0 0 0 0 0 0 0 0 0 0 0 0 0 0 0 0 0 0 0 0 0 0 0 0 0 0 0 0 0 0 0 0 0 0
6 11 7 11 10 13 6 5 1 1 1 0 0 0 0 0 0 0 0 0 0 0 0 0 0 0 0 0 0 0 0 0 0 0 0 0 0 0 0 0 0 0 0 0 0 0 0
7 10 13 12 12 11 7 4 2 0 0 0 0 0 1 0 0 0 0 0 0 0 0 0 0 0 0 0 0 0 0 0 0 2 0 0 0 0 0 0 0 0 0 0 0 0 0
6 7 25 17 13 11 10 6 4 0 0 0 0 0 0 0 0 0 0 0 0 0 0 0 0 1 6 0 0 0 0 0 1 0 0 0 0 0 0 0 0 0 0 0 0 0 0
4 5 6 21 14 10 9 10 6 0 0 0 0 0 0 0 0 0 0 0 0 0 0 0 3 9 14 3 0 0 0 0 0 0 0 0 0 0 0 0 0 0 0 0 0 0 0
3 5 6 25 9 4 5 8 11 4 0 0 4 4 0 0 0 0 0 0 0 0 0 0 0 0 0 0 0 0 0 0 0 0 0 0 0 0 1 0 0 0 0 0 0 0 0
3 3 4 20 13 3 5 8 9 11 0 0 0 1 2 0 0 0 0 0 0 0 0 0 0 0 0 0 0 4 10 3 0 0 0 0 0 0 0 0 0 0 0 0 0 0 0
11 17 12 21 25 2 0 12 3 5 7 0 8 0 0 6 0 0 0 0 0 0 0 0 0 0 0 0 0 0 0 0 4 3 0 0 0 1 4 1 0 0 0 0 0 0 0
23 20 18 13 49 15 1 2 19 19 11 0 0 0 0 7 0 0 0 0 0 0 0 0 0 0 0 0 0 0 0 0 0 3 19 22 21 14 1 5 0 0 0 0 0 0 0
22 21 31 18 38 57 4 0 4 18 11 0 0 0 0 0 0 0 0 0 0 0 0 0 0 0 0 0 0 0 0 0 0 0 0 1 2 16 1 12 0 0 0 0 0 0 0
7 14 23 16 19 35 53 19 5 2 13 0 0 0 0 0 0 0 0 0 0 0 8 0 0 0 0 0 0 0 0 0 0 0 0 0 0 0 0 0 0 0 0 0 0 0 0

GFSGBSN_con_sbcape_039.txt.gz
CAPE
39 22 17 47 58 51 50 80 83 78 97 105 134 122 115 111 93 76 94 115 136 134 147 96 73 8 33 22 5 0 0 3 33 64 95 3 24 10 2 0 0 0 0 0 0 0 0
21 18 41 45 49 33 64 76 76 84 95 115 150 132 106 100 118 80 108 200 211 235 254 145 71 15 37 40 0 0 0 2 0 160 157 4 2 1 2 0 0 0 0 0 0 0 0
25 37 47 54 52 34 67 71 77 87 105 129 155 183 178 165 114 171 208 191 190 219 220 149 91 15 37 1 0 0 0 106 0 207 193 26 0 0 0 0 0 0 0 0 0 0 0
16 32 47 53 40 53 64 75 72 91 93 124 123 209 217 146 44 157 211 211 234 228 216 160 134 58 13 53 0 0 0 140 49 264 183 31 2 0 0 0 0 0 0 0 0 0 0
28 31 31 53 37 58 69 62 70 62 55 78 106 152 204 57 49 204 230 279 284 238 222 190 44 48 58 89 0 0 0 109 198 146 85 114 28 27 0 0 0 0 0 0 0 0 0
30 24 23 45 36 61 43 67 45 77 98 164 167 132 82 20 115 183 159 203 79 66 87 123 75 26 2 3 3 0 0 31 133 132 145 140 54 16 0 0 0 0 0 0 0 0 0
14 32 41 36 43 38 67 81 57 83 152 201 219 106 60 10 39 114 69 0 0 0 31 0 0 0 19 22 1 0 32 122 109 82 60 49 22 12 9 0 0 0 0 0 0 0 0
18 27 25 31 30 66 30 38 59 92 124 154 177 173 201 219 100 55 0 0 0 0 0 0 0 0 0 29 1 0 0 102 64 34 47 26 16 0 0 0 0 0 0 0 0 0 0
21 18 30 21 34 27 30 44 38 76 93 142 192 168 139 169 132 45 0 0 0 0 0 13 4 1 0 9 7 2 0 12 0 0 23 3 24 6 5 2 1 0 0 0 0 0 0
20 20 22 21 20 21 38 39 29 42 41 58 127 104 28 36 0 12 8 0 0 0 0 9 3 42 13 8 6 0 1 2 37 1 9 8 3 11 2 6 4 1 0 0 0 0 0
14 16 20 20 18 19 26 21 27 27 14 1 24 79 59 1 3 0 0 0 0 0 0 18 10 1 1 0 0 3 0 9 4 12 1 1 10 32 29 9 0 0 0 0 0 0 0
8 18 14 15 13 20 15 18 24 13 10 5 2 1 0 0 0 0 1 0 0 0 1 1 3 13 5 8 15 3 7 8 0 3 0 0 0 3 4 0 0 0 0 0 0 0 0
8 12 11 11 14 19 14 13 16 10 7 2 5 0 0 0 0 0 0 0 0 0 3 2 7 4 1 10 12 12 1 1 2 1 4 10 4 0 0 0 0 0 0 0 0 0 0
15 14 10 11 11 13 20 16 10 10 6 2 0 0 0 0 0 0 2 0 0 15 11 7 5 11 8 4 9 1 3 0 0 0 3 0 8 0 0 0 0 0 0 0 0 0 0
7 17 8 12 14 12 12 17 13 9 5 10 0 0 0 0 0 0 0 0 0 1 6 8 0 1 3 0 6 7 4 0 0 0 0 0 0 0 0 0 0 0 0 0 0 0 0
9 12 12 11 13 9 8 14 11 7 9 5 0 0 0 0 0 0 0 1 0 1 0 0 0 0 0 0 0 0 0 0 0 0 0 0 0 0 0 0 0 0 0 0 0 0 0
11 8 14 12 9 10 6 5 11 7 6 0 0 0 0 0 0 0 0 0 0 0 0 0 0 0 0 0 0 0 0 0 0 0 0 0 0 0 0 0 0 0 0 0 0 0 0
9 8 12 7 8 11 8 2 3 8 4 0 0 0 0 0 0 0 1 2 0 0 0 0 0 0 0 0 0 0 0 0 0 0 0 0 0 0 0 0 0 0 0 0 0 0 0
7 7 18 7 7 14 12 5 1 3 6 0 0 0 0 0 0 0 0 0 0 0 0 0 0 0 0 0 0 0 0 0 0 0 0 0 0 0 0 0 0 0 0 0 0 0 0
6 6 13 10 6 12 11 8 2 0 2 0 0 0 0 0 0 0 0 0 0 0 0 0 0 0 0 0 0 0 0 0 0 0 0 0 0 0 0 0 0 0 0 0 0 0 0
4 5 3 21 8 8 12 11 3 0 0 0 0 0 0 0 0 0 0 0 0 0 0 0 0 0 0 0 0 0 0 0 0 0 0 0 0 0 0 0 0 0 0 0 0 0 0
4 5 3 11 9 2 8 12 5 0 0 0 0 0 0 0 0 0 0 0 0 0 0 0 0 0 0 0 0 0 0 0 0 0 0 0 0 0 0 0 0 0 0 0 0 0 0
4 4 5 8 12 1 4 11 9 0 0 0 0 0 1 0 0 0 0 0 0 0 0 0 0 8 11 0 0 0 0 0 0 0 0 0 0 0 0 0 0 0 0 0 0 0 0
1 3 3 10 31 4 0 12 9 5 0 0 3 4 0 0 0 0 0 0 0 0 0 0 0 0 0 0 0 0 0 0 0 0 0 0 0 0 0 0 0 0 0 0 0 0 0
3 4 6 10 19 19 4 9 8 8 1 0 0 1 3 0 0 0 0 0 0 0 0 0 0 0 0 0 0 4 7 0 0 0 0 0 0 0 1 0 0 0 0 0 0 0 0
2 25 13 17 9 60 19 0 21 14 5 0 0 0 0 3 0 0 0 0 0 0 0 0 0 0 0 0 0 1 0 0 1 0 0 0 0 0 1 0 0 0 0 0 0 0 0
6 20 15 28 13 39 58 2 6 11 4 0 0 0 0 1 0 0 0 0 0 0 0 0 0 0 0 0 0 0 0 0 0 0 20 16 24 4 2 1 0 0 0 0 1 0 0
19 9 6 12 14 27 41 42 20 0 5 0 0 0 0 0 0 0 0 0 0 0 0 0 0 0 0 0 0 1 0 0 0 0 0 2 1 12 3 7 0 0 0 0 0 0 0
9 2 17 19 17 28 33 48 43 0 0 0 0 0 0 0 0 0 0 0 0 0 0 0 0 0 0 0 0 0 0 0 0 0 0 1 0 0 0 0 0 0 0 0 0 0 0

GFSGBSN_con_sbcape_042.txt.gz
CAPE
29 27 35 45 55 46 53 64 75 80 91 102 107 152 194 181 168 170 127 142 173 131 139 121 93 74 5 3 5 18 0 0 340 64 125 70 53 82 24 0 0 0 0 0 0 0 0
25 36 36 45 53 35 56 69 77 74 88 102 107 151 198 240 230 208 230 208 192 189 189 158 131 66 14 2 16 19 0 0 179 48 224 140 8 53 31 8 0 0 0 0 0 0 0
21 42 31 48 45 33 59 62 52 44 64 83 104 72 172 256 181 137 197 261 274 229 264 230 157 45 18 0 68 31 0 2 190 11 45 181 19 52 20 16 0 0 0 0 0 0 0
34 30 22 49 47 42 30 43 46 66 82 132 198 195 127 184 143 53 229 282 265 254 246 234 183 92 9 0 0 0 0 5 83 70 88 300 188 75 28 0 0 1 0 0 0 0 0
26 18 32 49 34 30 58 55 53 76 102 143 177 189 136 99 23 74 203 260 290 278 188 222 155 121 7 108 25 8 1 153 104 89 320 206 210 51 9 7 4 4 0 0 0 0 0
15 18 37 32 22 60 45 40 58 54 90 123 140 148 72 2 0 68 105 228 125 137 182 195 100 34 18 42 51 10 0 20 146 217 204 133 118 111 35 18 0 0 0 0 0 0 0
21 18 34 23 25 38 41 57 46 75 111 119 148 123 130 47 24 45 102 0 33 38 118 0 0 8 48 110 26 0 11 2 189 120 50 75 93 48 9 3 0 0 0 0 0 0 0
9 14 15 19 22 38 54 45 63 56 69 78 95 64 88 125 108 42 26 0 0 36 0 0 0 0 0 4 32 8 54 70 43 48 56 48 39 19 43 32 8 0 0 0 0 0 0
6 16 16 17 19 19 39 38 57 42 30 22 47 35 20 0 21 34 13 0 0 0 23 32 33 1 0 52 42 17 38 0 32 45 49 22 29 16 44 38 24 1 0 0 0 0 0
6 11 11 14 15 12 22 34 51 27 12 8 0 0 1 0 1 10 7 0 0 0 35 33 10 33 51 55 43 32 24 2 2 6 40 19 44 1 3 37 31 17 0 0 0 0 0
6 12 11 14 12 11 12 18 38 26 8 5 0 0 0 0 0 10 11 0 0 4 23 10 7 1 16 13 9 13 28 43 6 2 4 7 36 39 26 12 27 4 0 0 0 0 0
4 14 11 12 11 11 13 12 26 21 9 7 5 0 0 0 0 2 11 0 1 13 12 6 5 18 0 9 12 28 24 4 3 15 1 4 0 1 4 0 8 0 0 0 0 0 1
4 10 10 9 12 11 8 10 13 15 14 3 4 0 0 0 0 0 0 4 12 21 1 6 18 20 4 25 11 2 26 8 12 3 5 5 6 8 0 0 0 0 1 14 9 6 2
3 10 13 9 10 11 8 6 7 9 8 4 3 0 0 0 0 0 6 4 8 12 6 3 13 16 17 13 10 8 17 8 0 0 9 25 8 5 2 3 3 0 2 4 0 0 0
3 8 12 9 9 12 13 8 6 7 9 8 0 0 0 0 0 4 3 3 8 9 13 9 9 6 7 1 6 7 2 2 0 0 9 0 8 0 1 0 1 3 6 0 0 0 0
3 7 6 10 11 9 9 10 8 7 15 1 0 0 0 0 0 1 3 19 19 1 0 0 0 0 1 0 1 5 7 0 0 0 0 0 4 0 0 0 0 0 0 0 0 0 0
6 6 7 8 9 9 7 6 9 6 7 0 0 0 0 0 0 0 3 9 4 0 0 0 0 0 0 0 0 0 0 0 0 0 0 0 0 1 0 0 0 0 0 0 0 0 0
7 8 8 9 5 8 4 4 3 5 7 0 0 0 0 0 0 0 8 1 0 0 0 0 0 0 0 0 0 0 0 0 0 0 0 0 0 9 1 0 0 0 0 0 0 0 0
6 6 7 23 5 5 5 2 2 1 5 4 0 0 0 0 0 0 0 0 0 0 0 0 0 0 0 0 0 0 0 0 0 0 0 0 0 4 3 0 0 0 0 0 0 0 0
4 4 6 14 10 3 3 3 2 0 2 0 0 1 0 0 0 0 0 0 0 0 0 0 0 0 0 0 0 0 0 0 0 0 0 0 0 0 0 0 0 0 0 0 0 0 0
2 3 7 7 16 5 2 3 1 0 0 0 1 2 1 0 0 0 0 0 0 0 0 0 0 0 0 0 0 0 0 0 0 0 0 0 0 0 0 0 0 0 0 0 0 0 0
3 3 4 7 13 10 1 5 2 0 0 0 4 2 1 0 0 0 0 0 0 0 0 0 0 0 0 0 0 0 0 0 0 0 0 0 1 0 0 0 0 0 0 0 0 0 0
2 4 4 5 6 21 2 7 7 1 0 5 0 2 6 0 0 0 0 0 0 0 0 0 0 5 9 0 0 0 0 0 0 0 0 0 0 0 0 0 0 0 0 0 0 0 0
5 3 3 2 12 34 15 1 17 12 0 18 6 8 2 0 0 0 0 0 0 0 0 0 0 9 1 0 0 0 0 0 0 0 0 1 4 0 4 0 0 0 0 0 0 0 0
4 2 15 0 2 5 46 3 15 11 0 1 0 3 13 1 0 0 0 0 0 0 0 0 0 0 0 0 9 10 11 2 1 1 0 0 9 8 3 1 0 0 0 0 0 0 0
0 5 5 5 2 3 44 36 6 8 0 0 0 0 4 3 0 0 1 0 0 0 0 0 0 0 0 4 17 15 7 1 11 5 0 0 5 15 11 1 0 0 0 0 0 2 0
12 16 0 0 3 7 14 43 54 6 1 0 0 0 0 3 0 0 1 2 1 0 0 0 0 0 0 22 23 9 12 0 2 2 20 23 21 27 18 3 0 0 0 0 20 2 0
33 10 0 0 4 13 16 22 31 52 7 0 0 0 0 0 0 0 0 0 2 1 0 0 2 2 0 32 31 25 5 0 1 0 1 4 12 20 18 15 0 0 0 8 1 0 0
34 4 5 3 11 33 24 9 3 55 61 0 1 0 0 1 0 0 0 0 0 0 0 0 3 0 0 35 1 1 0 0 0 6 0 2 0 0 0 0 0 0 0 0 0 0 0

GFSGBSN_con_sbcape_045.txt.gz
CAPE
17 31 32 34 49 28 50 52 40 39 53 76 103 125 131 166 232 207 197 238 138 189 154 130 132 100 41 31 0 159 332 791 366 147 17 45 8 22 19 0 0 0 0 0 0 0 0
19 33 27 35 31 44 35 27 65 51 78 114 155 195 190 152 223 174 203 216 225 219 174 125 81 102 86 58 2 192 4 114 426 217 11 43 6 47 34 15 0 0 1 0 0 0 0
16 15 22 32 40 27 46 62 39 50 81 126 142 175 207 202 177 172 106 168 250 204 204 222 99 80 68 27 51 195 2 3 172 376 12 28 24 151 26 19 18 5 0 0 0 0 0
14 18 22 33 24 34 37 20 37 62 78 111 137 161 189 164 147 123 43 263 288 272 258 229 189 86 26 2 0 15 36 23 278 384 26 159 180 89 38 24 29 19 12 5 0 0 0
16 22 24 23 24 34 40 53 41 53 70 78 99 119 168 53 76 2 113 198 281 268 289 215 179 107 59 28 0 0 16 13 152 272 96 305 294 119 99 33 47 20 0 0 0 0 0
14 20 26 22 21 39 37 35 35 45 59 65 80 75 128 42 0 15 75 154 109 137 202 163 120 56 0 26 87 36 75 100 209 106 96 213 301 167 33 57 8 0 0 0 0 0 0
11 16 16 20 21 19 25 21 35 45 42 43 69 30 84 54 1 40 115 32 223 120 93 34 11 11 92 186 278 239 49 269 261 135 66 130 169 38 8 0 0 0 0 0 0 0 0
5 13 22 18 20 16 25 25 36 42 24 39 58 6 9 38 10 29 73 50 43 123 24 0 0 0 0 0 178 122 29 4 95 37 38 79 39 15 19 24 18 0 0 0 0 0 0
6 12 17 17 14 16 16 23 34 36 27 35 56 10 0 11 20 3 16 5 33 61 34 3 5 1 45 139 67 74 6 16 34 29 44 8 1 19 26 20 34 17 1 0 0 0 0
6 10 14 16 13 19 13 20 31 29 25 16 35 6 0 0 6 5 5 1 0 0 125 5 10 14 143 112 85 15 0 9 0 53 47 45 7 18 51 33 25 30 12 2 0 0 0
6 10 10 15 15 14 19 19 19 26 21 16 6 10 0 0 0 2 6 0 0 20 107 8 2 17 38 62 50 53 16 53 3 3 10 9 42 22 43 44 23 33 0 0 0 0 0
4 11 11 13 15 12 12 17 21 10 17 14 4 5 0 2 0 0 6 5 12 23 13 4 24 40 44 37 31 28 45 36 7 1 0 4 0 1 11 9 42 0 0 0 0 0 3
5 8 13 11 11 11 9 11 14 16 15 12 3 3 1 0 4 0 0 5 18 36 0 4 33 29 14 20 14 29 16 24 8 4 4 3 3 3 0 0 0 1 7 17 20 18 1
2 6 7 10 8 8 10 8 7 8 10 15 2 0 0 0 5 4 2 2 12 16 15 9 15 7 18 13 7 22 28 29 9 11 13 11 10 1 1 0 0 1 17 49 6 3 0
0 2 7 8 6 7 9 7 5 4 14 12 0 0 0 0 2 2 3 4 40 17 13 9 7 20 16 23 4 14 8 12 6 4 15 31 18 9 8 0 0 1 19 0 0 0 0
2 2 6 6 5 7 8 6 5 6 8 8 0 0 0 0 2 4 11 19 39 8 3 0 9 0 19 6 6 7 8 0 0 0 0 0 10 6 5 8 1 5 0 1 0 0 0
2 2 2 11 5 4 5 6 4 3 7 0 0 0 0 0 1 2 3 12 10 0 0 0 0 0 4 2 4 4 2 0 0 0 0 0 0 2 0 2 2 2 2 0 0 0 0
1 3 1 6 9 2 5 6 3 1 8 0 0 10 0 0 3 1 6 0 0 0 0 0 0 0 1 0 2 2 0 1 0 0 0 0 2 7 9 0 0 0 2 0 3 0 0
1 4 5 2 9 8 4 4 2 1 2 9 0 0 0 0 11 4 0 0 0 0 0 0 0 0 0 0 0 0 0 0 0 0 0 0 0 3 3 0 0 0 0 0 0 0 0
4 3 4 5 5 7 4 2 1 1 0 2 0 1 1 0 0 1 0 0 0 0 0 0 0 0 0 0 0 0 0 0 0 0 0 0 0 0 0 0 0 0 0 0 0 4 0
4 2 5 4 5 11 3 2 2 0 0 1 3 7 3 15 0 0 0 0 0 0 0 0 0 0 0 0 0 0 1 0 0 0 0 0 1 0 0 0 0 0 0 0 0 0 1
1 6 6 6 6 14 7 1 2 0 0 0 1 1 1 0 0 0 0 0 0 0 0 0 0 0 0 0 0 0 0 1 0 0 0 0 0 0 0 0 0 0 0 0 0 0 0
0 0 1 1 1 12 20 0 3 0 0 3 4 10 9 0 0 0 0 0 0 0 0 0 0 1 1 4 0 0 0 0 2 0 0 5 4 0 2 0 0 0 0 0 0 0 0
0 0 14 2 10 12 32 2 1 2 0 2 6 18 2 1 0 0 0 0 0 0 0 0 0 5 0 0 0 0 0 0 0 0 3 7 15 13 7 0 1 0 0 0 0 0 0
0 0 8 3 2 5 17 30 12 3 0 1 0 2 4 1 0 0 0 0 0 0 0 0 2 4 0 3 8 8 12 6 6 2 2 10 12 22 3 7 0 0 0 0 0 0 0
0 0 6 3 1 3 14 36 36 9 0 1 2 0 6 3 0 0 1 0 1 6 0 0 0 0 4 31 19 5 8 3 7 14 5 3 14 9 8 1 0 0 0 0 0 4 0
1 15 4 4 3 4 16 22 26 27 5 3 4 0 1 0 0 0 1 1 2 3 7 0 2 8 4 29 20 2 1 2 4 2 5 17 15 17 18 4 0 0 0 0 6 2 0
8 20 3 3 3 10 35 17 14 12 28 5 14 0 0 2 0 0 0 0 0 11 14 6 14 14 39 35 12 6 8 5 4 3 1 1 4 6 7 14 0 0 0 10 2 0 0
25 24 2 1 0 3 30 23 41 4 5 0 10 0 0 7 0 0 0 0 0 0 0 0 4 4 34 36 36 37 11 2 0 6 0 2 0 1 0 0 0 0 0 5 0 0 0

GFSGBSN_con_sbcape_048.txt.gz
CAPE
21 23 17 35 48 27 39 36 15 17 46 87 121 173 185 195 175 184 216 207 220 186 160 142 138 94 49 10 0 55 56 229 443 217 24 71 0 9 4 0 0 0 0 0 0 0 0
16 23 25 35 26 27 37 20 35 51 61 87 91 130 172 183 205 160 116 207 230 282 200 213 127 44 37 38 0 35 79 272 369 329 17 60 0 6 6 5 0 0 0 0 0 0 0
11 18 25 23 24 32 29 32 39 49 64 83 85 109 138 188 233 116 156 99 224 297 230 235 161 33 40 11 46 230 58 38 341 277 17 18 12 20 138 34 2 7 6 0 0 0 0
16 15 20 17 22 22 30 28 30 62 70 69 78 82 122 159 96 90 24 145 252 308 303 244 186 60 5 0 0 0 126 0 8 264 147 21 100 18 141 39 21 14 23 5 0 0 0
13 14 15 14 19 18 17 23 30 63 68 68 64 32 107 30 33 0 30 139 252 276 298 240 140 87 7 100 0 0 51 29 187 321 399 192 208 108 46 24 28 18 0 0 0 0 0
9 12 13 11 14 16 22 19 30 58 52 61 52 6 57 16 0 18 66 124 136 120 139 166 96 28 2 74 0 0 3 5 167 222 261 167 141 69 40 37 7 0 0 0 0 0 0
10 10 11 11 16 16 14 15 26 41 46 40 52 7 37 13 0 14 127 177 143 60 47 6 5 5 0 1 68 3 128 149 226 138 9 51 11 0 0 0 0 0 0 0 0 0 0
7 9 11 12 13 17 15 13 14 21 25 25 31 37 9 17 19 18 36 5 0 5 13 0 0 0 0 0 130 219 142 72 91 22 9 22 20 0 11 1 1 0 0 0 0 0 0
5 8 11 10 13 17 19 14 8 16 23 12 8 28 4 0 0 14 3 0 0 2 10 0 0 8 41 27 44 205 13 0 26 6 24 21 3 33 35 4 3 0 0 0 0 0 0
3 6 10 12 9 11 16 16 14 10 10 16 11 9 14 0 0 0 0 0 0 0 9 3 12 41 126 56 139 18 0 6 0 8 18 33 16 4 27 23 8 13 1 0 3 0 0
3 3 8 8 9 14 15 17 13 9 8 6 13 5 5 0 1 3 0 0 0 2 50 4 1 0 17 27 7 8 0 0 0 38 30 33 15 8 31 31 11 21 21 2 3 0 0
2 2 3 4 6 11 15 12 11 9 7 10 6 2 2 7 2 0 0 0 8 3 5 1 30 0 31 31 20 11 20 0 0 4 0 1 0 6 1 29 17 18 0 0 0 0 0
1 1 3 7 7 7 9 14 13 7 5 7 8 4 1 0 6 4 7 6 3 2 0 5 27 27 13 20 17 0 3 6 6 0 0 2 2 0 3 12 0 1 3 2 16 12 0
0 1 1 7 7 6 6 5 11 7 1 10 3 0 0 0 6 6 6 4 0 4 6 0 12 7 7 3 5 7 13 13 15 0 8 3 1 1 0 0 0 1 0 22 0 0 0
0 2 1 6 7 7 7 4 3 5 5 5 0 0 0 0 0 1 5 0 1 2 8 13 13 9 22 4 0 14 12 18 7 8 7 10 8 6 0 0 0 0 3 0 0 0 0
1 1 1 5 7 5 7 4 1 7 1 1 0 0 0 0 0 0 4 2 5 5 2 0 3 0 19 16 15 11 15 1 0 0 0 0 10 9 6 7 0 0 0 0 0 1 0
0 1 2 4 6 9 8 6 4 3 1 0 0 0 0 0 1 3 0 0 4 0 0 0 0 0 0 0 5 1 2 0 0 0 0 0 0 17 7 6 4 2 0 0 0 0 0
1 3 2 6 6 5 8 6 3 4 3 0 0 3 0 0 4 20 5 0 0 0 0 0 0 0 1 0 3 0 0 0 0 0 0 0 0 4 0 0 0 2 0 0 0 0 0
0 0 4 6 5 8 7 4 4 3 3 7 0 0 0 0 9 5 0 0 0 0 0 0 0 0 0 0 0 0 0 0 0 0 0 0 0 0 0 0 0 0 0 0 0 0 0
0 1 4 3 4 7 14 3 4 2 0 2 0 0 5 0 0 5 0 0 0 0 0 0 0 0 0 0 0 0 0 0 0 0 0 0 0 0 0 0 0 0 0 0 0 0 0
0 0 2 2 3 12 14 1 2 0 0 0 0 0 1 6 0 0 0 0 0 0 0 0 0 0 0 0 0 0 0 0 0 0 0 0 0 0 0 0 0 0 0 0 0 0 0
0 0 1 4 2 4 18 1 1 0 0 0 1 1 0 0 0 0 0 3 0 0 0 0 0 0 0 0 0 0 0 0 0 0 0 0 0 0 0 0 0 0 0 0 0 0 0
0 0 5 3 4 4 20 11 3 0 0 0 0 5 9 0 0 0 0 3 1 0 0 0 0 0 0 9 0 0 0 0 0 0 0 0 0 0 0 0 0 0 0 0 0 0 0
0 0 4 2 4 3 5 22 27 0 0 0 0 9 4 0 0 0 0 0 0 0 1 0 0 3 0 0 0 0 0 0 0 0 0 0 3 0 0 0 0 0 0 0 0 0 0
0 0 2 0 1 3 5 8 21 14 0 0 0 0 3 0 0 0 0 0 0 0 0 1 0 0 0 0 1 1 1 1 1 0 0 3 5 13 0 1 0 0 0 0 0 0 0
0 0 1 4 3 8 12 22 21 18 0 0 0 0 0 0 0 0 0 0 0 0 5 4 0 0 0 21 16 5 9 0 3 4 6 5 2 1 2 0 0 0 0 0 0 0 0
0 1 11 5 1 8 26 24 12 13 5 1 8 0 0 0 0 0 0 0 0 0 0 14 4 2 2 15 7 10 4 1 2 0 3 7 10 3 13 7 0 0 0 0 0 0 0
0 4 20 0 0 0 17 31 33 9 9 4 9 0 0 0 0 0 0 0 0 0 3 0 5 10 25 18 12 12 0 0 0 0 0 0 1 1 7 12 0 0 0 4 0 0 0
8 15 21 0 0 1 27 40 34 12 18 0 17 0 0 6 0 0 0 0 0 0 0 0 1 0 3 23 18 7 0 1 0 0 0 0 0 0 0 0 0 0 0 0 0 0 0

GFSGBSN_con_sbcape_054.txt.gz
CAPE
13 14 15 19 20 22 26 30 21 15 37 37 53 17 46 41 69 56 99 142 173 203 191 159 156 174 7 0 0 0 11 3 4 61 143 0 0 29 67 2 30 0 0 22 41 60 27
14 11 7 17 21 16 25 32 27 21 25 32 33 18 12 34 43 44 73 126 160 279 215 228 173 132 31 14 0 0 0 1 0 106 99 9 1 25 18 2 46 0 0 0 0 9 21
10 13 15 12 20 17 23 32 29 26 30 31 36 17 10 8 5 32 32 68 165 263 248 222 228 47 16 0 0 2 0 24 52 225 70 22 0 36 0 0 0 0 14 0 0 0 0
9 9 9 11 13 15 19 22 26 32 31 26 29 8 12 4 0 0 5 51 112 211 236 320 233 31 1 0 0 0 0 19 70 122 150 109 7 5 0 0 1 0 0 0 0 0 0
5 7 11 9 14 17 17 18 8 21 38 26 22 30 8 1 0 0 0 16 93 192 169 211 21 0 0 9 4 0 2 25 55 64 130 91 29 10 2 0 0 0 0 0 0 0 0
3 5 8 9 13 13 13 15 20 14 18 26 14 20 10 1 0 0 0 26 7 59 56 122 68 0 0 3 1 84 7 0 20 96 139 82 36 10 4 0 0 0 0 0 0 0 0
2 3 6 11 5 11 16 15 16 14 17 11 17 9 22 0 0 0 0 0 0 0 0 0 0 0 0 0 0 34 3 19 66 77 37 35 6 0 0 0 0 0 0 0 0 0 0
1 2 6 8 11 12 11 15 11 14 12 16 13 15 11 18 0 0 0 0 0 0 0 0 0 0 0 0 12 16 34 40 10 11 25 31 12 0 0 2 0 0 0 0 0 0 0
1 2 4 7 6 10 15 16 15 12 14 14 13 15 3 7 0 0 0 0 0 0 0 0 0 0 12 59 9 4 11 31 2 26 11 17 1 0 7 0 0 0 0 0 0 0 0
1 3 3 6 5 6 12 13 13 14 12 17 13 5 5 3 0 0 0 0 0 0 0 2 5 5 25 43 1 72 43 22 28 15 16 3 0 0 12 0 0 0 0 0 0 0 0
2 1 4 3 3 6 13 13 10 6 9 9 8 3 2 5 0 0 0 0 0 0 0 0 3 3 0 2 4 7 0 12 5 19 0 7 1 0 3 2 0 0 0 0 0 0 0
1 1 3 5 7 5 10 11 10 10 9 5 3 2 1 0 0 0 0 0 0 0 0 0 12 2 0 1 24 7 0 0 0 0 0 0 0 0 9 1 6 0 0 0 0 0 0
0 1 3 7 3 7 11 7 5 9 5 0 0 3 0 0 0 0 0 0 0 0 0 0 5 17 33 19 6 0 1 0 0 0 0 1 0 0 0 2 0 0 0 0 0 0 0
0 1 2 6 3 7 8 9 8 8 2 3 0 0 0 0 0 0 0 0 0 1 0 0 3 0 9 0 3 5 1 1 0 0 0 0 2 0 0 0 2 0 0 0 0 0 0
0 0 1 6 8 6 8 13 6 7 8 6 0 0 0 0 0 0 0 0 0 0 0 3 0 0 0 0 1 1 0 2 2 0 0 0 3 0 0 0 0 0 0 0 0 0 0
0 0 2 4 6 3 8 13 8 7 6 0 0 0 0 0 0 0 0 0 0 0 0 0 0 0 0 0 0 0 4 8 9 10 0 0 3 6 0 0 0 1 0 0 0 1 0
0 0 1 3 2 3 11 7 11 6 4 0 0 0 0 0 0 0 0 0 0 0 0 0 0 0 0 0 0 0 0 0 3 2 0 0 0 15 7 3 3 5 6 0 0 0 0
0 0 0 1 1 4 8 7 7 2 2 0 0 0 0 0 1 0 0 0 0 0 0 0 0 0 0 0 0 1 0 0 0 0 0 0 0 2 0 1 0 1 0 0 0 0 0
0 0 0 1 4 4 6 3 4 0 0 0 0 0 0 0 0 0 0 0 0 0 0 0 0 0 0 0 0 0 0 0 0 0 0 0 0 0 0 0 3 15 0 0 0 0 0
0 0 0 1 4 4 3 3 2 0 0 0 0 0 1 2 0 0 0 0 0 0 0 0 0 0 0 0 0 0 0 0 0 0 0 0 0 0 0 0 0 0 6 0 0 0 0
0 0 1 1 1 1 3 5 1 0 0 0 0 0 0 0 0 0 0 0 0 0 0 0 0 0 0 0 0 0 0 0 0 0 0 0 0 0 0 0 0 0 0 0 0 0 0
0 0 0 0 0 1 3 3 2 0 0 0 0 0 0 0 0 0 0 9 0 0 0 0 0 0 0 0 0 0 0 0 0 0 0 0 0 0 0 0 0 0 0 0 0 0 0
0 0 0 0 0 1 6 3 2 0 0 0 0 0 0 0 0 0 0 0 0 0 0 0 0 0 0 0 0 0 0 0 0 0 0 0 0 0 0 0 0 0 0 0 0 0 0
0 0 0 0 0 0 5 4 2 0 0 0 0 0 0 0 0 0 0 0 0 0 0 0 0 0 0 0 0 0 0 0 0 0 0 0 0 0 0 0 0 0 0 0 0 0 0
0 0 0 0 0 0 6 11 5 1 0 0 0 0 0 0 0 0 0 0 0 0 0 0 4 0 0 0 0 0 0 0 0 0 0 0 0 0 0 0 0 0 0 0 0 0 0
0 0 0 0 0 0 2 8 16 0 0 0 0 0 0 0 0 0 0 0 0 0 0 0 0 0 0 4 12 1 0 0 0 2 0 0 0 0 3 0 0 0 0 0 0 0 0
0 0 0 0 0 0 1 6 6 1 0 0 0 0 0 0 0 0 0 0 0 0 0 0 0 0 0 0 0 1 0 0 0 0 1 4 5 0 1 3 0 0 0 0 0 0 0
0 0 1 0 0 0 3 19 24 1 3 0 0 0 0 0 0 0 0 0 0 0 0 0 0 1 0 1 0 0 0 0 0 0 0 0 1 6 7 7 0 0 0 0 0 0 0
0 0 8 0 0 0 1 9 8 14 12 0 0 0 0 0 0 0 0 0 0 0 0 0 1 0 0 1 0 0 0 0 0 0 0 0 0 0 0 0 0 0 0 0 0 0 0

GFSGBSN_con_sbcape_057.txt.gz
CAPE
5 9 12 11 14 13 15 26 14 29 42 49 47 17 12 40 23 11 25 83 118 219 195 153 162 208 8 0 0 0 15 0 0 18 32 0 0 20 40 39 26 2 0 3 5 0 0
4 9 9 10 8 14 19 22 28 31 40 42 43 18 18 12 7 13 37 66 111 207 189 252 176 157 20 1 0 4 4 0 0 8 0 19 0 16 36 36 93 9 31 54 51 3 0
4 7 6 9 11 12 15 17 21 26 33 41 43 26 18 3 0 5 1 43 100 196 219 193 216 43 9 3 1 23 0 0 2 0 0 23 0 55 3 3 0 5 6 1 6 19 4
5 7 8 9 7 12 14 15 16 10 20 24 37 33 6 3 0 0 0 0 45 152 199 261 244 22 0 3 0 10 1 33 11 30 62 75 0 1 1 0 0 0 0 0 0 1 0
3 5 6 9 11 16 17 9 14 18 20 8 23 24 27 3 0 0 1 43 29 138 100 165 2 0 0 7 1 0 1 51 97 137 97 114 37 24 0 0 0 0 0 0 0 0 0
1 3 9 11 6 9 8 16 10 14 18 20 13 16 19 6 0 0 0 7 41 11 11 48 8 0 0 0 4 31 22 11 65 70 66 71 43 0 0 0 0 0 0 0 0 0 0
1 2 6 4 7 10 11 15 13 14 13 14 12 11 12 12 2 0 0 0 0 0 0 0 0 0 0 0 8 36 3 3 96 99 65 32 7 0 0 0 0 0 0 0 0 0 0
1 1 4 7 4 5 10 4 16 16 19 7 9 4 9 7 8 0 0 0 0 0 0 0 0 0 0 0 2 0 0 2 80 73 32 23 8 0 0 0 0 0 0 0 0 0 0
0 2 3 7 6 6 3 6 11 16 16 18 10 6 12 3 7 0 0 0 0 0 0 0 0 3 21 36 23 0 0 35 13 61 7 5 0 2 21 10 0 0 0 0 0 0 0
0 1 3 3 1 3 6 11 11 11 12 15 17 6 12 1 0 0 0 0 0 0 0 1 0 0 11 32 10 1 14 24 26 0 17 25 0 8 27 12 0 0 0 0 0 0 0
0 1 2 3 6 5 5 10 17 14 16 13 16 6 8 0 0 0 0 0 0 0 0 0 0 0 0 1 4 0 33 39 7 19 6 3 0 10 0 3 0 0 0 0 0 0 0
0 0 2 3 3 8 7 4 12 9 11 16 10 6 1 0 0 0 0 0 0 0 0 0 1 0 0 0 17 26 31 15 1 0 0 0 0 0 0 0 0 0 0 0 0 0 0
0 0 2 4 4 5 9 9 7 9 8 5 6 4 1 0 0 0 0 0 0 0 0 0 4 1 0 1 4 4 16 10 4 0 1 0 0 0 0 6 0 0 0 1 1 3 0
0 0 1 3 3 5 5 9 10 8 6 7 3 0 0 0 0 0 0 0 0 0 0 0 8 10 16 9 10 0 0 3 0 0 0 0 5 0 0 0 0 0 0 0 0 0 0
0 0 0 2 3 2 5 9 9 7 12 14 0 0 0 0 0 0 0 0 0 0 0 0 0 3 6 9 0 0 0 0 0 0 0 0 0 0 0 0 0 1 1 0 0 0 0
0 0 0 1 1 1 6 8 6 8 7 1 0 0 0 0 0 0 0 0 0 0 0 0 0 0 0 1 1 0 0 0 0 0 0 0 0 0 0 0 0 0 0 0 0 0 0
0 0 0 0 0 1 4 6 6 8 1 0 0 0 0 0 0 0 0 0 0 0 0 0 0 0 0 0 0 0 0 0 0 0 0 0 0 4 5 4 1 2 10 0 0 0 0
0 0 0 0 0 0 1 4 7 3 1 0 0 0 0 0 2 0 0 0 0 0 0 0 0 0 0 0 0 0 0 0 0 0 0 0 0 1 1 1 0 0 1 0 0 0 0
0 0 0 0 0 0 0 4 4 1 0 0 0 0 0 0 0 0 0 0 0 0 0 0 0 0 0 0 0 0 0 0 0 0 0 0 0 0 0 0 1 11 1 5 0 0 0
0 0 0 0 0 0 0 2 2 0 0 0 0 0 3 4 0 0 0 0 0 0 0 0 0 0 0 0 0 0 0 0 0 0 0 0 0 0 0 0 0 4 1 6 1 0 0
0 0 0 0 0 0 0 0 0 0 0 0 0 0 0 0 0 0 0 0 0 0 0 0 0 0 0 0 0 0 0 0 0 0 0 0 0 0 0 0 0 0 0 1 3 0 0
0 0 0 0 0 0 1 0 0 0 0 0 0 0 0 0 0 0 0 0 0 0 0 0 0 0 0 0 0 0 0 0 0 0 0 0 0 0 0 0 0 0 0 0 0 0 0
0 0 0 0 0 2 1 1 1 0 0 0 0 0 0 0 0 0 0 0 0 0 0 0 0 0 0 0 0 0 0 0 0 0 0 0 0 0 0 0 0 0 0 0 0 0 0
0 0 0 0 0 0 0 3 1 0 0 0 0 0 0 0 0 0 0 0 0 0 0 0 0 0 0 0 0 0 0 0 0 0 0 0 0 0 0 0 0 0 0 0 0 0 0
0 1 0 0 0 0 0 0 0 1 0 0 0 0 0 0 0 0 0 0 0 0 0 0 2 0 0 0 0 0 0 0 0 0 0 0 0 0 0 0 0 0 0 0 0 0 0
0 0 0 0 0 0 1 0 0 0 0 0 0 0 0 0 0 0 0 0 0 0 0 0 0 0 0 0 0 0 0 0 0 0 0 0 0 0 0 0 0 0 0 0 0 0 0
0 0 2 0 0 0 0 0 3 0 1 0 0 0 0 0 0 0 0 0 0 0 0 0 0 0 0 0 0 0 0 0 0 0 3 1 1 0 0 6 0 0 0 0 0 0 0
1 1 8 0 0 0 2 0 0 0 1 0 0 0 0 0 0 0 0 0 0 0 0 0 0 1 0 0 0 0 0 0 0 0 0 0 1 2 3 7 0 0 0 0 0 0 0
1 4 13 0 0 0 0 0 1 0 0 0 3 1 0 0 0 0 0 0 0 0 0 0 1 6 6 2 0 0 0 0 0 0 0 0 0 0 0 0 0 0 0 0 0 0 0

GFSGBSN_con_sbcape_060.txt.gz
CAPE
2 5 8 11 7 10 14 13 18 25 35 54 58 32 25 16 10 3 8 9 104 192 177 231 219 215 6 0 0 0 36 19 0 0 23 1 0 0 1 2 0 0 10 0 20 13 13
3 5 8 9 7 11 11 11 12 10 29 42 56 49 20 15 2 1 4 6 41 135 172 268 224 202 5 0 0 30 5 0 0 3 26 19 1 0 1 4 16 0 0 0 18 5 0
2 3 7 7 6 13 9 11 15 15 12 29 46 51 35 24 3 0 0 1 5 92 227 271 217 28 5 0 5 9 0 0 0 0 18 2 0 3 14 18 0 0 33 28 13 0 0
1 3 5 7 7 13 14 7 11 17 20 20 24 37 39 17 8 0 0 2 6 100 187 236 226 4 0 3 0 0 0 0 0 0 6 0 13 18 3 0 0 1 0 32 0 28 15
0 2 4 6 8 7 10 11 5 10 20 26 15 22 29 35 9 2 0 14 20 46 92 164 1 0 0 50 1 2 6 1 65 46 83 54 33 22 0 0 0 0 0 0 0 5 2
0 1 2 5 6 11 11 12 12 16 20 17 27 11 22 21 27 2 0 0 3 3 2 10 0 0 0 0 2 24 20 12 40 35 28 49 34 6 0 0 0 0 0 0 0 0 4
0 1 3 3 5 1 6 13 11 17 11 24 19 20 20 10 15 15 0 0 0 0 0 0 0 0 0 0 1 2 0 9 101 18 11 22 9 2 0 0 0 0 0 0 0 0 0
0 0 2 3 3 5 10 9 8 12 12 16 19 14 9 8 5 12 0 0 0 0 0 0 0 0 0 0 16 10 5 11 85 13 16 29 8 0 0 0 0 0 0 0 0 0 0
0 1 2 1 3 6 8 7 9 10 8 14 21 17 12 18 6 0 0 0 0 0 0 1 0 0 0 5 37 5 0 0 13 20 8 2 0 0 12 0 0 0 0 0 0 0 0
0 0 1 2 4 4 6 7 10 3 8 11 13 6 9 14 0 0 0 0 0 0 0 0 0 0 0 3 1 0 0 0 7 17 14 2 0 10 31 1 0 0 0 0 0 0 0
0 0 0 2 2 4 7 7 10 5 5 13 9 12 11 9 0 0 0 0 0 0 0 0 0 0 0 1 0 0 0 1 1 10 0 10 0 10 11 4 0 0 0 0 0 0 0
0 0 0 2 2 3 6 8 9 9 12 15 13 7 6 2 0 0 0 0 0 0 0 0 0 0 0 1 5 1 23 15 16 13 0 0 0 0 4 0 0 0 0 0 0 0 0
0 0 0 1 2 1 5 6 9 11 14 14 11 4 1 0 0 0 0 0 0 0 0 0 4 1 0 3 5 7 6 2 7 0 2 2 0 0 0 16 0 0 0 0 1 1 0
0 0 0 1 2 2 3 7 10 7 13 8 0 2 0 0 0 0 0 0 0 0 0 0 14 3 0 2 2 9 9 6 0 0 0 0 11 0 0 0 2 0 0 1 0 0 0
0 0 0 0 1 2 3 7 7 9 6 4 0 0 0 0 0 0 0 0 0 0 0 0 5 19 19 2 0 0 6 1 0 0 0 0 0 0 0 0 0 0 0 0 0 0 0
0 0 0 0 0 1 4 3 6 5 1 0 0 0 0 0 0 0 0 0 0 0 0 0 0 0 0 1 0 0 0 0 0 0 0 0 1 0 0 0 0 0 0 0 0 0 0
0 0 0 0 0 1 3 2 4 3 0 0 0 0 0 0 0 0 0 0 0 0 0 0 0 0 0 0 0 0 0 0 0 0 0 0 0 5 0 1 6 6 1 0 0 0 0
0 0 0 0 0 0 1 3 3 2 0 0 0 0 0 0 4 0 0 0 0 0 0 0 0 0 0 0 0 0 0 0 0 0 0 0 0 1 1 0 0 0 3 0 6 0 0
0 0 0 0 0 0 0 1 3 0 0 0 0 0 0 0 0 0 0 0 0 0 0 0 0 0 0 0 0 0 0 0 0 0 0 0 0 1 4 0 2 17 1 0 0 0 0
0 0 0 0 0 0 0 0 2 0 0 0 0 0 5 6 0 0 0 0 0 0 0 0 0 0 0 0 0 0 0 0 0 0 0 0 0 0 0 0 0 0 0 0 0 0 0
0 0 0 0 0 0 0 1 1 0 0 0 0 0 0 0 0 0 0 0 0 0 0 0 0 0 0 0 0 0 0 0 0 7 0 0 0 0 0 0 0 0 0 0 0 0 0
0 0 0 0 0 0 0 0 0 0 0 0 0 0 0 0 0 0 0 0 6 0 0 0 0 0 0 0 0 0 0 0 0 0 0 0 0 0 0 0 0 0 0 0 0 0 1
0 1 0 0 0 0 1 0 0 0 0 0 0 0 0 0 0 0 0 0 0 0 0 0 0 0 0 0 0 0 0 0 0 0 0 0 0 0 0 0 0 0 0 0 0 0 0
1 0 0 0 0 0 0 0 0 0 0 0 0 0 0 0 0 0 0 0 0 0 0 0 0 0 0 0 0 0 0 0 0 0 0 0 0 0 0 0 0 0 0 0 0 0 0
2 0 0 0 0 0 0 0 0 0 0 0 0 0 0 0 0 0 0 0 0 0 0 0 0 0 0 0 0 0 0 0 0 0 0 0 0 0 0 0 0 0 0 0 0 0 0
3 1 1 0 0 0 0 0 0 1 0 0 0 0 0 0 0 0 0 0 0 0 0 0 0 0 0 0 0 1 0 0 0 0 0 0 0 0 0 0 0 0 0 0 0 0 0
3 3 1 0 0 0 0 1 0 0 0 0 0 0 0 0 0 0 0 0 0 0 0 0 0 0 0 0 1 0 0 0 0 0 2 1 0 0 0 0 0 0 0 0 0 0 0
6 6 3 0 0 1 0 0 0 0 0 0 0 0 0 0 0 0 0 0 0 0 0 0 0 1 0 0 7 0 0 0 0 0 0 0 2 0 0 1 0 0 0 0 0 0 0
8 8 5 0 0 0 1 0 0 0 0 0 0 2 0 0 0 0 0 0 0 0 0 0 1 10 10 5 0 0 0 0 0 0 0 0 0 0 0 0 0 0 0 0 0 0 0

GFSGBSN_con_sbcape_063.txt.gz
CAPE
3 6 8 5 5 8 17 10 15 15 17 23 28 45 35 22 5 14 17 12 30 91 146 227 220 212 4 0 0 0 94 80 0 25 66 13 0 8 22 8 0 0 7 0 70 41 11
0 4 6 5 5 7 10 12 13 17 16 16 16 33 43 17 6 5 7 5 6 60 193 197 191 121 3 0 1 16 3 0 0 13 81 72 0 0 23 28 4 0 1 12 31 61 13
0 1 6 5 4 5 9 7 5 16 16 24 10 20 29 42 9 6 1 3 14 62 166 173 181 21 0 0 0 3 0 2 0 0 10 26 14 1 1 21 0 0 9 0 12 52 19
0 0 3 5 3 7 8 8 16 7 21 19 23 11 16 28 32 3 3 1 26 61 65 107 125 0 0 0 0 5 0 0 0 0 0 15 43 14 3 0 0 0 1 5 4 4 2
0 1 1 2 2 5 7 14 12 15 17 34 16 13 12 22 25 21 1 0 14 22 21 32 0 0 0 2 8 0 0 0 0 47 82 10 73 23 0 10 4 3 1 0 0 0 19
0 0 2 3 2 2 6 12 16 21 19 29 25 22 4 9 21 15 8 0 0 1 0 0 0 0 0 3 10 6 0 0 41 79 47 111 63 6 0 10 1 1 0 0 0 9 7
0 0 1 4 4 2 5 9 10 14 21 27 30 25 9 16 9 7 0 0 0 0 0 0 0 0 0 0 15 26 11 31 77 43 8 10 25 11 0 0 0 0 0 0 0 0 18
0 0 0 3 3 2 4 5 5 20 16 31 27 22 3 8 6 8 0 0 0 0 0 0 0 0 0 1 0 34 29 59 36 26 5 14 7 0 0 0 0 0 0 0 0 0 0
1 0 0 1 2 2 4 7 11 6 15 20 19 5 3 10 9 0 0 0 0 0 0 0 0 0 0 3 5 9 2 8 26 6 8 8 2 4 2 0 0 0 0 0 0 0 0
0 0 0 0 2 1 5 7 9 8 15 11 12 8 3 14 0 0 0 0 0 0 0 0 0 0 6 10 9 0 0 0 12 2 7 11 0 10 7 0 0 0 0 0 0 0 0
0 0 0 0 1 1 4 6 8 6 4 10 12 4 3 13 0 0 0 0 0 0 0 0 0 0 5 0 0 1 0 36 5 13 15 9 10 24 5 2 0 0 0 0 0 0 0
0 0 0 0 0 1 3 4 8 8 7 10 10 4 5 7 0 0 0 0 0 0 0 0 0 0 1 11 5 1 23 27 41 11 0 0 0 2 3 0 0 0 0 0 0 0 0
0 0 0 0 1 1 2 3 5 2 4 6 7 4 1 0 0 0 0 0 0 0 0 0 0 0 0 0 3 4 1 27 10 0 1 14 1 0 0 2 0 0 0 0 0 0 1
0 0 0 0 0 0 1 1 7 8 6 6 0 1 0 0 0 0 0 0 0 0 0 0 1 0 0 0 5 9 3 9 2 0 3 0 17 0 0 0 0 0 0 0 0 0 0
0 0 0 0 0 0 0 1 4 8 7 4 0 0 0 0 0 0 0 0 0 0 0 1 0 0 0 0 0 6 5 10 0 0 0 0 4 0 0 0 0 0 0 0 0 0 0
0 0 0 0 0 0 0 1 4 7 3 0 0 0 0 0 0 0 0 0 0 0 0 0 0 1 0 2 0 3 4 0 0 0 0 0 1 1 1 0 0 0 0 0 0 0 0
0 0 0 0 0 0 0 0 4 5 0 0 0 0 0 0 0 0 0 0 0 0 0 0 0 0 0 0 0 0 0 0 0 0 0 0 0 4 0 0 9 0 0 0 0 0 0
0 0 0 0 0 0 0 0 3 2 0 0 0 0 0 0 7 0 0 0 0 0 0 0 0 0 0 0 0 0 0 0 0 0 0 0 0 2 1 0 0 1 2 0 0 0 0
0 0 0 0 0 0 0 0 2 0 0 0 0 1 0 0 0 0 0 0 0 0 0 0 0 0 0 0 0 0 0 0 0 0 0 0 0 0 1 0 0 4 1 2 0 0 0
0 0 0 0 0 0 0 0 0 0 0 0 0 0 15 10 0 0 0 0 0 0 0 0 0 0 0 0 0 0 0 0 0 0 0 0 0 0 0 0 0 3 2 0 1 4 0
0 0 0 0 0 0 0 0 0 0 0 0 0 0 0 1 2 0 0 0 0 0 0 0 0 0 0 0 0 0 0 0 0 4 0 0 0 0 0 0 0 0 0 0 1 0 0
0 0 1 0 0 0 0 0 0 0 0 0 0 0 0 0 0 0 0 0 5 1 0 0 0 0 0 0 0 0 0 0 0 0 0 0 0 0 0 0 0 0 0 0 0 1 1
0 1 0 0 0 0 0 0 0 0 0 0 0 0 0 0 0 0 0 0 0 0 1 0 0 0 0 0 0 0 0 0 0 0 0 0 0 0 0 0 0 0 0 0 0 0 0
3 3 0 0 0 0 0 0 0 0 0 0 0 0 0 0 0 0 0 0 0 0 1 0 0 0 0 0 0 0 0 0 0 0 0 0 0 0 0 0 0 0 0 0 0 0 0
4 2 0 0 0 0 0 0 0 0 0 0 0 0 0 0 0 0 0 0 0 0 0 0 1 0 0 0 0 0 0 0 0 0 0 0 0 0 0 0 0 0 0 0 0 0 0
8 2 1 0 1 0 1 0 0 0 0 0 0 0 0 0 0 0 0 0 0 0 0 0 0 0 0 0 0 0 0 0 0 0 0 0 0 0 0 0 0 0 0 0 0 0 0
9 2 0 0 1 2 2 0 0 0 0 0 0 0 0 0 0 0 0 0 0 0 0 0 0 0 0 0 1 0 0 0 0 0 0 2 0 0 0 0 0 0 0 0 0 0 0
13 6 0 0 1 4 1 0 0 0 0 0 0 0 0 0 0 0 0 0 0 0 0 0 0 2 1 0 5 0 0 0 0 0 0 0 0 0 0 0 0 0 0 0 0 0 0
18 6 0 1 5 3 1 1 0 0 0 0 0 0 0 0 0 0 0 0 0 0 0 0 0 6 10 6 0 0 0 0 0 0 0 0 0 0 0 0 0 0 0 0 0 0 0

GFSGBSN_con_sbcape_066.txt.gz
CAPE
4 1 2 4 2 6 7 16 17 21 21 21 13 18 34 31 5 0 3 5 2 5 55 115 150 137 63 7 9 1 2 134 58 9 14 106 152 35 21 45 74 26 138 85 45 29 19
2 0 2 3 1 4 5 8 10 18 23 19 15 13 20 29 11 0 0 1 4 5 28 118 120 35 13 0 0 20 0 23 49 7 3 82 55 22 22 39 133 128 102 107 67 30 23
1 1 1 8 2 1 5 10 16 18 19 27 22 11 11 14 25 2 0 4 9 16 40 88 103 47 7 0 2 15 0 38 7 10 2 62 52 64 30 84 101 90 86 78 93 87 82
1 2 0 0 2 1 4 6 11 18 25 26 29 27 12 14 16 19 1 1 3 29 13 0 10 0 0 0 21 21 1 0 0 1 20 53 21 53 84 96 87 123 88 75 154 111 84
2 2 1 1 1 1 1 3 13 15 21 29 30 28 20 13 12 12 6 2 1 7 6 0 0 0 0 0 25 8 0 0 0 33 45 2 79 76 49 94 62 70 18 43 58 160 112
4 3 0 0 0 1 2 2 7 16 23 25 33 25 18 14 14 11 3 0 0 0 0 0 0 5 0 11 6 17 1 1 15 35 53 7 89 107 80 56 5 7 10 9 14 45 43
5 3 2 0 1 0 3 4 5 4 13 27 25 26 17 11 12 13 0 0 0 0 0 0 0 0 1 11 22 1 27 14 20 26 20 13 49 13 0 4 5 8 2 4 6 3 55
6 2 1 0 0 1 2 3 4 8 15 23 20 15 16 9 17 4 0 0 0 0 0 0 0 1 2 0 36 24 112 43 37 32 13 8 28 26 47 11 9 20 5 3 0 39 147
6 3 1 0 0 1 2 5 3 7 9 20 19 10 13 7 12 1 0 0 0 0 0 0 0 7 2 30 47 129 89 64 50 20 6 11 20 36 73 17 23 13 0 3 2 110 49
8 4 1 0 0 0 1 6 3 5 9 18 17 5 9 9 1 0 0 0 0 0 1 0 3 1 44 42 22 21 4 3 21 16 7 32 11 48 15 9 5 0 0 0 0 0 1
8 2 0 0 0 0 1 3 2 4 9 14 8 9 6 17 0 0 0 0 0 0 0 0 1 0 14 11 8 25 18 5 12 14 3 22 17 38 44 14 7 1 0 0 0 0 0
10 2 0 0 0 0 1 2 2 3 5 6 8 8 6 4 1 0 0 0 0 1 0 2 2 0 20 11 2 14 42 5 5 0 6 10 1 28 21 0 0 0 0 0 0 3 1
7 1 0 0 0 0 0 0 2 4 5 6 7 5 2 0 3 0 0 0 3 0 0 3 1 1 14 5 5 11 12 1 4 5 1 30 19 4 0 0 0 8 7 16 11 21 2
6 2 0 0 0 0 0 0 2 3 4 2 0 1 2 0 0 0 0 0 0 0 0 0 0 1 11 7 8 7 19 8 4 9 52 33 83 46 0 19 11 30 23 5 1 1 1
6 2 0 0 0 0 0 0 1 2 4 0 0 0 4 0 0 0 0 0 1 0 0 3 1 6 14 5 15 6 15 9 8 17 27 15 13 2 0 0 5 12 21 0 0 0 0
5 3 0 0 0 0 0 0 1 1 0 0 0 0 6 0 0 0 3 0 0 0 0 0 9 4 1 6 11 9 20 14 7 0 0 0 12 1 0 1 1 17 0 9 11 0 0
6 3 0 0 0 0 0 0 0 0 0 0 0 8 3 0 0 5 6 0 0 0 0 0 0 0 1 0 7 2 9 1 4 0 0 0 0 14 17 18 29 17 13 7 8 1 5
8 7 3 0 0 0 0 0 0 0 0 0 0 6 1 0 13 7 4 0 0 0 0 0 0 0 1 0 2 3 6 5 0 0 0 0 1 2 21 0 0 24 26 19 28 5 0
10 4 3 0 0 0 0 0 0 0 0 0 4 5 1 0 1 1 0 0 0 0 0 0 0 0 0 6 0 0 0 0 1 0 0 0 0 6 3 0 0 0 6 10 6 0 4
10 7 2 0 0 0 0 0 0 0 0 0 0 3 29 17 7 1 0 0 0 0 0 0 0 0 0 0 0 0 0 0 0 0 0 0 0 0 0 0 0 0 0 5 10 29 2
14 7 1 0 0 0 0 0 0 0 1 0 0 0 0 8 10 0 0 0 0 0 0 0 0 0 0 0 0 0 0 0 0 1 0 0 0 0 0 0 0 0 0 0 6 0 11
13 9 4 0 0 0 0 0 0 0 0 0 0 0 0 0 0 0 0 0 8 8 3 0 0 0 0 0 0 0 0 0 0 0 0 0 0 0 0 0 0 0 0 0 0 1 5
19 10 4 0 0 0 0 0 0 0 0 0 0 0 0 0 0 0 0 0 1 3 5 1 0 0 0 0 0 0 0 0 0 0 0 0 0 0 2 0 0 0 0 0 0 0 0
18 12 4 0 1 0 0 0 0 0 0 0 0 0 0 0 0 0 0 0 0 0 14 5 11 0 0 0 0 0 0 0 0 0 0 0 0 0 0 0 0 0 0 0 0 0 0
21 12 3 2 1 0 0 0 0 0 0 0 0 0 0 0 0 0 0 0 0 0 0 0 1 0 0 0 2 5 1 0 0 0 0 0 0 0 1 0 0 0 0 0 0 0 0
23 14 7 2 0 0 0 0 0 0 0 0 0 0 0 0 0 0 0 0 0 0 0 0 0 0 0 8 11 25 11 0 0 0 0 0 0 1 0 0 0 0 0 0 0 3 0
26 17 3 3 2 1 0 0 0 0 0 0 0 0 0 0 0 0 0 0 0 0 0 0 0 0 0 11 51 16 2 0 0 4 7 8 6 18 9 7 0 0 0 0 0 7 0
30 16 7 7 7 2 0 0 0 0 0 0 1 0 0 0 0 0 0 0 0 0 0 0 1 3 4 30 34 14 0 0 0 0 0 4 25 12 16 17 1 0 0 8 0 0 0
28 17 15 14 11 2 1 0 0 0 0 0 0 0 0 0 1 0 0 0 0 0 0 0 1 6 12 6 1 0 0 0 0 8 0 1 0 3 1 5 0 0 0 0 0 0 0

GFSGBSN_con_sbcape_069.txt.gz
CAPE
9 3 0 1 4 7 5 5 3 3 8 12 24 22 16 21 43 15 1 6 7 4 3 10 62 62 42 22 6 1 0 255 73 46 60 129 154 108 16 44 108 185 109 176 59 26 11
7 4 1 1 0 5 7 10 4 4 16 18 23 25 17 18 21 31 4 5 7 13 11 29 61 18 34 8 0 5 0 37 59 35 35 87 104 69 7 82 170 66 4 120 85 79 40
7 5 2 1 0 1 4 6 6 6 16 18 26 29 31 20 14 27 29 7 8 22 15 5 16 10 12 0 0 38 0 9 80 37 4 4 87 87 37 64 151 6 0 0 12 57 43
10 5 4 3 1 0 1 3 4 8 15 18 23 28 32 20 15 22 15 25 5 8 16 0 0 3 12 0 1 23 26 5 39 69 0 1 11 187 115 76 106 40 2 11 15 42 135
14 6 4 3 2 1 1 2 3 8 20 24 25 28 25 19 21 19 9 8 12 4 0 0 13 15 11 0 15 41 14 26 53 50 21 20 25 73 135 104 68 74 43 50 14 1 68
16 5 5 2 2 1 1 2 2 7 9 12 17 24 21 21 19 16 7 1 0 0 0 1 3 15 0 0 0 22 21 28 29 65 39 10 31 98 79 85 29 11 17 32 47 9 44
4 10 7 2 1 2 1 1 1 7 11 13 24 20 14 19 15 19 2 0 0 0 0 2 22 23 23 0 7 3 24 55 45 28 5 3 18 39 17 4 5 0 2 29 79 59 74
47 12 6 3 2 2 0 2 1 5 8 13 18 18 14 14 16 18 2 0 0 0 0 0 2 24 22 4 11 6 26 36 36 44 4 3 39 10 20 26 17 32 60 52 13 23 19
86 5 4 7 1 2 1 1 2 4 5 6 16 17 13 11 7 11 3 0 0 0 7 1 0 33 19 58 34 67 34 63 52 27 10 10 23 9 33 15 8 24 21 13 8 16 76
45 3 5 6 2 1 0 1 2 2 3 9 16 6 14 2 0 1 0 0 0 0 6 5 6 31 84 132 51 94 62 5 28 32 43 15 23 43 29 14 11 20 13 23 42 74 12
35 2 6 6 2 1 0 1 1 1 2 5 5 4 14 3 7 0 0 0 0 0 8 0 3 1 43 54 9 65 90 22 19 23 18 49 29 38 33 30 25 22 5 35 15 25 2
21 8 7 4 1 0 0 1 1 0 1 3 7 5 8 2 9 1 0 0 3 7 1 0 2 2 5 12 32 58 31 15 5 3 5 16 4 41 45 22 1 1 1 0 0 0 3
33 4 7 3 0 0 0 0 0 0 0 2 3 7 5 3 1 0 0 5 7 25 0 6 4 8 10 5 9 18 6 10 4 13 4 22 22 8 13 41 3 7 10 22 10 11 6
43 2 7 4 0 0 0 0 0 0 0 0 1 3 1 2 0 0 3 1 7 0 5 10 4 14 26 22 18 11 15 23 4 1 21 61 55 31 8 11 2 15 9 7 4 7 6
54 1 5 4 0 0 0 0 0 0 0 0 3 10 9 1 0 0 4 2 3 4 6 14 5 34 22 25 17 21 8 4 0 0 34 37 15 12 0 0 10 32 15 0 1 0 0
57 1 6 4 0 0 0 0 0 0 0 0 6 11 7 1 0 14 5 0 1 0 2 14 21 15 8 20 10 8 6 0 1 6 0 3 3 1 0 6 17 33 26 11 10 0 0
35 1 7 5 2 1 0 0 0 0 0 0 11 3 15 0 0 20 11 7 1 0 0 14 9 8 7 10 7 6 11 2 10 2 0 4 0 8 17 24 30 23 5 13 14 15 9
24 0 8 9 6 1 0 0 0 0 0 0 8 5 5 0 30 23 7 0 0 5 0 0 0 11 16 10 3 16 9 12 11 0 0 0 6 8 3 4 1 4 26 24 32 14 1
29 3 13 12 6 2 0 0 0 0 0 0 7 4 4 2 3 0 7 0 1 1 1 0 3 0 0 9 18 9 11 0 16 1 0 0 9 10 13 3 0 0 1 4 13 24 24
34 4 18 14 9 2 0 0 0 0 0 0 5 6 29 22 14 6 5 8 12 0 0 0 0 0 0 12 0 1 10 5 6 2 0 0 1 2 15 5 0 0 0 4 22 32 3
31 7 20 12 11 3 0 0 0 0 0 0 0 2 1 12 4 4 2 9 10 7 0 0 0 4 15 14 6 4 0 11 12 1 2 7 18 0 0 0 0 0 0 2 14 1 23
24 7 21 14 12 3 0 0 0 0 0 0 0 0 0 2 0 5 3 7 11 22 2 0 0 0 0 14 9 12 8 16 5 0 15 3 2 0 0 0 0 0 0 0 0 1 6
20 17 22 16 11 3 0 0 0 2 0 0 0 0 0 0 4 6 5 11 12 26 16 6 0 0 0 0 0 0 0 1 4 16 19 24 6 0 18 0 0 0 0 0 0 0 1
7 19 20 16 9 3 0 0 0 4 0 0 0 0 0 0 0 1 0 0 1 11 31 29 23 16 1 0 0 0 0 0 0 1 12 24 21 12 5 0 2 0 0 0 0 0 0
28 81 20 15 10 5 0 0 0 1 0 0 0 0 0 0 0 0 0 0 0 0 25 41 5 0 0 0 7 12 13 3 0 0 0 13 20 13 18 10 0 0 0 0 0 0 0
28 48 24 20 12 5 2 0 0 0 0 0 0 0 0 0 0 0 0 0 1 22 15 0 0 0 1 22 42 12 33 17 7 1 0 0 11 10 6 6 0 1 0 0 0 8 1
31 38 24 22 17 11 0 0 0 0 0 0 0 0 0 0 0 0 0 0 0 0 14 0 0 2 0 36 47 32 19 0 7 6 3 10 14 18 16 7 4 0 0 0 0 0 0
24 39 32 23 18 10 0 0 0 0 0 0 0 0 0 0 1 0 0 0 0 0 10 0 5 2 3 18 20 24 12 2 0 7 8 5 12 21 22 34 7 0 0 6 0 0 0
66 35 35 34 23 4 2 1 0 0 0 0 0 0 0 0 1 0 0 0 0 0 0 0 1 3 4 5 1 3 0 0 6 12 0 13 13 6 6 5 0 0 0 0 0 0 0

GFSGBSN_con_sbcape_072.txt.gz
CAPE
14 15 5 2 1 1 1 0 5 8 13 14 20 29 41 24 14 13 42 3 5 12 14 13 36 59 11 17 23 15 0 342 292 43 4 41 132 128 82 11 44 11 1 8 80 51 49
53 27 17 3 1 1 2 0 2 10 15 12 19 26 39 34 27 13 31 33 8 11 15 32 20 29 11 1 0 0 0 23 67 45 0 31 117 107 83 5 40 0 9 106 26 46 27
67 45 17 5 2 1 1 0 1 5 15 13 17 24 37 34 34 19 16 28 28 8 9 39 7 2 12 1 0 1 10 5 34 20 19 9 2 105 69 1 36 3 1 24 1 13 12
90 74 30 7 3 1 1 0 0 3 13 18 16 21 25 30 33 26 16 15 8 15 9 25 3 2 6 0 0 13 20 3 60 24 0 18 0 22 63 46 59 37 32 29 53 11 0
78 120 81 6 4 2 1 1 0 2 10 10 8 13 19 19 25 23 9 11 2 5 1 3 1 21 3 0 15 12 12 12 57 21 8 3 1 48 87 60 47 65 3 3 5 12 28
81 116 48 6 3 3 2 1 1 2 10 11 10 16 11 17 23 11 20 0 0 0 0 0 4 9 0 1 2 0 0 7 46 12 19 0 40 53 64 41 38 10 17 0 0 0 0
76 121 58 15 4 4 2 0 0 2 7 9 8 8 8 18 9 7 6 0 0 0 0 0 6 23 52 3 2 0 0 8 37 14 3 4 11 13 7 0 0 0 1 0 0 9 0
109 88 78 46 4 6 1 1 0 2 6 7 4 9 11 7 14 16 0 0 0 0 0 6 1 30 21 0 16 0 2 12 21 11 8 11 6 1 22 27 47 14 2 19 3 5 0
15 105 85 58 5 8 2 1 0 1 5 4 3 3 10 17 12 2 0 0 0 0 0 8 7 5 7 55 3 7 13 9 11 9 6 4 16 2 7 39 15 12 21 11 0 5 28
23 3 104 64 5 8 3 0 0 0 3 1 0 4 6 12 0 3 0 0 0 0 4 11 6 21 66 65 51 29 8 3 19 22 3 9 13 7 0 22 30 20 14 20 17 6 4
44 16 28 55 2 9 5 0 1 0 0 0 0 0 5 18 0 0 0 0 0 0 1 0 1 2 38 30 10 17 60 22 31 33 0 10 12 18 13 28 42 35 20 18 27 51 7
76 41 12 64 0 9 5 1 1 0 0 0 0 0 10 2 3 1 0 0 0 1 0 0 2 3 6 29 31 53 49 44 39 1 0 2 8 8 0 10 4 2 24 4 0 0 0
87 35 44 26 1 8 7 1 1 0 0 0 0 1 2 3 3 0 0 2 7 2 0 0 2 1 1 4 11 15 5 0 1 0 1 10 15 5 0 3 13 11 7 0 0 0 0
131 73 44 9 2 7 9 1 2 0 0 0 0 1 1 0 0 0 7 4 0 0 0 1 5 1 0 2 0 4 2 2 0 0 2 10 7 11 0 7 1 11 4 5 0 0 0
166 77 51 3 3 7 10 5 2 1 0 0 2 0 2 1 0 0 10 1 2 1 0 0 5 1 1 0 13 1 1 6 0 0 15 18 12 2 0 0 2 4 6 0 0 0 0
88 96 62 11 6 8 12 12 2 1 0 0 0 5 6 0 0 11 10 0 0 2 9 1 13 12 1 0 0 8 0 0 0 0 0 4 2 4 0 3 6 7 0 0 0 0 0
152 106 59 19 32 10 12 15 6 2 0 0 1 3 5 0 0 18 1 0 4 0 4 14 9 9 6 0 0 1 4 0 3 0 0 1 0 7 0 7 3 4 0 0 0 0 1
74 3 73 34 73 9 13 19 17 3 0 0 4 13 18 0 19 20 5 4 0 0 0 0 0 7 11 11 3 3 0 3 0 0 0 0 0 0 3 2 0 1 3 3 0 0 0
42 55 47 24 23 11 14 22 26 3 0 0 3 4 2 11 4 2 1 3 3 4 1 0 1 0 0 11 7 5 5 4 6 0 1 0 0 0 0 0 0 0 1 4 0 0 0
56 62 39 16 7 12 12 24 26 3 0 0 0 6 30 27 0 1 0 1 8 0 3 0 1 0 0 0 1 1 3 0 9 2 0 0 2 0 0 0 0 0 0 0 2 0 0
40 44 27 24 25 14 12 18 24 5 0 0 0 0 0 6 4 0 2 6 2 0 0 0 0 1 2 14 7 4 2 5 10 0 0 0 0 0 0 0 0 0 0 0 0 0 0
48 39 23 20 38 17 13 18 21 5 0 0 0 0 0 0 0 0 0 2 5 11 0 0 0 1 0 11 1 9 0 0 3 0 0 0 0 0 0 0 0 0 0 0 0 0 0
40 49 22 23 28 16 13 17 26 6 1 0 0 0 0 0 0 0 0 3 7 10 3 10 3 0 0 0 0 0 0 0 3 0 1 12 0 0 0 0 0 0 0 0 0 0 0
37 53 32 24 26 15 14 19 16 1 0 0 0 0 0 0 0 0 0 3 14 3 7 15 13 1 0 0 0 0 0 0 0 1 3 17 1 0 0 0 0 0 0 0 0 0 0
38 54 23 30 36 20 18 20 2 4 0 0 0 0 0 0 0 0 0 0 0 0 23 1 0 0 0 0 0 0 0 0 1 0 0 1 4 6 0 0 0 0 0 0 0 0 0
41 29 27 23 18 26 28 20 1 8 2 0 0 0 0 0 0 0 0 0 0 3 0 0 0 0 0 0 5 2 0 0 0 0 0 0 1 1 0 0 0 0 0 0 0 0 0
32 18 30 1 37 18 24 22 0 8 2 0 0 0 0 0 0 0 0 0 0 0 2 0 0 1 0 3 13 3 8 0 0 0 0 0 0 0 3 6 0 0 0 0 0 0 0
15 35 21 15 18 14 19 6 0 10 0 0 0 0 0 0 0 0 0 0 0 0 0 0 0 0 0 7 7 0 1 0 0 1 0 0 0 4 6 18 2 0 0 0 0 0 0
24 30 26 36 27 21 15 13 2 0 0 0 0 0 0 0 0 0 0 0 0 0 0 0 0 0 1 0 0 0 0 0 0 1 0 5 0 11 0 0 0 0 0 0 0 0 0

GFSGBSN_con_sbcape_075.txt.gz
CAPE
115 83 72 26 5 1 0 0 0 1 4 9 12 20 20 34 32 32 16 25 33 7 12 20 24 7 0 0 0 7 2 265 171 59 12 22 72 203 85 67 152 146 74 46 24 100 29
196 110 84 79 7 1 0 0 0 0 3 9 10 17 24 26 33 29 23 13 24 26 8 18 43 9 6 1 0 0 0 65 49 44 1 21 61 65 136 55 97 19 0 12 41 63 37
154 158 112 117 20 4 1 0 0 0 2 7 10 20 19 20 27 29 26 11 18 17 25 15 49 7 10 0 0 0 0 73 9 43 21 10 1 24 78 62 9 23 10 3 57 4 20
143 152 134 123 134 7 1 1 0 0 1 5 4 8 15 19 17 12 15 6 11 7 12 34 35 7 1 0 0 0 11 47 26 1 6 0 0 6 50 13 59 16 11 1 17 11 0
76 134 141 123 174 7 2 1 0 0 1 3 6 6 19 11 11 12 9 4 7 4 7 8 1 12 7 0 4 0 0 25 50 1 0 0 0 38 54 36 63 14 2 3 7 51 59
16 88 66 126 146 43 3 4 3 0 1 3 5 10 10 9 10 9 8 1 0 2 0 0 0 6 2 13 15 2 0 0 50 16 7 5 33 51 45 50 28 31 0 1 2 12 39
10 31 55 22 118 93 6 7 5 0 1 2 3 7 7 8 9 8 1 0 0 0 0 0 3 12 6 0 2 4 0 20 15 2 8 0 2 13 0 5 1 2 15 0 0 30 11
41 34 26 38 17 63 27 8 6 0 1 3 4 2 2 4 9 4 0 0 0 0 0 0 3 2 1 0 0 4 1 12 13 13 0 1 10 0 24 14 30 16 0 15 23 1 12
41 50 43 27 30 14 36 9 8 3 1 3 1 1 5 0 0 0 0 0 0 0 0 3 2 0 0 1 0 0 0 13 12 10 17 0 1 1 2 11 4 0 0 2 6 41 19
51 58 67 43 32 27 24 7 9 7 0 1 0 0 2 0 0 0 0 0 0 0 0 7 9 1 35 9 4 13 4 5 7 4 21 5 9 3 0 0 0 0 2 31 32 0 0
63 50 102 63 57 40 23 4 10 8 3 1 0 0 0 1 0 0 0 0 0 0 0 0 1 0 19 0 0 0 9 15 12 26 2 7 44 29 30 8 0 0 0 6 3 12 1
36 40 113 109 55 76 18 38 10 10 4 0 0 0 2 0 0 0 0 0 0 0 0 0 4 9 5 4 0 0 14 0 7 0 4 15 5 0 0 0 2 0 0 0 0 0 0
92 82 94 90 86 68 26 49 8 11 4 0 0 0 1 0 0 0 0 0 0 0 0 0 15 7 5 1 4 1 0 0 0 0 0 0 0 0 0 0 0 0 0 0 0 0 0
107 113 76 55 98 101 27 52 9 15 3 2 0 1 0 0 0 0 0 0 0 0 0 0 1 5 0 1 0 2 0 0 0 0 0 0 0 0 0 0 0 0 0 0 0 0 0
110 149 68 62 91 105 60 67 13 17 5 0 2 0 0 0 0 0 1 0 1 0 0 1 4 7 0 0 4 4 1 0 0 0 0 1 0 0 0 0 0 0 0 0 0 0 0
140 121 66 74 121 64 33 51 16 18 2 0 0 0 3 0 0 0 4 0 0 0 3 0 2 0 4 0 0 7 0 0 0 0 0 0 2 0 0 1 0 0 0 0 0 0 0
95 73 146 86 56 101 34 55 21 23 9 4 0 1 0 0 0 8 0 0 1 0 0 0 0 11 0 0 0 0 5 0 0 0 0 0 0 0 0 0 0 0 0 0 0 0 0
217 99 142 73 49 73 60 13 32 14 2 11 0 2 0 0 1 0 0 0 0 0 0 0 0 0 0 0 0 2 0 1 0 0 0 0 0 0 0 0 0 0 0 0 0 0 0
91 71 148 78 20 88 7 16 33 18 3 0 0 4 0 4 0 0 0 3 0 1 0 0 0 0 0 0 1 13 1 0 0 0 0 0 0 0 2 0 0 0 0 0 0 0 0
75 97 135 73 65 71 69 15 33 17 0 0 0 4 16 13 0 0 0 0 0 0 8 0 0 0 0 0 1 0 1 0 6 0 0 0 0 0 0 0 0 0 0 0 0 0 0
150 157 110 75 38 56 18 28 29 17 0 1 0 0 0 4 0 0 0 1 13 5 0 0 0 0 0 0 0 5 1 8 10 0 0 0 0 0 0 0 0 0 0 0 0 0 0
270 152 130 79 43 34 10 60 29 14 0 0 0 0 0 0 0 0 0 0 0 5 0 0 0 0 5 0 0 0 0 0 6 0 0 0 0 0 0 0 0 0 0 0 0 0 0
218 154 100 79 52 42 22 33 20 19 14 0 0 0 0 0 0 0 0 0 2 4 1 0 0 0 0 0 0 0 0 0 1 0 0 0 0 0 0 0 0 0 0 0 0 0 0
165 119 73 83 54 67 18 18 23 40 4 0 0 0 0 0 0 0 0 0 5 4 0 0 0 0 0 0 0 0 0 0 0 0 7 2 0 0 1 0 0 0 0 0 0 0 0
90 84 83 70 50 45 39 46 33 38 8 0 0 0 0 0 0 0 0 0 0 0 0 0 0 0 0 0 0 0 0 0 0 0 0 11 9 10 0 0 0 0 0 0 0 0 0
81 84 57 56 31 23 10 63 34 48 25 0 0 0 0 0 0 0 0 0 0 0 0 0 0 0 0 0 0 0 0 0 0 0 0 0 4 0 0 0 0 0 0 0 0 0 0
68 65 36 22 23 9 35 56 27 35 50 0 0 0 0 0 0 0 0 0 0 0 0 0 0 0 0 0 0 0 0 0 0 0 0 0 0 1 0 0 0 0 0 0 0 0 0
63 41 53 31 14 33 35 34 13 14 61 0 0 0 0 0 0 0 0 0 0 0 0 0 0 0 0 0 0 0 0 0 0 0 0 0 0 0 0 3 0 0 0 0 0 0 0
58 40 52 21 41 16 36 25 13 25 23 0 0 0 0 0 0 0 0 0 0 0 0 0 0 0 0 0 0 0 0 0 0 0 0 0 0 0 0 0 0 0 0 0 0 0 0

GFSGBSN_con_sbcape_078.txt.gz
CAPE
114 139 162 171 139 114 8 5 1 1 3 8 2 8 13 26 24 28 36 25 12 32 27 6 23 35 0 0 0 0 3 103 97 57 9 0 0 70 55 25 120 40 70 55 43 130 70
9 30 105 169 156 136 111 10 4 1 2 4 3 6 12 14 22 21 31 29 8 16 35 26 6 29 1 1 0 0 0 24 67 63 23 44 73 77 90 80 88 88 107 128 39 65 39
7 9 19 92 116 147 146 18 6 4 1 3 7 3 3 6 21 17 13 18 6 9 20 20 39 19 0 0 0 0 0 19 0 32 0 3 0 1 35 72 68 41 7 46 112 72 7
13 6 9 27 42 32 44 61 8 6 3 4 5 3 1 7 16 8 10 5 3 2 6 8 44 11 1 0 0 5 0 16 6 0 0 0 0 1 27 11 48 135 0 10 3 18 6
14 14 10 16 18 36 15 86 5 5 7 6 3 7 1 3 12 6 7 10 8 7 7 7 5 7 3 0 14 10 2 2 46 3 1 0 0 23 0 10 39 18 4 2 1 1 45
26 18 20 24 31 16 26 31 41 6 8 8 7 6 0 0 5 4 4 3 0 1 0 0 0 6 1 22 5 23 0 0 22 20 7 13 2 22 12 7 19 9 0 1 4 4 29
40 44 23 23 32 55 31 43 24 17 9 8 4 0 0 0 5 1 0 0 0 0 0 0 0 5 12 0 0 10 0 5 29 23 5 5 6 0 0 1 2 0 0 0 0 0 7
36 32 46 55 26 34 54 44 37 39 10 11 5 2 0 0 0 0 0 0 0 0 0 0 0 0 0 0 0 0 3 9 13 22 1 6 10 0 0 1 10 26 13 26 2 0 16
37 28 54 61 47 43 38 56 53 24 9 11 7 7 0 0 0 0 0 0 0 0 0 0 0 0 0 0 0 1 15 16 15 6 3 0 2 6 22 1 10 3 0 0 50 32 36
39 39 34 48 72 56 85 68 44 46 11 9 13 3 0 0 0 0 0 0 0 0 0 0 0 0 0 0 0 7 0 15 4 21 18 0 0 0 9 4 5 8 0 0 0 7 7
33 33 35 36 45 56 47 78 72 33 44 12 11 4 0 0 0 0 0 0 0 0 0 0 0 0 9 0 0 0 16 5 35 6 0 10 3 20 3 4 0 0 0 2 0 1 0
47 48 57 39 48 59 54 38 31 66 44 11 14 4 0 1 0 0 0 0 0 0 0 0 0 0 0 4 1 0 1 0 2 3 7 14 2 0 0 0 0 1 23 5 0 0 1
69 74 34 62 70 82 58 38 90 89 55 13 10 1 0 0 0 0 0 0 0 0 0 0 0 1 0 0 0 0 0 0 0 0 0 0 0 0 0 0 0 0 0 0 0 0 0
49 83 73 74 105 101 20 52 71 70 59 18 11 0 0 0 0 0 0 0 0 0 0 0 0 0 0 0 0 0 0 0 0 0 0 0 1 0 0 0 0 0 0 0 0 0 0
96 109 103 117 152 152 108 51 103 59 47 21 16 0 0 0 0 0 0 0 0 0 0 1 0 0 0 0 0 0 0 0 0 0 0 0 0 0 0 0 0 0 0 0 0 0 0
97 108 139 151 169 107 77 23 37 52 8 26 0 0 0 0 0 0 0 0 0 0 0 2 0 0 0 0 0 0 0 0 0 0 0 0 0 0 0 0 0 0 0 0 0 0 0
87 110 186 139 166 56 65 11 50 55 22 42 11 1 1 0 0 11 0 0 0 0 3 0 8 0 0 0 0 0 0 0 0 0 0 0 0 0 0 0 0 0 0 0 0 0 0
100 128 206 280 246 103 75 14 49 41 40 50 29 2 2 0 1 6 1 0 0 0 0 0 0 1 0 0 0 0 0 0 0 0 0 0 0 0 0 0 0 0 0 0 0 0 0
79 114 248 385 277 153 102 19 54 69 16 4 22 7 2 8 4 3 0 0 2 0 0 0 0 2 0 0 0 2 0 0 0 0 0 0 0 0 0 0 0 0 0 0 0 0 0
122 169 268 370 240 163 79 27 71 66 25 7 10 1 12 24 0 0 0 1 1 0 0 0 0 0 1 3 0 0 5 1 0 0 0 0 0 0 0 0 0 0 0 0 0 0 0
147 221 185 184 174 120 65 39 41 33 8 6 4 3 0 5 5 0 0 0 6 3 0 0 0 0 0 0 0 0 3 11 8 0 0 0 0 0 0 0 0 0 0 0 0 0 0
142 203 151 142 125 95 30 45 8 61 38 7 14 0 0 0 0 0 0 0 2 0 0 0 0 0 0 0 0 0 0 4 1 0 0 0 0 0 0 0 0 0 0 0 0 0 0
119 175 125 97 94 76 47 26 20 62 33 1 0 0 0 0 0 0 0 0 12 0 0 0 0 0 0 0 0 0 0 0 0 0 0 0 0 0 0 0 0 0 0 0 0 0 0
151 123 107 119 104 84 63 32 18 32 22 0 0 0 0 0 0 0 0 0 5 0 0 0 0 0 0 0 0 0 0 0 0 0 0 0 0 0 0 0 0 0 0 0 0 0 0
95 111 103 98 62 73 43 39 61 36 42 0 0 0 0 0 0 0 0 0 2 1 0 0 0 0 0 0 0 0 0 0 0 0 0 0 0 1 0 0 0 0 0 0 0 0 0
101 118 96 76 77 24 21 14 6 40 45 2 0 0 0 0 0 0 0 0 0 0 0 0 0 0 0 0 0 0 0 0 0 0 0 0 0 0 0 0 0 0 0 0 0 0 0
90 92 75 62 47 27 26 7 26 24 35 0 0 0 0 0 0 0 0 0 0 0 0 0 0 0 0 0 0 0 0 0 0 0 0 0 1 0 0 0 0 0 0 0 0 0 0
82 80 64 54 45 46 17 48 42 52 43 0 0 0 0 0 0 0 0 0 0 0 0 0 0 0 0 0 0 0 0 0 0 0 0 0 0 0 0 0 0 0 0 0 0 0 0
61 62 64 65 28 24 17 81 40 6 4 0 0 0 0 0 0 0 0 0 0 0 0 0 0 0 0 0 0 0 0 0 0 0 0 0 0 0 0 0 0 0 0 0 0 0 0

GFSGBSN_con_sbcape_081.txt.gz
CAPE
13 11 11 11 6 4 28 79 70 13 10 11 10 6 9 9 37 15 12 21 27 21 29 48 11 15 0 0 0 0 0 5 63 72 17 9 0 0 45 40 105 27 0 4 0 100 160
10 9 9 13 12 8 2 7 16 59 10 13 8 6 3 12 11 17 11 6 21 19 27 47 36 20 2 0 0 0 0 4 48 31 16 3 2 14 69 30 36 2 0 0 0 49 30
15 12 13 9 13 15 8 3 5 10 12 16 13 7 6 7 11 25 14 9 9 15 21 20 21 26 0 0 0 0 0 20 8 13 9 42 7 9 126 74 66 54 5 0 82 80 5
24 30 23 17 11 13 17 21 9 8 66 17 18 12 11 3 16 10 17 10 4 5 5 12 25 2 1 0 0 1 0 1 9 16 6 17 11 19 74 22 85 103 5 2 14 24 2
43 28 29 34 24 23 17 20 20 4 13 33 15 14 20 5 11 3 8 9 5 3 5 16 3 7 1 0 6 20 18 0 0 22 0 10 19 23 29 54 44 15 0 2 8 0 0
29 28 44 65 53 28 24 23 35 27 21 10 13 16 15 10 1 6 0 4 0 2 2 2 0 3 0 16 0 15 8 0 1 40 30 23 34 1 0 4 22 58 0 2 5 27 2
41 33 41 62 64 63 38 26 24 29 46 29 15 10 15 0 0 10 0 0 0 0 0 0 0 0 0 0 0 0 0 0 6 33 15 11 0 1 7 0 0 0 0 4 8 6 3
46 39 58 69 58 69 68 31 23 42 56 58 16 10 15 0 0 7 0 0 0 0 0 0 0 0 0 0 0 0 1 4 15 19 19 19 0 1 0 0 3 6 3 4 16 5 4
41 28 35 45 52 79 65 64 30 26 65 60 31 11 11 7 0 1 0 0 0 0 0 0 0 0 0 0 0 0 0 5 12 5 10 2 12 6 4 1 4 7 0 0 6 6 8
41 36 28 33 27 35 29 49 55 18 41 38 67 11 12 3 0 0 0 0 0 0 0 0 0 0 0 0 1 0 0 7 8 2 9 7 1 4 2 1 1 6 4 0 1 0 15
30 38 27 29 37 30 32 46 59 23 35 3 12 11 7 7 0 0 0 0 0 0 0 0 0 0 0 0 0 0 3 10 30 18 4 6 0 3 4 8 2 0 0 0 0 2 8
36 43 42 33 43 45 36 35 70 67 66 30 69 10 18 12 0 0 0 0 0 0 0 0 0 0 0 0 0 0 6 0 3 4 7 4 3 9 13 0 0 3 1 0 0 1 0
52 46 60 39 62 76 115 83 109 100 54 68 49 12 18 0 0 0 0 0 0 0 0 0 0 0 0 0 0 0 0 0 0 0 0 3 2 0 0 3 0 5 0 0 0 0 0
61 53 51 62 63 91 139 109 72 107 59 19 9 23 20 0 0 0 0 0 0 0 0 0 0 0 0 0 0 0 0 0 0 0 0 0 1 0 0 0 3 0 0 0 0 0 0
80 66 68 54 56 78 103 174 142 100 27 0 17 7 27 0 0 0 0 0 0 0 0 0 0 0 0 0 0 0 0 0 0 0 0 0 0 0 0 0 0 0 0 0 0 0 0
73 107 93 63 60 101 121 146 121 97 71 14 0 17 21 0 0 0 0 0 0 0 0 0 0 0 0 0 0 0 0 0 0 0 0 0 0 0 0 0 0 0 0 0 0 0 0
87 86 87 90 189 241 113 109 120 130 71 59 17 23 23 0 2 11 0 0 0 0 0 0 0 0 0 0 0 0 0 0 0 0 0 0 0 0 0 0 0 0 0 0 0 0 0
75 65 125 194 264 176 135 133 120 110 44 51 41 2 9 0 3 4 0 0 0 0 0 0 0 0 0 0 0 0 0 0 0 0 0 0 0 0 0 0 0 0 0 0 0 0 0
83 75 155 196 242 157 120 114 107 68 26 57 20 11 14 17 2 4 0 0 0 0 0 0 1 0 0 0 0 0 0 0 0 0 0 0 0 0 0 0 0 0 0 0 0 0 0
79 95 152 206 293 203 106 88 87 28 28 52 18 2 22 23 3 0 0 0 2 0 0 0 0 0 1 0 0 0 0 1 0 0 0 0 0 0 0 0 0 0 0 0 0 0 0
79 119 166 178 211 198 172 82 49 30 39 21 16 2 3 2 4 0 0 0 2 4 2 0 0 2 1 0 0 0 3 11 0 0 0 0 0 0 0 0 0 0 0 0 0 0 0
92 129 136 154 168 119 119 70 15 44 31 52 8 6 10 2 1 0 0 0 5 0 0 0 0 0 0 0 0 0 0 4 0 0 0 0 0 0 0 0 0 0 0 0 0 0 0
109 117 127 170 134 101 129 65 76 26 29 11 1 0 1 1 1 0 0 0 4 0 0 0 0 0 0 0 0 0 0 0 0 0 0 0 0 0 0 0 0 0 0 0 0 0 0
98 97 114 129 112 97 69 47 40 37 1 0 0 0 0 0 0 0 0 0 0 0 0 0 0 0 0 0 0 0 0 0 0 0 0 0 0 0 0 0 0 0 0 0 0 0 0
82 88 91 111 98 87 69 23 26 68 13 0 0 0 0 0 0 0 0 0 4 1 0 0 0 0 0 0 0 0 0 0 0 0 0 0 0 0 0 0 0 0 0 0 0 0 0
87 94 90 114 86 66 52 36 31 25 6 0 0 0 0 0 0 0 0 0 2 0 0 0 0 0 0 0 0 0 0 0 0 0 0 0 0 0 0 0 0 0 0 0 0 0 0
92 87 93 81 72 82 35 27 31 66 9 0 0 0 0 0 0 0 0 1 0 0 0 0 0 0 0 0 0 0 0 0 0 0 0 7 0 2 0 0 0 0 0 0 0 0 0
81 78 92 71 73 30 2 14 33 67 0 0 0 0 0 0 0 0 0 0 0 0 0 0 0 1 0 0 0 0 0 0 0 0 0 0 0 0 0 0 0 0 0 0 0 0 0
61 70 77 61 32 0 7 8 69 68 0 0 0 0 0 0 0 0 0 0 0 0 0 0 0 0 0 0 0 0 0 0 0 0 0 0 0 0 0 0 0 0 0 0 0 0 0

GFSGBSN_con_sbcape_084.txt.gz
CAPE
18 29 30 18 18 27 24 15 22 15 7 97 20 15 24 15 26 20 7 27 22 45 25 6 42 21 0 0 0 0 0 5 36 47 16 31 30 12 14 36 42 10 45 22 71 22 67
19 14 24 23 27 18 25 19 11 22 10 213 69 11 13 5 22 16 16 24 24 21 32 16 34 35 0 2 0 0 0 0 7 9 16 34 38 16 3 13 37 42 23 52 65 67 56
24 27 38 27 18 34 35 16 22 25 16 9 13 66 6 14 18 28 26 23 30 18 25 16 23 30 4 0 0 0 0 2 2 5 13 13 61 1 30 23 0 11 59 58 33 0 4
21 37 58 57 64 57 28 26 19 29 25 38 27 50 9 10 8 30 20 13 14 16 6 9 19 13 0 0 0 0 12 0 2 14 0 0 45 19 39 152 155 37 63 38 8 19 20
28 46 57 71 81 81 66 62 26 22 23 40 49 36 15 4 4 14 10 21 10 12 8 21 10 2 0 0 0 7 32 5 0 10 10 14 40 18 23 50 62 53 40 17 1 62 15
25 48 61 75 93 88 91 82 73 40 37 35 48 60 12 9 2 14 5 8 3 19 5 14 4 6 0 0 0 0 0 3 0 2 21 31 27 2 1 44 12 123 12 1 0 16 6
36 52 45 71 77 66 85 82 55 56 25 30 62 20 15 10 9 2 1 0 0 0 0 0 0 0 0 0 0 0 0 0 0 28 25 26 35 5 0 2 0 0 0 1 0 31 9
32 47 55 65 63 68 60 80 73 63 43 26 50 12 8 8 0 0 0 0 0 0 0 0 0 0 0 0 0 0 0 1 13 19 23 17 2 12 2 10 0 11 0 5 6 12 1
31 35 41 47 51 42 41 39 82 59 69 16 13 48 23 5 3 0 0 0 0 0 0 0 0 0 0 0 0 0 0 3 15 13 9 10 4 16 0 0 2 46 0 1 1 6 9
14 18 34 23 35 36 40 35 43 47 47 57 3 24 73 8 0 0 0 0 0 0 0 0 0 0 0 0 0 0 0 3 25 6 3 10 17 3 2 1 0 40 0 4 11 3 20
29 33 51 52 52 45 46 36 37 36 44 81 65 18 41 0 0 0 0 0 0 0 0 0 0 0 0 0 0 3 1 15 27 5 0 6 11 0 2 1 0 8 0 0 0 0 0
54 66 70 68 67 69 78 72 59 53 98 72 52 13 33 13 0 0 0 0 0 0 0 0 0 0 0 0 0 0 10 8 0 5 0 1 14 10 4 8 2 2 0 0 0 0 1
72 88 91 90 77 75 73 71 72 109 111 32 5 42 42 8 0 0 0 0 0 0 0 0 0 0 0 0 0 0 0 0 4 1 0 1 1 3 0 5 12 0 0 4 0 0 0
84 95 92 77 73 71 95 96 67 54 39 78 31 46 16 0 0 0 0 0 0 0 0 0 0 0 0 0 0 0 0 0 0 0 0 0 2 1 0 0 2 0 0 0 0 0 0
83 79 77 69 85 96 124 111 144 376 268 46 66 49 14 0 0 0 0 0 0 0 0 0 0 0 0 0 0 0 0 0 0 0 0 0 5 0 0 0 0 0 0 0 0 0 0
86 86 96 59 91 124 178 199 207 273 225 83 17 14 3 0 0 2 2 0 0 0 0 0 0 0 0 0 0 0 0 0 0 0 0 0 0 0 0 0 0 0 0 0 0 0 0
86 98 92 74 95 143 232 218 192 160 129 87 19 25 16 0 10 12 1 0 0 0 0 0 0 0 0 0 0 0 0 0 0 0 0 0 0 0 0 0 0 0 0 0 0 0 0
78 78 80 83 100 185 231 183 173 135 110 42 28 5 9 7 3 15 6 0 0 0 0 0 0 0 0 0 0 0 0 0 0 0 0 0 0 0 0 0 0 0 0 0 0 0 0
81 68 90 100 155 190 204 139 130 116 87 47 22 8 21 18 4 25 0 0 0 0 0 0 0 0 0 0 0 0 0 0 0 0 0 0 0 0 0 0 0 0 0 0 0 0 0
72 65 91 107 252 212 177 155 97 69 52 50 20 6 15 13 12 3 3 0 0 0 0 0 0 0 0 0 0 0 0 0 0 0 0 0 0 0 0 0 0 0 0 0 0 0 0
61 68 95 110 176 190 165 129 92 68 48 40 18 5 8 3 11 5 1 0 5 1 0 0 1 2 1 0 0 0 0 0 0 0 0 0 0 0 0 0 0 0 0 0 0 0 0
45 67 90 123 132 181 132 78 77 56 28 18 16 8 5 5 8 1 0 0 2 4 0 0 7 5 0 0 0 0 0 0 0 0 0 0 0 0 0 0 0 0 0 0 0 0 0
35 79 90 88 129 127 109 85 51 28 32 30 5 4 2 6 6 2 0 0 2 3 0 0 0 0 0 0 0 0 0 0 0 0 0 0 0 0 0 0 0 0 0 0 0 0 0
39 86 98 108 110 97 82 47 54 20 28 13 0 0 2 3 1 0 0 0 6 0 1 0 0 1 0 0 0 0 0 0 0 0 0 0 0 0 0 0 0 0 0 0 0 0 0
64 63 78 101 107 76 61 50 31 23 53 0 0 0 0 0 0 0 0 0 1 0 0 0 0 0 0 0 0 6 4 10 0 0 0 0 0 0 0 0 0 0 0 0 0 0 0
54 54 67 89 106 85 60 65 25 24 0 0 0 0 0 0 0 0 0 0 1 0 0 0 0 0 0 0 0 1 0 0 0 0 0 0 0 0 0 0 0 0 0 0 0 0 0
51 49 64 63 62 74 53 29 15 30 2 0 0 0 0 0 0 0 0 1 0 0 0 0 0 0 0 0 0 0 0 0 0 0 3 0 0 1 0 0 0 0 0 0 0 0 0
38 48 65 45 58 23 16 23 20 45 0 0 0 0 0 0 0 0 0 0 0 0 0 0 0 0 0 0 0 0 0 0 0 0 0 0 0 0 0 0 0 0 0 0 0 0 0
37 28 61 82 56 11 6 13 24 24 0 0 0 0 0 0 0 0 0 0 0 0 0 0 0 0 0 0 0 0 0 0 0 0 0 0 0 0 0 0 0 0 0 0 0 0 0

GFSGBSN_con_sbcape_087.txt.gz
CAPE
20 28 39 33 27 38 40 41 36 36 52 23 13 53 167 44 10 8 15 0 12 5 11 27 20 53 0 0 0 0 0 0 37 37 17 12 24 31 30 8 8 24 0 6 27 129 77
37 44 45 45 44 50 51 43 52 41 49 44 12 40 9 67 5 3 0 6 24 7 17 25 18 27 0 9 0 0 0 0 2 3 2 14 22 26 10 16 27 27 4 0 0 59 219
45 47 31 58 61 61 63 58 53 43 49 44 32 19 30 43 8 3 0 17 16 11 6 26 11 32 9 0 0 0 0 2 7 0 4 1 18 6 5 4 9 51 39 1 0 159 145
18 34 31 55 58 54 49 68 51 33 37 59 37 30 47 15 11 4 5 14 6 3 0 16 25 36 14 0 0 0 5 3 17 8 6 3 4 21 2 0 9 49 0 17 49 104 19
33 44 51 63 63 73 69 58 53 41 52 30 49 43 32 17 14 10 6 6 8 6 5 15 17 12 0 0 0 0 0 5 0 0 8 15 34 17 21 11 34 2 4 61 45 103 17
31 60 57 61 62 62 85 73 55 61 61 63 24 17 37 54 15 8 0 0 0 2 1 9 3 2 0 0 0 0 0 0 0 0 6 19 28 17 9 6 47 11 30 46 56 63 3
34 44 61 61 60 74 56 76 76 83 59 62 27 25 28 85 8 0 0 0 0 0 0 0 0 0 0 0 0 0 0 0 0 3 8 30 27 16 3 4 7 0 1 5 49 51 1
37 34 38 37 44 41 51 57 54 66 77 47 8 45 52 45 10 3 0 0 0 0 0 0 0 0 0 0 0 0 0 1 14 8 12 21 14 0 7 2 18 7 1 20 46 28 0
37 46 52 47 49 52 47 50 46 47 55 39 20 48 52 61 18 8 0 0 0 0 0 0 0 0 0 0 0 2 0 4 4 11 2 30 5 20 0 4 12 0 0 1 0 3 5
34 38 42 63 65 77 72 51 54 60 56 41 33 7 25 48 0 0 0 0 0 0 0 0 0 0 0 0 0 0 0 2 6 13 0 13 25 9 10 14 6 3 0 0 0 0 0
44 46 51 81 83 83 68 52 59 40 68 67 27 19 29 31 0 2 0 0 0 0 0 0 0 0 0 0 0 6 0 2 5 1 4 17 32 4 4 1 0 21 0 0 0 0 0
58 67 65 59 73 91 99 99 92 70 93 115 42 23 32 2 5 0 0 0 0 0 0 0 0 0 0 0 0 1 13 4 6 8 2 6 6 8 7 0 0 0 0 0 0 0 0
68 72 77 75 89 61 93 106 100 88 117 105 78 13 11 19 11 0 0 0 1 0 0 0 0 0 0 0 0 0 0 10 5 2 1 3 9 7 0 6 4 0 0 0 0 0 1
65 57 79 82 81 99 93 122 150 246 215 229 156 80 0 2 0 0 2 1 0 0 0 0 0 0 0 0 0 0 0 0 2 1 0 0 10 6 3 1 4 0 0 0 0 0 0
69 64 56 81 81 90 103 157 255 237 194 142 68 1 4 16 1 0 3 0 0 0 0 0 0 0 0 0 0 0 0 0 0 0 0 0 12 0 0 0 0 0 0 0 0 0 0
61 57 68 68 86 84 153 235 246 200 221 102 28 9 18 20 0 5 4 0 0 0 0 0 0 0 0 0 0 0 0 0 0 0 0 0 1 0 0 0 0 0 0 0 0 0 0
56 47 60 67 80 123 206 243 226 166 152 109 0 6 37 2 6 6 4 0 0 0 0 0 0 0 0 0 0 0 0 0 0 0 0 0 0 0 0 0 0 0 0 0 0 0 0
44 42 55 70 91 157 222 208 195 152 163 3 19 6 25 20 0 6 12 0 0 2 0 0 0 0 0 0 0 0 0 0 0 0 0 0 0 0 0 0 0 0 0 0 0 0 0
27 31 50 54 101 184 201 179 160 140 121 3 8 17 22 15 7 14 5 0 0 7 4 0 0 0 0 0 0 0 0 0 0 0 0 0 0 0 0 0 0 0 0 0 0 0 0
20 31 46 56 128 198 213 149 112 106 97 2 12 7 3 18 10 8 19 9 1 0 1 0 0 0 0 0 0 0 0 0 0 0 0 0 0 0 0 0 0 0 0 0 0 0 0
16 29 41 84 177 184 160 116 105 100 72 0 11 12 11 11 7 8 0 5 3 3 8 0 0 0 0 0 0 0 0 0 0 0 0 0 0 0 0 0 0 0 0 0 0 0 0
15 30 45 115 170 159 143 98 87 64 35 4 13 21 3 5 11 3 5 4 0 18 9 0 1 0 0 0 0 0 0 0 0 0 0 0 0 0 0 0 0 0 0 0 0 0 0
14 35 65 101 121 110 90 78 63 48 31 10 15 1 15 4 5 10 7 0 1 11 0 0 0 0 0 0 0 0 0 0 0 0 0 0 0 0 0 0 0 0 0 0 0 0 0
21 44 72 83 102 86 67 61 38 48 25 11 8 6 11 2 7 12 0 0 0 12 4 0 0 0 0 0 0 0 0 0 0 0 0 0 0 0 0 0 0 0 0 0 0 0 0
27 59 59 72 90 73 62 48 47 9 8 0 0 0 0 3 2 0 0 0 6 0 0 0 0 0 0 0 0 0 0 0 0 0 0 0 0 0 0 0 0 0 0 0 0 0 0
36 61 49 55 73 91 73 15 8 21 1 0 0 0 0 0 0 0 0 0 4 0 0 0 0 0 0 0 0 0 0 0 0 0 0 0 0 0 0 0 0 0 0 0 0 0 0
43 45 36 44 67 77 27 30 27 22 0 0 0 0 0 0 0 0 0 0 0 0 0 0 0 0 0 0 0 0 0 0 0 0 1 0 1 0 0 0 0 0 0 0 0 0 0
48 37 34 31 45 33 15 8 18 13 0 0 0 0 0 0 0 0 0 0 0 0 0 0 1 0 0 1 0 0 0 0 0 0 0 0 0 0 0 0 0 0 0 0 0 0 0
43 36 25 45 46 28 6 23 0 1 0 0 0 0 0 0 0 0 0 0 0 0 0 0 0 0 0 0 0 0 0 0 0 0 0 0 0 0 0 0 0 0 0 0 0 0 0

GFSGBSN_con_sbcape_090.txt.gz
CAPE
24 31 45 41 54 62 51 64 62 54 50 48 43 21 22 24 7 25 3 1 0 9 11 15 7 20 0 0 0 0 0 0 13 2 0 0 14 28 7 18 17 32 26 18 1 0 11
42 38 46 38 58 50 41 53 60 50 49 53 47 30 16 18 10 40 2 0 1 13 7 14 9 20 0 6 0 0 0 0 0 7 5 7 3 30 32 14 32 17 26 11 11 2 11
36 42 53 45 57 64 66 61 43 47 51 54 46 38 18 18 9 27 16 5 6 3 0 7 4 19 16 0 0 0 0 0 3 29 22 11 7 57 22 12 3 27 92 49 37 1 10
26 25 37 37 53 51 54 51 51 37 66 62 67 37 37 9 6 21 14 12 4 0 0 7 18 22 2 0 0 0 0 1 31 55 42 31 39 48 44 8 3 81 51 59 8 0 0
25 16 31 51 62 68 64 86 76 60 61 67 38 19 19 26 16 50 8 10 6 3 11 14 27 5 1 0 0 0 0 11 28 18 17 19 49 43 26 7 34 33 17 11 0 6 18
45 52 44 38 42 74 66 90 78 88 71 66 22 23 24 30 46 33 13 1 2 11 42 36 14 3 0 0 0 0 0 0 15 20 20 35 69 50 14 22 56 52 0 0 0 139 146
52 60 64 69 77 71 67 67 69 85 68 80 8 21 12 24 27 13 0 0 3 16 25 0 0 0 0 0 0 0 0 0 3 10 14 45 48 16 50 19 19 1 0 127 78 151 129
51 57 49 67 81 64 90 94 87 76 74 73 37 4 7 16 21 7 0 0 0 0 0 0 0 0 0 0 0 0 0 20 38 30 17 31 14 20 0 8 8 4 33 104 97 112 63
44 65 59 61 79 82 85 87 86 88 78 46 47 8 10 6 11 21 5 0 0 0 0 0 0 0 0 0 0 3 0 5 8 7 33 45 12 16 17 4 42 65 52 124 83 40 35
48 46 68 61 69 70 70 75 88 100 114 82 21 18 19 13 1 12 3 0 0 0 1 0 1 0 0 0 0 0 0 11 8 26 14 37 17 6 44 12 7 17 33 29 8 85 68
20 32 52 41 70 80 89 71 88 104 105 96 33 22 43 25 33 31 1 0 0 0 4 0 1 0 0 1 0 3 0 8 13 19 14 5 15 8 15 10 0 59 13 11 17 11 4
33 39 51 46 67 84 89 91 106 138 202 223 126 73 59 34 20 23 0 0 6 14 1 0 4 6 12 5 0 8 13 3 1 20 4 10 20 39 12 4 0 54 62 26 6 8 23
35 51 49 50 56 77 80 86 132 247 265 236 177 105 86 65 9 51 0 11 21 9 0 2 2 3 3 0 1 7 18 31 17 26 22 3 5 10 6 13 20 45 32 22 15 17 9
59 58 54 57 54 63 78 114 225 276 253 217 184 84 11 23 12 47 23 11 6 0 0 0 0 0 3 0 0 0 1 4 2 2 9 80 34 4 2 4 21 5 0 11 1 10 5
47 48 73 53 51 67 84 171 258 243 189 147 233 46 32 16 17 56 10 28 18 0 0 2 0 1 0 0 0 0 0 0 0 5 6 12 12 0 4 0 5 13 0 0 0 0 2
28 48 79 48 50 72 118 213 228 188 155 172 58 21 12 8 24 7 8 16 0 0 0 1 0 0 0 0 0 0 0 0 0 0 0 0 9 0 3 0 0 0 0 0 0 0 4
25 50 48 35 59 63 166 206 176 146 131 111 11 12 14 81 45 4 24 40 0 0 0 0 0 0 0 0 0 0 0 0 0 0 0 0 0 0 0 3 2 0 0 0 0 0 0
34 62 17 41 52 143 199 182 140 120 102 29 13 18 11 8 1 6 22 5 2 0 0 0 0 0 0 0 0 0 0 0 0 0 0 0 0 3 0 0 0 0 0 0 0 0 0
29 14 17 38 71 141 158 132 99 93 63 17 20 6 5 8 48 62 26 13 5 4 5 7 21 0 0 0 0 0 0 0 0 0 0 0 0 0 0 0 0 0 0 0 0 0 0
24 11 19 34 89 140 116 103 64 75 40 10 19 17 7 3 5 10 35 15 9 0 1 6 8 0 0 0 0 0 0 0 0 0 0 0 0 0 0 0 0 0 0 0 0 0 0
6 8 23 46 87 106 79 42 41 55 41 12 12 23 6 34 31 16 10 6 15 4 9 1 24 2 0 0 0 0 0 0 0 0 0 0 0 0 0 0 0 0 0 0 0 0 0
6 13 28 50 64 57 58 45 47 31 10 12 17 26 6 13 10 13 7 9 18 0 14 23 35 0 0 0 0 0 0 0 0 0 0 0 0 0 0 0 0 0 0 0 0 0 0
7 15 29 50 37 55 61 49 51 35 18 10 8 9 22 6 6 20 18 0 4 2 6 0 13 13 0 0 0 0 0 0 0 0 0 0 0 0 0 0 0 0 0 0 0 0 0
9 25 41 25 32 47 56 54 43 42 29 29 12 14 17 2 2 3 0 0 0 29 6 0 0 24 0 0 0 0 0 0 0 0 0 0 0 0 0 0 0 0 0 0 0 0 0
11 23 34 28 34 47 50 33 26 40 45 55 0 3 17 12 8 2 0 1 2 7 0 0 0 0 0 0 2 2 1 0 0 0 0 0 0 0 0 0 0 0 0 0 0 0 0
10 23 26 28 17 37 22 9 25 26 5 0 1 0 0 0 0 0 0 0 10 0 6 0 0 0 0 0 0 0 0 0 0 4 0 0 0 0 0 0 0 0 0 0 0 0 0
8 23 25 16 19 17 8 6 20 2 0 0 0 0 0 0 0 0 6 4 0 0 1 0 0 0 0 0 0 0 0 0 0 0 6 11 7 1 0 0 0 0 0 0 0 0 0
3 17 18 9 22 4 2 13 2 2 0 0 0 0 0 0 0 0 0 0 0 0 5 0 12 1 1 13 0 0 0 0 0 0 0 1 1 1 0 0 0 0 0 0 0 0 0
1 15 10 10 14 7 10 0 0 1 0 0 0 0 0 0 0 0 0 0 0 0 0 0 3 0 0 0 0 0 0 0 0 0 0 0 0 0 0 0 0 0 0 0 0 0 0

GFSGBSN_con_sbcape_093.txt.gz
CAPE
32 38 40 38 50 54 44 55 41 32 31 52 44 53 30 17 17 18 4 39 9 6 2 0 2 24 9 5 0 0 0 0 4 5 0 7 8 13 19 6 14 25 15 21 14 26 38
32 30 40 41 46 46 38 45 52 46 46 65 45 52 34 34 20 16 3 49 14 14 1 0 7 28 18 2 0 0 0 0 0 2 4 14 9 6 7 4 31 30 47 27 26 22 35
36 33 24 31 31 43 55 54 53 50 37 57 52 29 32 23 40 22 9 12 1 10 3 0 12 25 13 0 0 0 0 0 0 4 17 6 11 11 13 33 21 30 32 24 31 25 21
34 39 33 28 28 36 44 42 50 53 52 54 56 16 20 25 21 32 7 38 9 5 0 13 9 20 21 0 0 0 0 3 8 8 27 31 20 23 41 23 15 24 25 31 6 53 37
24 29 40 39 48 54 60 52 56 43 61 49 56 38 15 20 24 48 41 56 11 11 5 15 10 28 9 0 0 0 1 5 4 19 34 26 31 32 56 30 35 25 25 40 20 1 5
34 39 44 41 48 50 52 56 52 57 60 44 48 24 10 23 24 50 24 8 17 15 22 27 17 16 0 0 0 0 0 0 7 1 2 19 33 62 29 31 13 54 15 19 13 21 32
23 40 45 56 45 53 52 57 74 54 80 84 77 11 1 22 37 63 18 20 1 25 30 4 0 2 0 0 0 0 0 0 6 7 4 21 76 60 43 18 19 16 31 30 1 23 60
17 35 48 53 58 52 61 64 62 67 86 108 103 68 0 7 32 25 21 1 4 0 2 0 4 11 0 0 0 0 0 27 6 15 30 40 46 17 24 6 23 21 17 10 18 82 50
23 41 41 57 60 49 62 64 76 76 100 118 121 109 18 0 2 26 49 11 2 3 1 0 0 8 2 0 1 3 0 2 14 4 8 34 26 19 2 13 20 8 5 23 118 61 88
56 56 56 57 63 50 44 65 83 110 118 203 270 221 73 23 1 9 29 23 3 19 21 6 4 1 0 2 6 10 9 8 11 3 12 29 13 7 13 20 24 42 7 16 69 28 59
73 69 66 62 65 69 51 65 96 120 188 252 262 256 172 58 20 14 40 2 19 4 15 3 6 2 6 14 7 2 0 19 8 10 30 12 26 6 21 29 17 50 20 17 8 45 3
202 107 54 45 85 53 60 100 115 157 236 246 248 189 125 25 31 7 36 0 0 24 9 10 8 21 22 19 7 10 7 1 7 9 10 17 3 7 5 1 0 12 18 9 18 3 45
174 143 27 51 53 42 94 105 123 227 249 221 177 153 23 9 13 66 23 13 37 26 0 4 8 17 19 21 19 21 22 16 24 42 18 6 6 12 16 8 29 35 34 29 69 37 15
81 31 28 35 29 70 78 83 198 239 217 173 156 139 102 23 35 22 60 6 34 1 8 7 10 12 5 12 5 14 4 4 5 5 17 121 20 9 3 12 52 9 0 15 44 21 2
20 43 6 39 67 77 63 150 183 183 152 130 122 75 43 21 29 39 10 20 85 9 1 9 13 15 7 3 3 3 9 19 11 3 33 140 14 2 6 5 2 2 13 0 1 2 3
16 22 25 35 56 65 143 159 146 140 131 112 72 23 7 7 18 63 18 60 11 17 7 6 6 7 2 2 2 1 7 0 8 0 0 4 30 0 0 6 7 0 0 1 0 1 4
27 34 11 25 47 81 128 127 101 117 108 68 39 15 43 11 48 32 33 36 23 14 13 5 1 0 4 1 3 4 4 0 0 0 0 0 17 4 1 7 2 5 2 0 0 0 2
31 2 10 26 30 69 78 83 67 89 54 21 15 8 6 70 42 19 94 29 14 14 5 0 0 0 3 0 0 8 10 3 0 0 0 0 1 16 3 0 0 0 0 0 0 0 0
11 3 15 21 33 57 67 55 30 39 46 38 16 5 25 7 46 56 18 6 9 7 20 21 18 0 0 0 0 4 2 0 0 0 0 0 0 11 4 0 0 0 0 0 0 0 0
0 1 17 21 49 61 57 39 33 16 15 6 5 22 3 7 9 17 4 3 22 4 3 3 8 0 0 0 0 0 1 0 0 0 0 0 0 0 1 0 0 0 0 0 0 6 0
0 1 13 27 28 38 45 39 34 9 0 7 6 6 11 49 8 7 2 7 4 16 22 13 23 1 0 0 0 0 0 0 0 0 0 0 0 0 0 0 0 0 0 0 0 0 0
0 1 14 31 13 25 33 35 35 0 0 7 8 16 8 6 3 4 10 9 14 11 35 22 26 0 4 1 0 0 0 0 0 0 0 0 0 0 0 0 0 0 0 0 0 0 0
0 1 16 19 16 23 45 53 14 10 3 12 13 4 18 9 5 13 8 12 6 3 3 0 10 25 6 0 0 0 0 0 0 0 0 0 0 0 0 0 0 0 0 0 0 0 0
0 2 15 13 16 14 42 32 23 24 0 9 11 11 15 2 2 6 1 1 5 17 28 8 3 24 0 0 0 0 0 0 0 0 0 0 0 0 0 0 0 0 0 0 0 0 0
0 6 16 14 19 17 19 13 13 22 25 8 5 14 10 4 11 7 3 1 0 16 12 2 0 0 0 0 8 0 0 0 0 0 0 0 0 0 0 0 0 0 0 0 0 0 0
0 6 13 13 11 31 22 13 13 10 3 23 11 0 2 8 1 0 4 5 1 18 30 0 0 0 0 7 1 2 0 0 0 0 0 0 0 0 0 0 0 0 0 0 0 0 0
0 0 16 14 10 22 15 10 16 1 0 5 0 0 0 6 0 0 2 8 1 1 1 3 0 2 9 18 3 0 0 0 0 0 0 0 0 0 0 0 0 0 0 0 0 0 0
0 0 5 13 7 8 37 4 0 0 0 0 0 0 0 0 0 0 0 0 0 0 12 1 17 12 28 23 9 1 0 0 0 0 0 0 0 0 0 0 0 0 0 0 0 0 0
0 3 5 5 2 3 28 1 0 0 0 0 0 0 0 0 0 0 0 0 0 0 0 0 3 13 25 38 0 0 0 0 0 0 0 0 0 0 0 0 0 0 0 0 0 0 0

GFSGBSN_con_sbcape_096.txt.gz
CAPE
43 39 33 35 47 34 46 47 42 37 36 34 44 45 43 38 36 32 23 13 8 90 9 5 0 11 3 3 0 0 0 0 14 1 0 0 2 6 5 1 0 1 0 0 0 0 0
46 56 54 56 45 40 35 44 42 29 31 39 45 38 43 33 28 25 17 28 17 24 14 5 8 22 1 0 0 0 0 0 0 1 0 0 5 9 0 0 0 0 0 0 0 3 2
40 46 53 52 48 57 53 52 49 39 44 39 33 25 36 29 35 32 19 5 8 43 38 12 12 3 14 0 0 0 0 0 0 0 6 13 0 10 5 1 0 0 0 0 0 0 0
51 55 63 60 56 35 55 40 44 48 43 41 27 32 33 18 20 13 10 51 4 93 11 21 20 1 1 0 0 0 0 0 0 1 5 14 17 19 7 1 0 3 7 7 0 0 0
46 63 45 31 51 43 39 55 52 47 45 46 29 22 38 27 14 8 4 83 84 10 18 16 7 5 4 0 0 0 0 5 6 3 14 8 18 19 7 5 8 11 1 4 0 2 3
53 43 38 35 43 58 63 56 55 59 57 34 42 27 41 41 17 3 4 47 31 7 14 7 2 6 0 0 0 0 0 0 2 4 13 14 14 4 8 17 4 7 9 7 1 6 0
75 73 65 68 62 63 66 39 67 68 60 71 56 54 73 60 30 2 21 42 5 8 29 1 0 0 0 0 0 0 0 0 4 3 3 8 9 2 0 0 0 0 8 5 1 7 10
117 88 76 65 76 81 75 54 59 77 96 102 112 122 173 186 24 1 66 15 29 25 4 0 10 3 4 0 1 4 0 1 8 1 5 23 19 0 1 22 22 21 28 1 1 0 11
129 139 195 212 76 50 69 83 74 114 152 137 166 225 262 183 51 53 44 43 32 16 2 2 1 2 5 0 0 1 0 8 13 8 7 14 0 5 14 4 23 29 10 1 12 27 21
196 153 192 30 18 31 62 66 103 139 133 167 194 289 237 150 9 0 19 15 54 29 13 0 11 3 7 0 1 5 0 15 5 1 0 1 0 1 20 3 7 15 17 4 1 29 22
171 30 23 36 9 39 48 101 136 145 172 184 190 222 200 96 39 21 1 7 62 34 20 0 8 4 2 1 0 3 14 10 8 9 16 9 18 11 17 19 34 3 21 0 1 22 2
28 14 0 0 11 10 89 117 134 150 168 132 153 158 79 0 32 27 78 18 8 17 6 18 12 19 9 9 27 1 12 0 0 10 2 0 15 0 3 0 0 1 3 3 2 12 2
1 0 0 0 15 64 61 76 121 119 110 104 104 106 109 19 1 44 13 13 15 4 3 6 12 21 2 2 12 9 9 8 12 2 5 1 2 0 2 6 0 7 29 3 3 5 2
18 15 12 42 46 58 69 92 115 114 97 91 45 34 23 16 23 20 8 8 2 30 3 5 1 1 10 11 14 4 19 6 2 5 8 21 11 6 6 27 22 0 2 3 1 4 1
43 29 12 23 37 55 71 91 105 117 84 79 58 34 35 26 17 27 7 4 4 16 9 5 4 6 1 9 2 5 3 4 7 1 14 31 11 1 0 5 0 7 7 0 0 2 1
27 7 9 27 38 48 48 71 99 92 141 64 48 3 17 13 14 13 8 15 22 25 14 4 5 0 1 2 4 10 7 5 4 0 0 5 65 2 1 3 8 2 0 0 3 0 0
14 2 11 18 14 9 28 58 75 59 77 37 31 24 25 19 11 9 11 17 22 1 0 0 0 0 3 0 3 7 5 0 0 0 0 0 6 0 4 8 0 0 0 0 0 0 0
4 0 9 8 18 20 13 25 36 37 16 0 0 6 2 34 4 4 41 21 13 0 0 2 1 0 0 0 0 3 0 0 0 0 0 0 5 20 2 0 0 0 0 0 0 0 0
1 0 10 14 7 24 33 20 11 17 19 12 2 9 17 4 16 7 14 2 1 0 0 1 7 0 0 0 0 2 0 0 0 0 0 0 0 3 0 0 0 0 0 0 0 0 0
0 1 7 16 19 29 45 32 6 2 0 2 0 4 6 14 13 18 3 0 4 0 0 2 2 0 0 0 0 0 0 0 0 0 0 0 0 0 0 0 0 0 0 0 0 0 0
0 2 4 11 8 24 33 32 0 0 0 1 1 5 3 2 3 4 0 1 1 1 3 1 2 0 0 0 0 0 0 0 0 0 0 0 0 0 0 0 0 0 0 0 0 0 0
0 1 8 3 4 13 39 44 4 0 0 2 7 7 2 6 1 1 0 0 3 1 1 11 1 1 0 0 0 0 0 0 0 0 0 0 0 0 0 0 0 0 0 0 0 0 0
0 0 9 7 0 1 41 53 22 15 4 2 18 8 5 0 1 2 7 1 1 2 0 0 0 2 0 0 0 0 0 0 0 0 0 0 0 0 0 0 0 0 0 0 0 0 0
0 0 7 11 3 0 7 32 34 21 10 1 13 14 8 1 2 1 0 0 3 2 5 0 0 0 0 0 0 0 0 0 0 0 0 0 0 0 0 0 0 0 0 0 0 0 0
0 0 4 12 9 3 1 2 27 22 11 3 2 13 15 2 0 2 0 0 0 0 0 0 0 0 0 0 0 0 0 0 0 0 0 0 0 0 0 0 0 0 0 0 0 0 0
0 0 3 10 8 8 4 13 28 15 1 3 1 0 0 0 0 0 0 2 0 2 0 0 0 0 0 0 0 0 0 0 0 0 0 0 0 0 0 0 0 0 0 0 0 0 0
0 0 1 5 6 4 3 4 7 8 0 2 0 0 0 0 0 0 0 0 0 0 0 0 0 0 0 0 0 0 0 0 0 0 0 0 0 0 0 0 0 0 0 0 0 0 0
0 0 3 4 2 17 2 4 0 0 0 0 0 0 0 0 0 0 0 0 0 0 0 0 0 0 5 2 0 0 0 0 0 0 0 0 0 0 0 0 0 0 0 0 0 0 0
0 0 1 2 0 16 3 0 0 0 0 0 0 0 0 0 0 0 0 0 0 0 0 0 0 0 0 2 0 0 0 0 0 0 0 0 0 0 0 0 0 0 0 0 0 0 0

GFSGBSN_con_sbcape_099.txt.gz
CAPE
76 72 64 66 64 58 54 56 36 40 46 44 42 36 38 44 42 32 18 8 8 10 4 28 8 10 2 2 0 0 12 28 16 6 6 0 0 0 0 0 0 0 0 0 0 0 0
74 64 68 52 64 66 40 56 56 56 48 54 54 54 38 44 44 34 12 12 26 18 0 64 12 32 0 0 0 0 0 0 0 0 0 0 0 2 0 0 0 0 0 0 0 0 0
68 56 44 54 36 48 66 38 52 50 46 48 52 56 40 50 50 26 18 6 10 22 2 130 18 32 0 0 0 0 0 0 0 0 0 6 10 4 0 0 0 0 0 0 0 0 0
106 102 84 64 58 38 50 74 64 56 48 52 42 32 42 48 62 16 6 6 0 50 80 58 76 26 0 0 0 0 0 0 0 0 0 0 20 10 14 0 0 0 0 0 0 0 0
162 192 202 146 66 72 50 60 60 50 50 58 50 28 40 70 42 12 2 10 62 200 80 24 14 8 0 0 0 0 0 0 2 8 14 12 26 14 14 16 2 10 0 0 0 0 0
130 148 242 162 142 256 118 74 78 58 50 56 50 48 68 86 46 2 4 16 70 126 60 40 16 10 0 0 0 0 0 2 0 20 26 22 20 14 6 6 0 0 0 0 0 0 4
144 208 268 128 186 10 0 46 80 74 82 88 80 66 88 104 76 18 0 0 2 28 32 0 0 0 0 0 0 0 0 0 0 10 2 4 0 0 0 0 0 0 0 0 0 0 8
24 4 30 18 22 32 18 50 52 66 84 120 148 130 178 168 128 108 30 18 14 10 4 2 6 6 0 0 0 2 0 0 0 6 6 14 4 0 0 0 0 6 34 0 0 0 12
30 74 52 40 8 8 44 56 114 114 146 174 200 182 158 188 116 4 0 24 22 36 8 8 16 6 6 0 2 0 0 10 10 8 6 2 0 0 0 0 52 0 16 0 0 0 0
28 50 36 22 22 46 76 150 142 154 132 164 216 220 188 82 2 0 14 42 52 62 2 48 30 8 2 0 2 2 0 24 22 4 6 6 0 0 0 6 0 16 0 22 14 8 2
24 16 24 48 76 96 90 84 112 110 108 140 150 174 122 20 0 0 16 0 22 4 2 10 12 8 0 4 0 10 8 30 10 4 16 0 8 14 28 20 16 12 16 6 22 58 0
32 30 28 30 48 70 120 132 146 100 84 88 116 118 34 0 0 10 0 2 0 2 0 32 4 4 0 0 22 10 18 0 0 0 0 0 4 8 2 0 0 0 0 0 14 18 2
22 20 22 30 28 78 112 130 114 98 92 38 24 6 0 2 0 0 0 0 0 0 10 0 16 2 0 0 24 8 6 10 8 2 4 2 0 0 0 0 0 0 10 2 2 4 0
20 10 18 32 58 64 86 118 116 114 68 6 6 8 0 0 0 0 0 0 0 78 14 12 2 0 14 0 8 10 12 8 2 2 2 4 0 4 0 6 14 4 4 4 0 2 2
14 2 20 30 38 58 48 72 86 80 42 4 0 0 0 0 0 0 0 0 0 38 12 0 2 34 12 8 6 8 4 6 10 0 6 14 4 0 0 0 0 8 26 2 10 8 2
12 0 20 22 30 44 40 44 48 74 86 14 0 0 2 0 0 0 0 6 14 12 4 0 0 0 0 0 12 4 4 6 6 0 0 4 18 0 0 2 0 2 0 0 0 0 0
4 0 14 22 14 10 44 38 28 4 10 40 0 0 0 0 0 0 0 6 0 0 0 0 0 0 0 0 6 10 2 0 0 0 0 4 0 0 0 0 0 0 0 0 0 0 0
2 0 6 12 6 2 6 36 10 16 0 0 0 0 0 0 0 0 0 2 2 0 0 0 0 0 0 0 0 0 0 0 0 0 0 0 0 0 0 0 0 0 0 0 0 0 0
0 0 0 10 8 16 2 6 12 4 20 0 2 0 0 0 0 0 4 0 0 0 0 0 0 0 0 0 0 0 0 0 0 0 0 0 0 0 0 0 0 0 0 0 0 0 0
0 0 4 12 10 10 4 4 2 2 0 0 0 0 0 0 0 2 0 0 0 0 0 0 0 0 0 0 0 0 0 0 0 0 0 0 0 0 0 0 0 0 0 0 0 0 0
0 0 6 10 14 6 0 0 8 0 0 0 0 0 0 2 0 0 0 0 0 0 0 0 0 0 0 0 0 0 0 0 0 0 0 0 0 0 0 0 0 0 0 0 0 0 0
0 0 0 10 10 12 2 4 4 0 0 0 0 0 0 0 0 0 0 0 0 0 0 0 0 0 0 0 0 0 0 0 0 0 0 0 0 0 0 0 0 0 0 0 0 0 0
0 0 0 4 12 6 6 8 10 6 0 0 2 0 0 0 0 0 0 0 0 0 0 0 0 0 0 0 0 0 0 0 0 0 0 0 0 0 0 0 0 0 0 0 0 0 0
0 0 0 2 8 4 8 12 6 10 2 0 0 0 0 0 0 0 0 0 0 0 0 0 0 0 0 0 0 0 0 0 0 0 0 0 0 0 0 0 0 0 0 0 0 0 0
0 0 0 2 4 6 12 20 6 6 2 0 0 0 0 0 0 0 0 0 0 0 0 0 0 0 0 0 0 0 0 0 0 0 0 0 0 0 0 0 0 0 0 0 0 0 0
0 0 0 2 2 10 24 4 16 0 0 0 0 0 0 0 0 0 0 0 0 0 0 0 0 0 0 0 0 0 0 0 0 0 0 0 0 0 0 0 0 0 0 0 0 0 0
0 0 0 2 0 16 14 20 0 0 2 0 0 0 0 0 0 0 0 0 0 0 0 0 0 0 0 0 0 0 0 0 0 0 0 0 0 0 0 0 0 0 0 0 0 0 0
0 0 0 0 2 14 4 0 0 0 0 0 0 0 0 0 0 0 0 0 0 0 0 0 0 0 0 0 0 0 0 0 0 0 0 0 0 0 0 0 0 0 0 0 0 0 0
0 0 0 0 0 12 0 0 0 0 0 0 0 0 0 0 0 0 0 0 0 0 0 0 0 0 0 0 0 0 0 0 0 0 0 0 0 0 0 0 0 0 0 0 0 0 0

GFSGBSN_con_sbcape_102.txt.gz
CAPE
101 102 98 86 73 57 46 49 47 43 49 38 36 40 54 33 40 45 25 15 18 22 24 6 130 36 10 2 0 0 19 10 0 0 0 0 0 0 0 0 0 0 0 0 0 0 0
124 146 170 230 238 106 76 55 67 48 53 61 36 16 37 29 41 38 22 6 10 15 16 0 36 14 8 0 0 0 0 4 14 0 0 0 0 0 0 0 0 0 0 0 0 0 0
112 176 252 259 358 265 238 189 106 78 56 50 42 15 25 39 37 23 11 6 7 4 6 6 80 3 0 0 3 0 0 0 0 0 0 0 0 0 0 0 0 0 0 0 0 0 0
136 176 25 24 54 74 224 477 132 71 80 73 54 37 32 55 36 14 8 3 1 3 107 212 47 0 1 0 0 0 0 0 0 0 0 0 1 0 6 0 0 0 0 0 0 0 0
21 80 103 73 45 49 49 88 38 50 66 62 52 66 60 57 49 26 6 3 0 116 313 303 6 0 3 20 0 0 0 0 0 2 0 2 8 3 8 10 4 4 2 0 0 0 0
47 53 35 53 68 79 112 94 64 55 70 76 75 85 79 68 59 21 3 3 0 250 75 2 12 0 2 2 7 0 0 2 4 13 16 14 13 4 12 11 0 0 0 0 0 0 0
16 10 24 30 16 84 122 135 110 105 120 141 107 96 97 101 84 47 0 0 0 0 28 0 0 0 0 0 1 0 0 0 3 1 0 2 4 0 0 0 0 0 0 0 0 0 2
9 15 32 35 50 68 83 129 151 147 125 125 155 151 122 92 93 85 0 0 0 0 3 34 5 3 0 0 4 1 0 0 0 0 1 4 2 0 0 0 0 0 3 4 0 0 0
12 31 35 27 32 105 120 132 106 119 133 166 168 131 107 120 27 0 0 8 4 5 7 12 11 5 1 5 1 0 0 2 1 0 2 0 0 0 0 0 1 2 10 0 1 0 0
15 22 25 28 46 106 137 164 166 167 165 155 114 92 39 1 0 0 17 18 27 28 2 5 11 22 9 3 1 1 1 14 30 14 22 11 0 0 0 0 0 16 0 0 18 31 1
20 16 21 20 36 83 92 119 142 124 97 60 30 11 0 0 0 0 0 4 8 6 0 14 8 1 4 1 0 0 5 24 26 1 13 0 0 7 9 1 0 3 7 1 0 13 1
9 12 21 27 29 53 86 91 91 76 49 14 0 0 0 0 0 0 0 7 7 1 0 27 2 8 1 2 12 26 16 6 11 12 0 0 0 8 0 0 0 0 0 0 0 4 3
7 16 15 30 25 23 68 91 69 17 5 3 3 5 0 0 0 0 0 0 0 0 13 0 31 4 0 3 13 11 10 1 4 8 6 3 5 0 0 2 0 0 8 0 0 2 0
7 17 20 27 23 30 66 97 66 24 15 5 5 0 0 0 0 0 0 0 0 5 5 14 2 0 0 0 11 11 9 15 4 4 6 0 1 4 0 0 1 12 4 1 0 1 9
8 10 22 20 17 19 20 49 57 33 15 9 0 0 0 0 0 0 0 0 8 5 18 0 6 6 4 2 9 19 3 8 7 0 1 9 1 0 0 0 1 10 20 6 11 7 1
7 9 11 16 16 12 15 6 2 41 16 0 0 0 0 0 0 0 0 8 16 0 1 0 0 0 0 3 10 7 9 0 3 0 0 8 4 0 0 0 0 0 13 9 1 0 0
4 6 10 10 14 11 7 12 3 1 0 0 0 0 0 0 0 0 1 0 0 0 0 0 0 0 0 0 0 10 0 0 0 0 0 0 1 0 0 0 0 0 2 2 0 0 1
2 3 7 7 12 9 10 5 4 2 0 0 0 0 0 0 0 0 0 0 0 0 0 0 0 0 0 0 0 0 0 0 0 0 0 0 0 2 0 0 0 0 0 0 0 0 0
1 0 9 8 5 13 12 7 1 0 0 0 0 0 0 0 0 0 0 0 0 0 0 0 0 0 0 0 0 0 0 0 0 0 0 0 0 0 0 0 0 0 0 0 0 0 0
0 0 8 8 9 14 14 15 2 0 0 0 0 0 0 0 0 0 0 0 0 0 0 0 0 0 0 0 0 0 0 0 0 0 0 0 0 0 0 0 0 0 0 0 0 0 0
0 0 3 8 6 4 2 4 9 0 0 0 0 0 0 0 0 0 0 0 0 0 0 0 0 0 0 0 0 0 0 0 0 0 0 0 0 0 0 0 0 0 0 0 0 0 0
0 0 0 6 6 6 7 6 4 0 0 0 0 0 0 0 0 0 0 0 0 0 0 0 0 0 0 0 0 0 0 0 0 0 0 0 0 0 0 0 0 0 0 0 0 0 0
0 0 0 4 3 4 2 8 11 0 0 0 0 0 0 0 0 0 0 0 0 0 0 0 0 0 0 0 0 0 0 0 0 0 0 0 0 0 0 0 0 0 0 0 0 0 0
0 0 0 4 5 7 13 23 23 0 0 0 0 0 0 0 0 0 0 0 0 0 0 0 0 0 0 0 0 0 0 0 0 0 0 0 0 0 0 0 0 0 0 0 0 0 0
0 0 0 2 6 8 5 5 4 0 0 0 0 0 0 0 0 0 0 0 0 0 0 0 0 0 0 0 0 0 0 0 0 0 0 0 0 0 0 0 0 0 0 0 0 0 0
0 0 0 1 4 19 11 7 0 0 0 0 0 0 0 0 0 0 0 0 0 0 0 0 0 0 0 0 0 0 0 0 0 0 0 0 0 0 0 0 0 0 0 0 0 0 0
0 0 0 0 4 8 0 5 0 1 0 0 0 0 0 0 0 0 0 0 0 0 0 0 0 0 0 0 0 0 0 0 0 0 0 0 0 0 0 0 0 0 0 0 0 0 0
0 0 0 0 4 0 0 0 0 0 0 0 0 0 0 0 0 0 0 0 0 0 0 0 0 0 0 0 0 0 0 0 0 0 0 0 0 0 0 0 0 0 0 0 0 0 0
0 0 0 0 0 5 0 0 0 0 0 0 0 0 0 0 0 0 0 0 0 0 0 0 0 0 0 0 0 0 0 0 0 0 0 0 0 0 0 0 0 0 0 0 0 0 0

GFSGBSN_con_sbcape_105.txt.gz
CAPE
140 111 76 39 19 26 46 78 62 205 115 71 60 55 14 7 15 14 34 20 10 14 18 1 1 76 0 0 0 0 3 47 0 0 0 0 0 0 0 0 0 0 0 0 0 0 0
65 43 16 44 20 41 45 54 196 273 291 91 71 41 13 1 5 13 20 19 9 7 9 1 47 1 0 0 0 0 0 0 0 0 0 0 0 0 0 0 0 0 0 0 0 0 0
50 56 32 37 45 45 51 102 56 97 74 80 86 47 23 14 7 16 7 11 2 4 0 2 28 0 0 1 0 14 11 5 0 0 0 0 0 0 0 0 0 0 0 0 0 0 0
58 23 23 31 36 90 70 105 114 98 87 82 86 53 43 22 10 0 3 2 4 0 7 39 27 0 3 0 0 0 0 0 0 0 0 0 0 0 0 0 0 0 0 0 0 0 0
14 27 31 45 33 61 96 114 124 109 77 54 34 39 32 10 0 1 1 0 0 86 197 223 4 0 8 5 0 0 0 0 0 0 0 0 0 0 0 0 0 0 0 0 0 0 0
26 33 34 23 36 122 129 150 121 90 85 78 85 79 57 66 31 6 0 0 0 30 27 2 3 0 5 0 0 0 0 0 0 6 0 0 0 0 0 1 0 0 0 0 0 0 0
15 32 26 23 50 107 137 159 163 135 107 95 75 68 69 63 41 7 0 0 0 0 0 0 0 5 0 0 0 0 3 14 8 1 0 0 2 0 0 0 0 0 0 0 0 0 0
17 29 20 23 44 67 94 73 104 145 126 114 88 70 90 100 29 0 0 0 0 0 15 3 2 0 0 1 3 0 1 0 1 0 0 0 0 0 0 0 0 0 0 0 0 0 0
18 30 22 29 25 42 105 115 113 135 105 68 25 16 25 20 20 0 0 6 0 0 7 8 15 3 3 0 0 1 4 1 0 1 0 0 0 0 0 0 0 0 1 0 0 0 0
14 25 29 29 21 27 71 83 62 51 40 29 43 39 22 0 0 0 1 7 4 4 0 4 18 17 24 31 6 0 3 14 20 2 0 0 0 0 0 0 0 0 0 0 0 10 15
12 21 29 19 27 19 20 21 22 15 8 37 15 41 12 0 0 0 11 3 8 3 0 4 2 6 2 5 0 9 15 25 30 3 8 0 0 0 13 8 0 0 0 0 2 18 0
6 16 19 17 25 21 16 12 6 17 11 13 0 0 0 0 0 0 0 14 5 0 0 10 5 22 10 18 30 25 27 14 9 16 9 0 0 1 0 0 0 0 0 0 0 1 1
4 18 19 16 23 14 15 1 0 1 0 5 10 0 0 0 0 0 0 2 0 1 5 1 16 4 2 21 5 23 6 6 3 7 4 2 2 1 1 1 0 0 7 0 0 3 0
2 13 11 19 26 16 17 6 0 0 2 0 0 0 0 0 0 0 0 0 0 14 22 6 1 0 2 6 1 4 16 19 2 4 19 0 0 3 1 1 2 4 11 1 0 0 3
1 7 14 16 18 15 13 11 1 0 0 0 0 0 0 0 0 0 0 0 1 17 5 0 16 4 1 9 12 18 8 10 4 1 0 22 0 0 0 0 1 10 16 19 10 6 4
3 0 13 12 15 17 9 18 7 0 0 0 0 0 0 0 0 0 0 2 1 0 0 0 0 0 0 0 1 1 10 0 3 0 0 9 7 0 0 0 0 4 12 19 10 0 0
3 0 8 9 13 12 9 11 10 5 0 0 0 0 0 0 0 0 0 0 0 0 0 0 0 0 0 0 0 5 0 0 0 0 0 0 3 0 0 0 0 2 23 18 16 2 1
2 0 3 7 11 10 8 8 11 7 0 0 0 0 0 0 0 0 0 0 0 0 0 0 0 0 0 0 0 0 0 0 0 0 0 0 0 0 0 0 0 0 0 0 0 0 0
2 0 0 4 7 14 12 10 5 4 2 0 0 0 0 0 0 0 0 0 0 0 0 0 0 0 0 0 0 0 0 0 0 0 0 0 0 0 0 0 0 0 0 0 0 0 0
2 0 0 2 5 12 8 9 7 6 0 0 0 0 0 0 0 0 0 0 0 0 0 0 0 0 0 0 0 0 0 0 0 0 0 0 0 0 0 0 0 0 0 0 0 0 1
1 0 0 1 5 4 9 9 5 2 0 0 0 0 0 0 0 0 0 0 0 0 0 0 0 0 0 0 0 0 0 0 0 0 0 0 0 0 0 0 0 0 0 0 0 0 0
0 0 0 0 4 3 9 14 16 3 0 0 0 0 0 0 0 0 0 0 0 0 0 0 0 0 0 0 0 0 0 0 0 0 0 0 0 0 0 0 0 0 0 0 0 0 0
0 0 0 0 2 5 20 21 17 0 0 0 0 0 0 0 0 0 0 0 0 0 0 0 0 0 0 0 0 0 0 0 0 0 0 0 0 0 0 0 0 0 0 0 0 0 0
0 0 0 0 1 9 25 14 2 0 0 0 0 0 0 0 0 0 0 0 0 0 0 0 0 0 0 0 0 0 0 0 0 0 0 0 0 0 0 0 0 0 0 0 0 0 0
0 0 0 0 0 9 16 11 0 0 0 0 0 0 0 0 0 0 0 0 0 0 0 0 0 0 0 0 0 0 0 0 0 0 0 0 0 0 0 0 0 0 0 0 0 0 0
0 0 0 0 0 5 4 8 0 0 0 0 0 0 0 0 0 0 0 0 0 0 0 0 0 0 0 0 0 0 0 0 0 0 0 0 0 0 0 0 0 0 0 0 0 0 0
3 0 0 0 0 0 0 7 0 0 0 0 0 0 0 0 0 0 0 0 0 0 0 0 0 0 0 0 0 0 0 0 0 0 0 0 0 0 0 0 0 0 0 0 0 0 0
9 0 0 0 0 0 0 0 0 0 0 0 0 0 0 0 0 0 0 0 0 0 0 0 0 0 0 0 0 0 0 0 0 0 0 0 0 0 0 0 0 0 0 0 0 0 0
20 0 0 0 0 0 0 0 0 0 0 0 0 0 0 0 0 0 0 0 0 0 0 0 0 0 0 0 0 0 0 0 0 0 0 0 0 0 0 0 0 0 0 0 0 0 0

GFSGBSN_con_sbcape_108.txt.gz
CAPE
27 17 27 40 60 33 42 81 226 193 80 331 122 93 65 23 16 33 28 4 5 7 0 0 1 19 0 0 0 0 58 62 0 0 0 0 0 0 0 0 0 0 0 0 0 0 0
14 25 44 54 37 24 61 94 113 192 109 144 98 105 43 33 30 41 17 0 7 5 1 10 0 77 0 11 0 20 0 0 0 0 0 0 0 0 0 0 0 0 0 0 0 0 0
20 37 43 66 45 45 52 96 117 112 140 70 70 72 65 28 14 9 9 0 2 6 0 1 25 5 0 3 0 6 0 9 0 0 0 0 0 0 0 0 0 0 0 0 0 0 0
25 41 49 57 31 38 32 72 74 73 87 76 38 19 7 4 3 5 6 0 0 11 0 0 67 0 11 8 4 2 0 0 0 0 0 0 0 0 0 0 0 0 0 0 0 0 0
23 41 39 39 42 31 18 38 63 50 45 50 55 24 25 17 7 3 0 0 16 237 63 133 0 0 21 10 29 0 0 0 0 0 0 0 0 0 0 0 0 0 0 0 0 0 0
21 52 27 46 53 30 22 9 58 39 31 33 53 36 10 9 3 0 0 0 0 2 15 0 0 0 2 5 0 0 0 0 0 0 0 0 0 0 0 0 0 0 0 0 0 0 0
16 39 48 43 52 54 35 10 15 27 13 6 4 59 56 8 0 0 0 0 0 3 1 8 1 4 3 0 0 0 2 0 0 0 0 0 0 0 0 0 0 0 0 0 0 0 0
13 31 48 41 68 79 42 25 5 5 25 6 3 27 65 9 6 0 0 0 0 0 6 6 3 1 0 0 0 2 3 0 0 0 0 0 0 0 0 0 0 0 0 0 0 0 0
10 24 43 51 76 66 23 18 9 0 0 2 2 10 18 5 13 0 0 0 0 0 5 0 5 15 4 6 5 3 4 0 0 0 0 0 0 0 0 0 0 0 0 0 0 0 0
5 14 28 47 74 61 26 13 6 3 0 0 0 0 0 0 0 0 0 1 0 0 0 3 4 1 12 13 1 0 5 0 0 0 0 0 0 0 0 0 0 2 0 0 0 2 0
5 9 21 38 62 72 33 8 2 5 2 0 0 0 0 0 0 1 0 0 0 0 0 6 11 0 1 11 0 0 0 16 26 13 1 0 0 0 1 0 0 0 0 0 2 20 14
3 9 12 28 40 54 50 31 10 0 0 0 0 0 0 0 0 0 0 0 0 0 0 11 10 11 7 3 2 2 0 2 1 4 0 0 0 0 0 0 0 0 0 0 0 4 1
6 8 11 16 20 31 45 33 28 11 0 0 0 0 0 0 0 0 0 0 0 0 5 10 16 9 10 24 6 16 11 4 2 1 0 0 0 0 0 2 0 1 10 0 0 4 0
6 2 9 10 17 18 27 29 26 20 12 0 0 0 0 0 0 0 0 0 0 13 16 1 0 4 0 2 1 3 1 9 0 4 10 0 0 0 0 0 3 6 16 1 0 0 0
7 0 5 10 12 9 19 16 9 8 21 1 0 0 0 0 0 0 0 0 7 1 0 0 0 0 7 9 15 11 19 8 7 1 5 21 0 0 0 0 0 7 15 12 14 4 1
5 1 1 4 11 8 11 13 8 11 23 0 0 0 0 0 0 0 0 3 0 0 0 0 0 0 0 0 3 8 10 0 8 0 1 9 4 0 0 0 0 9 8 13 9 0 0
2 2 0 4 4 6 6 12 12 12 15 0 0 0 0 0 0 0 0 0 0 0 0 0 0 0 0 1 0 1 0 0 0 0 0 1 4 0 0 0 0 9 31 14 8 9 1
5 4 0 2 4 5 7 4 12 13 7 0 0 0 0 0 0 0 0 0 0 0 0 0 0 0 0 0 0 0 0 0 0 0 0 0 0 0 0 0 0 0 0 6 2 0 0
6 2 1 0 4 6 9 10 8 17 3 0 0 0 0 0 0 0 0 0 0 0 0 0 0 0 0 0 0 0 0 0 0 0 0 0 0 0 0 0 0 0 0 0 0 0 0
4 3 0 0 2 4 11 13 19 19 2 0 0 0 0 0 0 0 0 0 0 0 0 0 0 0 0 0 0 0 0 0 0 0 0 0 0 0 0 0 0 0 0 0 0 0 0
8 1 1 0 2 5 17 19 21 17 0 0 0 0 0 0 0 0 0 0 0 0 0 0 0 0 0 0 0 0 0 0 0 0 0 0 0 0 0 0 0 0 0 0 0 0 0
10 0 0 0 1 3 16 25 9 5 0 0 0 0 0 0 0 0 0 0 0 0 0 0 0 0 0 0 0 0 0 0 0 0 0 0 0 0 0 0 0 0 0 0 0 0 0
23 0 0 0 0 5 11 18 3 0 0 0 0 0 0 0 0 0 0 0 0 0 0 0 0 0 0 0 0 0 0 0 0 0 0 0 0 0 0 0 0 0 0 0 0 0 0
33 0 0 0 0 7 6 6 0 0 0 0 0 0 0 0 0 0 0 0 0 0 0 0 0 0 0 0 0 0 0 0 0 0 0 0 0 0 0 0 0 0 0 0 0 0 0
22 0 0 0 0 3 3 0 0 0 0 0 0 0 0 0 0 0 0 0 0 0 0 0 0 0 0 0 0 0 0 0 0 0 0 0 0 0 0 0 0 0 0 0 0 0 0
19 0 0 0 0 1 4 0 0 0 0 0 0 0 0 0 0 0 0 0 0 0 0 0 0 0 0 0 0 0 0 0 0 0 0 0 0 0 0 0 0 0 0 0 0 0 0
18 2 0 0 0 0 0 0 0 0 0 0 0 0 0 0 0 0 0 0 0 0 0 0 0 0 0 0 0 0 0 0 0 0 0 0 0 0 0 0 0 0 0 0 0 0 0
16 8 0 0 0 0 0 0 0 0 0 0 0 0 0 0 0 0 0 0 0 0 0 0 0 0 0 0 0 0 0 0 0 0 0 0 0 0 0 0 0 0 0 0 0 0 0
11 16 0 0 0 0 0 0 0 0 0 0 0 0 0 0 0 0 0 0 0 0 0 0 0 0 0 0 0 0 0 0 0 0 0 0 0 0 0 0 0 0 0 0 0 0 0

GFSGBSN_con_sbcape_111.txt.gz
CAPE
18 50 65 63 85 70 45 30 27 65 98 55 58 114 95 55 31 7 6 0 0 0 2 0 1 34 7 0 11 1 57 50 0 0 0 0 0 0 0 0 0 0 0 0 0 0 0
45 46 63 66 75 73 52 39 27 24 75 65 66 7 37 57 40 14 4 0 6 0 0 7 19 12 9 2 1 3 0 0 0 0 0 0 0 0 0 0 0 0 0 0 0 0 0
26 61 57 70 77 80 72 57 34 26 12 48 27 51 26 25 19 7 2 2 1 0 0 0 95 55 29 13 7 0 0 0 0 0 0 0 0 0 0 0 0 0 0 0 0 0 0
21 58 74 77 75 80 72 59 45 17 15 2 16 21 25 22 14 1 0 0 12 85 13 2 38 19 23 24 42 16 2 0 0 0 0 0 0 0 0 0 0 0 0 0 0 0 0
22 43 69 73 73 77 79 57 31 27 7 4 2 5 7 1 0 0 0 0 340 86 76 96 0 6 4 39 38 2 0 0 0 0 0 0 0 0 0 0 0 0 0 0 0 0 0
20 31 52 73 73 79 80 49 32 23 5 1 0 2 2 0 0 0 0 0 12 26 11 1 0 1 12 15 0 0 0 0 0 0 0 0 0 0 0 0 0 0 0 0 0 0 0
15 23 40 56 67 64 35 25 19 30 4 0 0 1 19 15 0 0 0 0 0 5 7 7 5 12 4 0 6 1 1 0 0 0 0 0 0 0 0 0 0 0 0 0 0 0 0
18 13 25 49 77 61 24 18 20 21 13 1 0 0 10 3 0 0 0 0 1 0 3 1 5 0 0 1 2 8 0 0 0 0 0 0 0 0 0 0 0 0 0 0 0 0 0
14 17 15 29 53 71 37 23 12 17 14 2 1 0 0 0 0 0 0 3 0 0 9 1 3 8 14 6 4 1 0 0 0 0 0 0 0 0 0 0 0 0 0 0 0 0 0
8 15 14 12 27 48 56 37 11 12 14 0 0 0 0 0 0 0 0 0 0 0 0 3 4 2 8 15 2 0 2 0 0 0 0 0 0 0 0 0 0 1 0 0 0 0 3
5 15 11 14 12 27 43 43 37 2 4 2 0 0 0 0 0 0 0 0 0 0 0 3 11 0 0 7 0 0 0 7 3 11 0 0 0 0 0 0 0 0 0 0 0 5 8
11 3 11 8 11 18 23 39 41 41 1 0 0 0 0 0 0 0 0 0 0 0 0 9 13 7 5 0 3 0 0 0 0 0 0 0 0 0 0 0 0 0 0 0 0 9 3
9 2 9 7 8 11 12 24 27 26 27 0 0 0 0 0 0 0 0 0 0 0 1 14 13 12 6 6 0 0 0 0 0 0 0 0 0 0 0 0 0 0 5 1 0 3 0
5 9 2 12 5 7 6 9 11 20 17 2 0 0 0 0 0 0 0 0 0 4 10 0 1 0 0 0 0 1 0 0 0 0 2 0 0 0 0 0 0 6 9 2 0 0 0
3 6 2 4 12 9 5 9 16 10 13 6 0 0 0 0 0 0 0 0 0 1 0 0 0 0 3 9 8 2 2 0 4 0 2 14 0 0 0 0 0 17 20 5 21 10 7
5 3 7 0 5 9 7 5 8 12 9 0 0 0 0 0 0 0 0 3 0 0 0 0 0 0 0 0 2 2 5 0 4 0 0 7 6 0 0 0 0 6 13 23 11 0 1
12 6 7 0 2 6 5 5 4 5 1 0 0 0 0 0 0 0 0 0 0 0 0 0 0 0 0 0 0 0 0 0 0 0 0 2 11 0 0 0 3 14 27 19 11 13 2
16 7 6 3 0 5 4 5 6 14 0 0 0 0 0 0 0 0 0 0 0 0 0 0 0 0 0 0 0 0 0 0 0 0 0 0 0 2 0 0 0 0 1 12 2 0 0
25 11 2 1 0 7 9 19 23 15 0 0 0 0 0 0 0 0 0 0 0 0 0 0 0 0 0 0 0 0 0 0 0 0 0 0 0 0 0 0 0 0 0 1 8 0 0
22 11 2 0 0 12 13 24 22 3 0 0 0 0 0 0 0 0 0 0 0 0 0 0 0 0 0 0 0 0 0 0 0 0 0 0 0 0 0 0 0 0 0 0 0 0 0
18 17 1 0 0 6 21 26 9 0 0 0 0 0 0 0 0 0 0 0 0 0 0 0 0 0 0 0 0 0 0 0 0 0 0 0 0 0 0 0 0 0 0 0 0 0 0
19 19 0 0 0 7 14 3 0 0 0 0 0 0 0 0 0 0 0 0 0 0 0 0 0 0 0 0 0 0 0 0 0 0 0 0 0 0 0 0 0 0 0 0 0 0 0
23 22 0 0 0 6 12 8 0 0 0 0 0 0 0 0 0 0 0 0 0 0 0 0 0 0 0 0 0 0 0 0 0 0 0 0 0 0 0 0 0 0 0 0 0 0 0
23 25 0 0 0 2 5 4 1 0 0 0 0 0 0 0 0 0 0 0 0 0 0 0 0 0 0 0 0 0 0 0 0 0 0 0 0 0 0 0 0 0 0 0 0 0 0
17 23 1 0 0 0 3 0 0 0 0 0 0 0 0 0 0 0 0 0 0 0 0 0 0 0 0 0 0 0 0 0 0 0 0 0 0 0 0 0 0 0 0 0 0 0 0
11 19 1 0 0 0 0 0 0 0 0 0 0 0 0 0 0 0 0 0 0 0 0 0 0 0 0 0 0 0 0 0 0 0 0 0 0 0 0 0 0 0 0 0 0 0 0
3 11 1 0 0 0 0 0 0 0 0 0 0 0 0 0 0 0 0 0 0 0 0 0 0 0 0 0 0 0 0 0 0 0 0 0 0 0 0 0 0 0 0 0 0 0 0
6 11 1 0 0 0 0 0 0 0 0 0 0 0 0 0 0 0 0 0 0 0 0 0 0 0 0 0 0 0 0 0 0 0 0 0 0 0 0 0 0 0 0 0 0 0 0
4 6 6 0 0 0 0 0 0 0 0 0 0 0 0 0 0 0 0 0 0 0 0 0 0 0 0 0 0 0 0 0 0 0 0 0 0 0 0 0 0 0 0 0 0 0 0

GFSGBSN_con_sbcape_114.txt.gz
CAPE
29 46 54 64 77 65 67 76 57 44 46 62 4 58 36 40 19 13 8 1 0 0 0 0 2 197 27 15 37 3 57 107 0 0 0 0 0 0 0 0 0 0 0 0 0 0 0
22 37 50 57 64 65 68 74 65 62 43 31 34 5 44 81 33 15 3 0 0 0 0 0 14 52 16 34 13 1 0 0 0 0 0 0 0 0 0 0 0 0 0 0 0 0 0
25 35 35 60 69 62 61 74 71 60 68 40 16 6 0 13 1 0 0 0 0 0 0 2 40 105 62 62 2 0 0 0 0 0 0 0 0 0 0 0 0 0 0 0 0 0 0
20 37 30 54 65 30 37 41 65 58 72 72 71 40 2 8 0 0 0 6 24 26 6 71 132 35 118 63 1 0 0 0 0 0 0 0 0 0 0 0 0 0 0 0 0 0 0
17 23 33 46 51 32 23 39 43 62 93 115 173 165 67 17 0 0 0 239 228 110 100 49 8 9 56 72 30 2 0 0 0 0 0 0 0 0 0 0 0 0 0 0 0 0 0
20 22 32 35 49 31 17 30 41 61 92 109 206 138 63 23 0 0 0 195 101 41 38 35 20 0 4 18 10 2 0 0 0 0 0 0 0 0 0 0 0 0 0 0 0 0 0
17 23 18 30 40 38 20 17 44 37 54 56 70 0 0 0 0 0 0 0 10 3 8 20 21 11 16 5 1 3 4 0 0 0 0 0 0 0 0 0 0 0 0 0 0 0 0
13 19 30 16 33 33 26 30 19 21 20 47 1 0 0 0 0 0 0 1 2 0 2 4 6 5 3 0 9 2 0 0 0 0 0 0 0 0 0 0 0 0 0 0 0 0 0
6 16 18 27 21 32 27 28 27 4 5 15 4 0 0 0 0 0 3 8 8 1 4 0 0 3 5 15 2 3 0 0 0 0 0 0 0 0 0 0 0 0 0 0 0 0 0
10 10 15 27 32 23 24 17 19 14 0 0 1 0 0 0 0 0 1 0 4 2 2 2 1 9 8 3 5 1 3 3 0 0 0 0 0 0 0 0 0 0 0 0 1 2 5
11 4 11 25 31 29 24 18 10 5 4 0 0 0 0 0 0 0 0 0 0 0 4 3 11 0 9 10 0 0 4 2 11 7 0 0 0 0 1 0 0 0 0 5 5 11 13
15 10 4 15 27 30 30 23 14 6 2 1 0 0 0 0 0 0 0 0 0 349 4 5 9 7 5 1 2 0 0 0 0 1 0 0 0 0 0 0 0 0 1 4 7 9 10
12 10 7 6 15 18 22 30 24 10 3 3 0 0 0 0 0 0 0 0 176 5 0 1 3 3 11 7 0 8 0 1 3 11 6 0 0 0 0 0 0 0 3 13 20 16 6
13 11 8 2 7 16 20 27 22 13 4 5 0 0 0 0 0 0 0 0 1 6 6 0 2 0 0 12 1 7 4 0 0 3 6 1 5 0 0 0 14 2 15 25 13 11 14
15 12 8 7 1 10 12 24 18 7 9 0 0 0 0 0 0 0 0 5 7 2 0 0 0 6 3 9 4 0 0 0 0 0 3 5 0 0 0 0 1 11 39 13 37 7 30
21 5 11 8 0 6 9 17 19 7 5 0 0 0 0 0 0 0 3 7 3 1 0 0 4 0 3 0 5 4 2 0 0 0 0 5 2 0 0 0 0 7 7 41 26 11 12
22 13 7 6 0 7 10 17 23 23 1 0 0 0 0 0 0 0 2 0 0 0 0 0 0 0 1 0 3 5 0 0 2 7 1 7 7 0 0 1 4 14 30 24 21 6 18
12 20 1 7 0 6 14 18 19 12 0 0 0 0 0 0 0 0 0 0 0 0 0 0 0 0 0 0 0 0 0 0 0 0 0 0 11 5 0 0 0 0 15 19 12 12 7
7 22 4 2 0 6 15 15 4 5 0 0 0 0 0 0 0 0 0 0 0 0 0 0 0 0 0 0 0 0 0 0 0 0 0 0 2 0 0 0 0 0 7 7 8 7 4
3 18 6 0 0 9 13 2 0 0 0 0 0 0 0 0 0 0 0 0 0 0 0 0 0 0 0 0 0 0 0 0 0 0 0 0 0 0 0 0 0 0 0 1 5 5 1
12 6 3 0 0 4 5 0 0 0 0 0 0 0 0 0 0 0 0 0 0 0 0 0 0 0 0 0 0 0 0 0 0 0 0 0 0 0 0 0 0 0 0 0 1 0 1
11 4 0 0 0 3 2 0 0 0 0 0 0 0 0 0 0 0 0 0 0 0 0 0 0 0 0 0 0 0 0 0 0 0 0 0 0 0 0 0 0 0 0 0 0 1 0
6 15 0 0 0 1 1 0 0 0 0 0 1 0 0 0 0 0 0 0 0 0 0 0 0 0 0 0 0 0 0 0 0 0 0 0 0 0 0 0 0 0 0 0 0 0 0
11 17 3 0 0 0 0 0 0 0 0 0 0 0 0 0 0 0 0 0 0 0 0 0 0 0 0 0 0 0 0 0 0 0 0 0 0 0 0 0 0 0 0 0 0 0 0
3 8 4 0 0 0 0 0 0 0 0 0 0 0 0 0 0 0 0 0 0 0 0 0 0 0 0 0 0 0 0 0 0 0 0 0 0 0 0 0 0 0 0 0 0 0 0
0 4 2 0 0 0 0 0 0 0 0 0 0 0 0 0 0 0 0 0 0 0 0 0 0 0 0 0 0 0 0 0 0 0 0 0 0 0 0 0 0 0 0 0 0 0 0
4 1 3 0 0 0 0 0 0 0 0 0 0 0 0 0 0 0 0 0 0 0 0 0 0 0 0 0 0 0 0 0 0 0 0 0 0 0 0 0 0 0 0 0 0 0 0
5 5 2 0 0 0 0 0 0 0 0 0 0 0 0 0 0 0 0 0 0 0 0 0 0 0 0 0 0 0 0 0 0 0 0 0 0 0 0 0 0 0 0 0 0 0 0
6 4 3 0 0 0 0 0 0 0 0 0 0 0 0 0 0 0 0 0 0 0 0 0 0 0 0 0 0 0 0 0 0 0 0 0 0 0 0 0 0 0 0 0 0 0 0

GFSGBSN_con_sbcape_117.txt.gz
CAPE
36 45 52 70 71 45 43 60 65 40 57 76 106 76 55 52 12 6 15 2 2 0 0 6 1 95 13 1 13 1 8 88 0 0 0 0 0 0 0 0 0 0 0 0 0 0 0
38 38 59 71 32 35 38 36 91 82 149 159 148 100 54 29 0 0 0 0 2 0 0 0 59 71 15 12 10 1 0 0 0 0 0 0 0 0 0 0 0 0 0 0 0 0 0
36 42 50 71 35 38 35 33 80 140 255 316 226 108 30 20 3 0 0 0 0 0 0 1 46 77 5 14 3 0 0 0 0 0 0 0 0 0 0 0 0 0 0 0 0 0 0
30 36 44 63 51 39 29 47 61 111 193 276 187 79 47 16 4 22 44 61 11 1 12 32 52 53 65 16 14 0 0 0 0 0 0 0 0 0 0 0 0 0 0 0 0 0 0
26 29 35 45 57 46 28 53 37 33 32 10 2 7 7 25 3 165 289 143 123 96 102 12 22 24 19 48 9 1 0 0 0 0 0 0 0 0 0 0 0 0 0 0 0 0 0
14 29 33 31 40 33 45 16 25 17 18 9 1 0 1 0 0 16 113 80 62 34 3 12 12 1 4 26 15 0 0 3 0 0 0 0 0 0 0 0 0 0 0 0 0 0 0
14 21 28 25 22 30 32 47 20 18 3 6 0 0 0 0 0 0 0 0 27 8 17 20 11 12 12 16 10 12 0 0 0 0 0 0 0 0 0 0 0 0 0 0 0 0 0
6 18 24 28 18 21 21 33 38 11 3 1 0 0 0 0 0 0 0 0 5 1 2 9 16 9 7 2 6 5 8 0 0 0 0 0 0 0 0 0 0 0 0 0 0 0 0
19 9 11 17 23 20 19 14 16 25 12 0 0 0 0 0 0 0 1 2 4 1 2 3 8 15 17 21 9 8 6 1 0 0 0 1 0 0 0 0 0 0 0 0 0 0 0
19 9 11 7 15 21 20 19 12 14 15 3 0 0 0 0 0 0 0 0 0 1 8 11 12 6 19 19 2 0 1 8 0 0 0 0 0 0 0 0 0 0 0 0 0 0 1
22 22 4 9 6 10 13 15 24 10 11 9 0 0 0 0 0 0 0 0 0 0 3 5 5 0 15 9 2 0 0 8 1 5 1 0 0 0 1 0 0 1 0 1 3 2 9
24 21 16 3 6 7 11 11 12 12 10 11 4 0 0 0 0 0 0 0 0 42 9 9 1 8 9 7 1 0 0 0 0 5 0 1 0 0 2 0 0 0 0 2 0 3 7
23 22 20 8 2 6 12 12 8 11 10 7 2 0 0 0 0 0 0 0 93 17 0 0 8 7 7 5 7 8 3 2 1 25 8 3 2 0 0 1 1 1 0 3 22 13 14
19 18 18 14 2 6 13 14 8 6 7 0 0 0 0 0 0 0 0 0 3 6 4 0 6 10 9 9 1 7 4 5 2 4 0 1 2 1 0 1 18 0 12 15 9 26 10
22 14 21 10 3 7 14 16 11 12 8 0 0 0 0 0 0 0 0 6 3 5 5 7 4 9 9 8 6 11 1 1 0 2 0 6 5 0 0 1 1 12 33 13 16 2 10
17 16 20 8 3 8 10 20 10 8 1 0 0 0 0 0 0 0 3 4 4 0 0 2 11 2 2 4 0 3 5 0 3 0 1 0 2 0 0 0 1 4 3 41 26 17 21
12 19 9 11 0 9 10 14 10 2 0 0 0 0 0 0 0 0 15 2 0 0 0 2 2 3 6 4 3 0 5 3 3 4 5 1 3 0 0 1 18 18 21 13 5 2 19
8 19 7 7 0 6 7 2 3 1 0 0 0 0 0 0 0 0 1 0 0 0 0 0 0 0 0 0 4 2 1 1 0 3 8 3 5 2 0 0 0 3 10 9 22 10 4
6 11 9 1 0 5 4 1 2 2 0 0 0 0 0 0 0 0 0 0 0 0 0 0 0 0 0 0 0 0 0 0 0 0 5 4 1 1 0 0 0 1 1 1 6 2 4
0 8 9 0 0 5 2 0 2 0 0 0 0 0 0 0 0 0 0 0 0 0 0 0 0 0 0 0 0 0 0 0 0 0 0 0 1 0 0 0 0 0 0 0 4 8 0
0 4 6 0 0 1 1 0 0 0 0 0 0 0 0 0 0 0 0 0 0 0 0 0 0 0 0 0 0 0 0 0 0 0 0 0 0 0 0 0 0 0 0 0 6 0 2
0 0 2 0 0 0 0 0 0 0 0 0 0 0 0 0 0 0 0 0 0 0 0 0 0 0 0 0 0 0 0 0 0 0 0 0 0 0 0 0 0 0 0 0 0 0 2
1 0 2 0 0 0 0 0 0 0 0 0 0 0 0 0 0 0 0 0 0 0 0 0 0 0 0 0 0 0 0 0 0 0 0 0 0 0 0 0 0 0 0 0 0 0 0
2 0 1 0 0 0 0 0 0 0 0 0 0 0 0 0 0 0 0 0 0 0 0 0 0 0 0 0 0 0 0 0 0 0 0 0 0 0 0 0 0 0 0 0 0 0 0
3 2 0 0 0 0 0 0 0 0 0 0 0 0 0 0 0 0 0 0 0 0 0 0 0 0 0 0 0 0 0 0 0 0 0 0 0 0 0 0 0 0 0 0 0 0 0
3 5 1 5 0 0 0 0 0 0 0 0 0 0 0 0 0 0 0 0 0 0 0 0 0 0 0 0 0 0 0 0 0 0 0 0 0 0 0 0 0 0 0 0 0 0 0
0 2 2 1 0 0 0 0 0 0 0 0 0 0 0 0 0 0 0 0 0 0 0 0 0 0 0 0 0 0 0 0 0 0 0 0 0 0 0 0 0 0 0 0 0 0 0
0 1 1 1 3 0 0 0 0 0 0 0 0 0 0 0 0 0 0 0 0 0 0 0 0 0 0 0 0 0 0 0 0 0 0 0 0 0 0 0 0 0 0 0 0 0 0
0 0 1 0 0 0 0 0 0 0 0 0 0 0 0 0 0 0 0 0 0 0 0 0 0 0 0 0 0 0 0 0 0 0 0 0 0 0 0 0 0 0 0 0 0 0 0

GFSGBSN_con_sbcape_120.txt.gz
CAPE
27 41 37 62 42 28 55 78 95 230 258 213 88 38 22 4 5 9 12 7 5 0 0 0 11 93 41 4 24 0 32 43 0 0 0 0 0 0 0 0 0 0 0 0 0 0 0
29 29 29 56 50 26 51 58 48 83 83 62 26 23 3 2 1 0 0 0 0 0 0 2 112 20 6 2 7 7 0 0 0 0 0 0 0 0 0 0 0 0 0 0 0 0 0
28 18 19 41 50 43 20 28 32 18 12 17 10 12 5 13 25 31 19 0 0 0 0 35 57 8 0 17 9 3 0 0 0 0 0 0 0 0 0 0 0 0 0 0 0 0 0
27 24 25 26 51 52 10 17 21 22 8 14 11 6 18 36 95 116 93 58 34 27 56 81 51 9 27 27 13 0 0 0 0 0 0 0 0 0 0 0 0 0 0 0 0 0 0
19 14 18 23 34 43 51 12 9 14 9 12 12 5 35 31 56 44 68 86 87 68 38 79 18 0 33 48 6 0 0 0 0 0 0 0 0 0 0 0 0 0 0 0 0 0 0
11 16 19 20 17 39 32 35 15 5 5 2 1 0 0 2 0 10 38 54 29 10 13 3 1 1 8 14 0 0 0 0 0 0 0 0 0 0 0 0 0 0 0 0 0 0 0
4 12 13 16 13 23 22 38 37 21 5 0 0 0 0 0 0 0 0 7 6 10 13 24 14 11 3 0 0 0 0 0 0 0 0 0 0 0 0 0 0 0 0 0 0 0 0
24 3 13 13 14 16 19 27 28 14 15 2 0 0 0 0 0 0 0 0 2 1 16 18 7 3 1 0 4 2 0 0 0 0 0 0 0 0 0 0 0 0 0 0 0 0 0
26 18 3 10 13 11 14 19 24 17 9 7 0 0 0 0 0 0 0 0 0 0 2 9 5 8 17 18 6 0 0 0 0 0 0 0 0 0 0 0 0 0 0 0 0 0 0
25 23 11 4 11 15 14 16 13 14 5 4 3 0 0 0 0 0 0 0 0 0 0 0 2 0 14 6 0 0 0 0 0 0 0 0 0 0 0 0 0 0 0 0 0 0 0
24 26 21 5 4 11 7 12 11 10 6 1 0 0 0 0 0 0 0 0 0 0 0 1 0 0 2 0 0 0 0 1 0 0 0 0 0 0 0 0 0 0 0 0 0 0 1
18 21 23 17 2 8 5 4 7 5 3 1 0 0 0 0 0 0 0 0 0 0 1 1 1 1 1 0 0 0 0 0 0 0 0 0 0 0 1 0 0 0 0 0 0 0 0
20 15 26 14 6 9 15 6 5 9 5 0 0 0 0 0 0 0 0 0 0 4 0 0 3 1 5 2 1 0 0 1 2 0 0 1 0 0 0 0 0 2 0 0 0 0 0
13 21 18 10 5 6 13 19 6 13 2 0 0 0 0 0 0 0 0 0 0 2 3 0 0 6 0 0 1 2 1 2 0 0 0 1 0 0 0 0 3 2 0 0 0 1 0
12 15 13 10 1 12 8 10 3 5 0 0 0 0 0 0 0 0 0 0 1 1 0 1 1 2 0 0 1 0 3 2 1 0 0 1 1 0 0 1 0 1 1 2 0 0 0
14 19 16 7 0 8 11 6 3 4 1 0 0 0 0 0 0 0 0 0 0 0 0 0 7 1 1 0 0 0 1 0 0 0 0 0 0 0 0 0 0 1 0 3 10 0 1
11 10 13 7 0 5 4 4 4 1 0 0 0 0 0 0 0 0 0 0 0 0 0 0 0 0 0 0 0 0 0 0 0 0 0 0 0 0 0 0 1 3 4 1 1 0 2
6 14 8 9 0 2 3 1 3 1 0 0 0 0 0 0 0 0 0 0 0 0 0 0 0 0 0 0 0 0 0 0 0 0 0 1 0 0 0 0 0 0 0 0 7 0 0
3 7 8 5 0 1 2 0 0 1 0 0 0 0 0 0 0 0 0 0 0 0 0 0 0 0 0 0 0 0 0 0 0 0 0 0 0 0 0 0 0 0 0 0 0 0 0
0 0 2 0 0 0 1 0 0 0 0 0 0 0 0 0 0 0 0 0 0 0 0 0 0 0 0 0 0 0 0 0 0 0 0 0 0 0 0 0 0 0 0 0 0 1 0
0 0 0 0 0 0 0 0 0 0 0 0 0 0 0 0 0 0 0 0 0 0 0 0 0 0 0 0 0 0 0 0 0 0 0 0 0 0 0 0 0 0 0 0 0 0 1
0 0 0 0 0 0 0 0 0 0 0 0 0 0 0 0 0 0 0 0 0 0 0 0 0 0 0 0 0 0 0 0 0 0 0 0 0 0 0 0 0 0 0 0 0 0 0
0 0 0 0 0 0 0 0 0 0 0 0 0 0 0 0 0 0 0 0 0 0 0 0 0 0 0 0 0 0 0 0 0 0 0 0 0 0 0 0 0 0 0 0 0 0 0
2 0 0 0 0 0 0 0 0 0 0 0 0 0 0 0 0 0 0 0 0 0 0 0 0 0 0 0 0 0 0 0 0 0 0 0 0 0 0 0 0 0 0 0 0 0 0
5 2 0 1 0 0 0 0 0 0 0 0 0 0 0 0 0 0 0 0 0 0 0 0 0 0 0 0 0 0 0 0 0 0 0 0 0 0 0 0 0 0 0 0 0 0 0
6 4 1 0 0 0 0 0 0 0 0 0 0 0 0 0 0 0 0 0 0 0 0 0 0 0 0 0 0 0 0 0 0 0 0 0 0 0 0 0 0 0 0 0 0 0 0
10 8 1 0 0 0 0 0 0 0 0 0 0 0 0 0 0 0 0 0 0 0 0 0 0 0 0 0 0 0 0 0 0 0 0 0 1 0 0 0 0 0 0 0 0 0 0
4 5 1 0 0 0 0 0 0 0 0 0 0 0 0 0 0 0 0 0 0 0 0 0 0 0 0 0 0 0 0 0 0 0 0 0 0 0 0 0 0 0 0 0 0 0 0
0 2 4 0 0 0 0 0 0 0 0 0 0 0 0 0 0 0 0 0 0 0 0 0 0 0 0 0 0 0 0 0 0 0 0 0 0 0 0 0 0 0 0 0 0 0 0